[[[{"header":{"parameterUnit":"kt","parameterCategory":2,"dx":1,"dy":1,"la1":29.587661999999998,"la2":31.0,"lo1":-88.76705300000003,"lo2":-86.6583820000003,"nx":115,"ny":88,"refTime":"2022-09-19T06:00:00:Z","depth":0,"parameterNumber":1,"parameterNumberName":"U-component_of_WINDS"},"data":[12.5481,12.27,12.1971,11.9059,11.5267,11.4879,11.4879,11.4879,11.4879,11.4879,11.4879,11.4879,11.4879,11.4879,11.4879,11.4879,11.4879,11.4879,11.4879,11.4879,11.4879,11.4879,11.4879,11.4879,11.4879,11.4879,11.4879,11.4879,11.4879,11.4879,11.4879,11.4879,11.4879,11.4879,11.4879,11.4879,11.4879,11.4879,11.4879,11.4879,11.4879,11.4879,11.4879,11.4879,11.4879,11.4879,11.432,11.2335,10.9677,10.5805,10.1328,9.8574,9.7531,9.7065,9.6583,9.6395,9.6395,9.6395,9.6395,9.6395,9.6395,9.6395,9.6395,9.6395,9.6395,9.6395,9.6395,9.6395,9.6542,9.6981,9.6981,9.6688,9.6737,9.8233,9.8965,9.9519,10.0593,10.1178,10.178,10.2429,10.2771,10.2771,10.2771,10.282,10.282,10.282,10.282,10.2966,10.3829,10.5132,10.6421,10.7412,10.8402,10.889,10.928,10.928,10.928,10.928,10.928,10.928,10.928,10.928,10.928,10.928,10.928,10.928,10.928,10.928,10.928,10.9161,10.8323,10.7828,10.7571,10.7014,10.6159,12.4979,12.3403,12.0474,11.7421,11.5115,11.4879,11.4879,11.4879,11.4879,11.4879,11.4879,11.4879,11.4879,11.4879,11.4879,11.4879,11.4879,11.4879,11.4879,11.4879,11.4879,11.4879,11.4879,11.4879,11.4879,11.4879,11.4879,11.4879,11.4879,11.4879,11.4879,11.4879,11.4879,11.4879,11.4879,11.4879,11.4879,11.4879,11.4879,11.4879,11.4879,11.4879,11.4879,11.4879,11.4879,11.4879,11.4879,11.3976,11.2578,10.8506,10.3893,10.0968,9.9229,9.7407,9.6802,9.6395,9.6395,9.6395,9.6395,9.6395,9.6395,9.6395,9.6395,9.6395,9.6395,9.6395,9.6395,9.6395,9.6395,9.6542,9.6542,9.6444,9.6444,9.6981,9.7225,9.7567,9.9177,10.0593,10.1585,10.2625,10.2756,10.2756,10.2804,10.282,10.282,10.282,10.2868,10.2917,10.3536,10.5264,10.647,10.7314,10.8402,10.889,10.9232,10.928,10.928,10.928,10.928,10.928,10.928,10.928,10.928,10.928,10.928,10.928,10.928,10.928,10.928,10.928,10.8837,10.8655,10.8277,10.7635,10.674,12.3039,12.3524,12.0088,11.7117,11.5194,11.4879,11.4879,11.4879,11.4879,11.4879,11.4879,11.4879,11.4879,11.4879,11.4879,11.4879,11.4879,11.4879,11.4879,11.4879,11.4879,11.4879,11.4879,11.4879,11.4879,11.4879,11.4879,11.4879,11.4879,11.4879,11.4879,11.4879,11.4879,11.4879,11.4879,11.4879,11.4879,11.4879,11.4879,11.4879,11.4879,11.4879,11.4879,11.4879,11.4879,11.4879,11.4879,11.4721,11.3038,10.9704,10.6354,10.3387,9.9351,9.75,9.6552,9.6395,9.6395,9.6395,9.6395,9.6395,9.6395,9.6395,9.6395,9.6395,9.6395,9.6395,9.6395,9.6395,9.6395,9.6395,9.6395,9.6395,9.6395,9.6395,9.6639,9.6737,9.7811,9.9275,10.0446,10.1504,10.1929,10.2076,10.2576,10.2591,10.2786,10.2786,10.282,10.2868,10.4302,10.5933,10.6484,10.7265,10.8451,10.9098,10.9232,10.928,10.928,10.928,10.928,10.928,10.928,10.928,10.928,10.928,10.928,10.928,10.928,10.928,10.928,10.928,10.928,10.928,10.8844,10.8285,10.7642,12.0623,12.2207,11.8982,11.6616,11.4979,11.4879,11.4879,11.4879,11.4879,11.4879,11.4879,11.4879,11.4879,11.4879,11.4879,11.4879,11.4879,11.4879,11.4879,11.4879,11.4879,11.4879,11.4879,11.4879,11.4879,11.4879,11.4879,11.4879,11.4879,11.4879,11.4879,11.4879,11.4879,11.4879,11.4879,11.4879,11.4879,11.4879,11.4879,11.4879,11.4879,11.4879,11.4879,11.4879,11.4879,11.4879,11.4879,11.4879,11.3386,11.1818,10.9037,10.4705,9.8912,9.7251,9.652,9.6395,9.6395,9.6395,9.6395,9.6395,9.6395,9.6395,9.6395,9.6395,9.6395,9.6395,9.6395,9.6395,9.6395,9.6395,9.6395,9.6395,9.6395,9.6395,9.6444,9.6444,9.6493,9.7762,9.8982,9.9859,10.0674,10.1376,10.2106,10.2445,10.2607,10.2704,10.2737,10.321,10.4595,10.5312,10.5752,10.7182,10.8367,10.9001,10.9232,10.928,10.928,10.928,10.928,10.928,10.928,10.928,10.928,10.928,10.928,10.928,10.928,10.928,10.928,10.928,10.928,10.928,10.8955,10.8768,10.8355,11.8194,11.8399,11.587,11.4946,11.4888,11.4879,11.4879,11.4879,11.4879,11.4879,11.4879,11.4879,11.4879,11.4879,11.4879,11.4879,11.4879,11.4879,11.4879,11.4879,11.4879,11.4879,11.4879,11.4879,11.4879,11.4879,11.4879,11.4879,11.4879,11.4879,11.4879,11.4879,11.4879,11.4879,11.4879,11.4879,11.4879,11.4879,11.4879,11.4879,11.4879,11.4879,11.4879,11.4879,11.4879,11.4879,11.4879,11.4853,11.4748,11.459,11.3145,11.0395,10.4652,10.0294,9.7376,9.652,9.6395,9.6395,9.6395,9.6395,9.6395,9.6395,9.6395,9.6395,9.6395,9.6395,9.6395,9.6395,9.6395,9.6395,9.6395,9.6395,9.6395,9.6395,9.6395,9.6395,9.6493,9.7127,9.8184,9.8768,9.9548,10.0332,10.1032,10.1389,10.1516,10.2311,10.2625,10.3015,10.3829,10.4253,10.5376,10.7084,10.7963,10.8548,10.889,10.928,10.928,10.928,10.928,10.928,10.928,10.928,10.928,10.928,10.928,10.928,10.928,10.928,10.928,10.928,10.928,10.928,10.9232,10.9156,10.8912,11.7849,11.7703,11.5495,11.4649,11.4882,11.4879,11.4879,11.4879,11.4879,11.4879,11.4879,11.4879,11.4879,11.4879,11.4879,11.4879,11.4879,11.4879,11.4879,11.4879,11.4879,11.4879,11.4879,11.4879,11.4879,11.4879,11.4879,11.4879,11.4879,11.4879,11.4879,11.4879,11.4879,11.4879,11.4879,11.4879,11.4879,11.4879,11.4879,11.4879,11.4879,11.4879,11.4879,11.4879,11.4879,11.4879,11.4879,11.4879,11.4853,11.4853,11.2551,11.0615,10.8562,10.2708,9.9046,9.6708,9.6489,9.6395,9.6395,9.6395,9.6395,9.6395,9.6395,9.6395,9.6395,9.6395,9.6395,9.6395,9.6395,9.6395,9.6395,9.6395,9.6395,9.6395,9.6395,9.6395,9.6639,9.6883,9.7305,9.7857,9.8458,9.9207,9.9779,10.0122,10.0598,10.1106,10.1551,10.1957,10.2429,10.2756,10.4058,10.601,10.6986,10.7865,10.8792,10.928,10.9196,10.9112,10.9196,10.928,10.928,10.928,10.928,10.928,10.928,10.928,10.928,10.928,10.928,10.928,10.928,10.928,10.928,10.928,10.928,11.7659,11.7292,11.5374,11.4411,11.4338,11.4271,11.4562,11.4879,11.4879,11.4879,11.4879,11.4879,11.4879,11.4879,11.4879,11.4879,11.4879,11.4879,11.4879,11.4879,11.4879,11.4879,11.4879,11.4879,11.4879,11.4879,11.4879,11.4879,11.4879,11.4879,11.4879,11.4879,11.4879,11.4879,11.4879,11.4879,11.4879,11.4879,11.4879,11.4879,11.4879,11.4879,11.4879,11.4879,11.4879,11.4879,11.4879,11.4879,11.4879,11.4827,11.2739,11.0835,11.0313,10.5434,10.1088,9.8255,9.6864,9.6395,9.6395,9.6395,9.6395,9.6395,9.6395,9.6395,9.6395,9.6395,9.6395,9.6395,9.6395,9.6395,9.6395,9.6395,9.6395,9.6395,9.6395,9.6395,9.6444,9.6639,9.6688,9.7093,9.7236,9.805,9.8884,9.9209,9.9303,9.9616,9.9958,10.0413,10.0787,10.0999,10.2154,10.4302,10.5488,10.6429,10.7453,10.854,10.87,10.8908,10.9161,10.928,10.9183,10.9134,10.9232,10.928,10.928,10.928,10.9232,10.928,10.928,10.928,10.928,10.928,10.928,10.928,10.928,11.7247,11.6176,11.4973,11.4001,11.3185,11.3393,11.3878,11.4821,11.4879,11.4879,11.4879,11.4879,11.4879,11.4879,11.4879,11.4879,11.4879,11.4879,11.4879,11.4879,11.4879,11.4879,11.4879,11.4879,11.4879,11.4879,11.4879,11.4879,11.4879,11.4879,11.4879,11.4879,11.4879,11.4879,11.4879,11.4879,11.4879,11.4879,11.4879,11.4879,11.4879,11.4879,11.4879,11.4879,11.4879,11.4879,11.4879,11.4879,11.4879,11.48,11.459,11.2793,11.0423,10.7292,10.4267,10.1208,9.8162,9.7096,9.652,9.6395,9.6458,9.7282,9.6771,9.6395,9.6395,9.6395,9.6395,9.6395,9.6395,9.6395,9.6395,9.6395,9.6395,9.6395,9.6395,9.6395,9.6395,9.6395,9.6395,9.6475,9.6618,9.6978,9.7845,9.8139,9.8272,9.8495,9.8803,9.9113,9.9015,9.9177,10.0251,10.2414,10.381,10.4815,10.6047,10.7181,10.75,10.7749,10.8266,10.8442,10.8855,10.8841,10.8499,10.8388,10.889,10.9169,10.8961,10.901,10.9169,10.928,10.928,10.928,10.928,10.928,10.928,11.9444,11.8381,11.6407,11.5411,11.526,11.5214,11.4453,11.382,11.453,11.4879,11.4879,11.4879,11.4879,11.4879,11.4879,11.4879,11.4879,11.4879,11.4879,11.4879,11.4879,11.4879,11.4879,11.4879,11.4879,11.4879,11.4879,11.4879,11.4879,11.4879,11.4879,11.4879,11.4879,11.4821,11.4763,11.4705,11.4705,11.4763,11.4763,11.4763,11.4879,11.4879,11.4879,11.4879,11.4879,11.4879,11.4879,11.4879,11.4879,11.4879,11.4774,11.4267,11.29,11.067,10.8365,10.5895,10.2648,9.8667,9.7189,9.6739,9.7853,9.8636,9.7282,9.6552,9.6395,9.6395,9.6395,9.6395,9.6395,9.6395,9.6395,9.6395,9.6395,9.6395,9.6395,9.6395,9.6395,9.6395,9.6395,9.6395,9.6507,9.6573,9.6949,9.7113,9.7342,9.7535,9.7647,9.7371,9.7176,9.7469,9.8201,10.0169,10.1727,10.3131,10.4467,10.5769,10.6429,10.6629,10.6755,10.6868,10.7313,10.7781,10.7461,10.7216,10.7754,10.8193,10.8361,10.864,10.8787,10.8947,10.893,10.8956,10.928,10.928,10.928,12.0409,11.8971,11.7892,11.746,11.736,11.6324,11.522,11.4326,11.4572,11.4879,11.4879,11.4879,11.4879,11.4879,11.4879,11.4879,11.4879,11.4879,11.4879,11.4879,11.4879,11.4879,11.4879,11.4879,11.4879,11.4879,11.4879,11.4879,11.4879,11.4879,11.4879,11.4879,11.4879,11.4705,11.4271,11.3716,11.3923,11.4155,11.4271,11.4472,11.4879,11.4879,11.4879,11.4879,11.4879,11.4879,11.4879,11.4879,11.4879,11.4879,11.4879,11.4774,11.4135,11.1628,11.0009,10.8842,10.5924,10.1298,9.9035,9.9341,9.99,9.8912,9.8317,9.7853,9.6458,9.6395,9.6395,9.6395,9.6395,9.6395,9.6395,9.6395,9.6395,9.6395,9.6395,9.6395,9.6395,9.6395,9.6395,9.6395,9.6395,9.6493,9.6542,9.6771,9.682,9.6932,9.6981,9.6688,9.6639,9.6737,9.6981,9.8772,10.0218,10.1621,10.3038,10.4561,10.5382,10.5624,10.5666,10.5777,10.6012,10.6478,10.6401,10.6435,10.6812,10.7105,10.7056,10.7105,10.7858,10.8185,10.7828,10.7761,10.793,10.8163,10.8611,12.0006,11.8125,11.9118,11.9526,11.8978,11.6079,11.5288,11.5681,11.5293,11.5051,11.4906,11.4879,11.4879,11.4879,11.4879,11.4879,11.4879,11.4879,11.4879,11.4879,11.4879,11.4879,11.4879,11.4879,11.4879,11.4879,11.4879,11.4879,11.4879,11.4879,11.4879,11.4879,11.4588,11.4097,11.2908,11.1738,11.1738,11.2734,11.285,11.3515,11.4065,11.4239,11.4181,11.4239,11.4356,11.4472,11.4588,11.4647,11.4879,11.4879,11.4879,11.4879,11.48,11.2197,11.1108,11.0643,10.7604,10.4646,10.2084,10.4501,10.3181,10.0364,10.0213,9.9473,9.7438,9.6395,9.6395,9.6395,9.6395,9.6395,9.6395,9.6395,9.6395,9.6395,9.6395,9.6395,9.6395,9.6395,9.6395,9.6395,9.6395,9.6395,9.6395,9.6395,9.6395,9.6395,9.6395,9.6444,9.6444,9.659,9.6786,9.8133,9.9245,10.0524,10.1621,10.3248,10.4412,10.4641,10.4827,10.5033,10.5268,10.5175,10.539,10.5801,10.5898,10.5947,10.5766,10.5654,10.6114,10.6599,10.6374,10.6493,10.6567,10.6903,10.7565,12.0913,12.013,11.8894,11.8368,11.8395,11.8232,11.7048,11.5457,11.5687,11.5635,11.4906,11.4879,11.4879,11.4879,11.4879,11.4879,11.4879,11.4879,11.4879,11.4879,11.4879,11.4879,11.4879,11.4879,11.4879,11.4879,11.4879,11.4879,11.4879,11.4879,11.4763,11.4414,11.3981,11.3431,11.2559,11.1771,11.1157,11.1506,11.1564,11.1913,11.2087,11.2262,11.232,11.2436,11.3167,11.3457,11.3632,11.4298,11.4647,11.4763,11.4879,11.4879,11.459,11.4135,11.3599,11.2497,11.0807,10.873,10.8562,10.9899,11.0092,10.5521,10.3951,10.1208,9.9351,9.7668,9.7028,9.6704,9.6472,9.6395,9.6395,9.6395,9.6395,9.6395,9.6395,9.6395,9.6395,9.6395,9.6395,9.6395,9.6395,9.6395,9.6395,9.6395,9.6395,9.6395,9.6395,9.6395,9.6395,9.6493,9.6737,9.7586,9.8676,9.9506,10.0282,10.2072,10.3652,10.3831,10.388,10.4196,10.4181,10.3713,10.3731,10.4351,10.4692,10.4741,10.4911,10.5134,10.5147,10.5039,10.516,10.5307,10.5464,10.5921,10.6596,12.1343,12.1163,11.979,11.917,11.9155,11.9575,11.8502,11.6684,11.5924,11.5508,11.55,11.5046,11.4879,11.4879,11.4879,11.4879,11.4879,11.4879,11.4879,11.4879,11.4879,11.4879,11.4879,11.4879,11.4879,11.4879,11.4879,11.4879,11.4821,11.4879,11.453,11.3658,11.3167,11.2527,11.1538,11.0575,11.0309,11.0309,11.0368,11.0658,11.0749,11.0982,11.0982,11.0982,11.1945,11.212,11.2352,11.3457,11.3923,11.4239,11.4647,11.4821,11.4748,11.4774,11.4616,11.4241,11.3145,11.1274,11.0753,11.1245,11.2927,11.0451,10.7691,10.4156,10.2856,10.0112,9.8609,9.7703,9.7333,9.6489,9.6395,9.6395,9.6395,9.6395,9.6395,9.6395,9.6395,9.6395,9.6395,9.6395,9.6395,9.6395,9.6395,9.6395,9.6395,9.6395,9.6395,9.6395,9.6395,9.6493,9.6883,9.7607,9.8786,9.9722,10.0675,10.1684,10.2771,10.2932,10.2948,10.3225,10.3371,10.2868,10.2868,10.3015,10.3439,10.3683,10.4016,10.4505,10.4458,10.4027,10.3976,10.4221,10.4576,10.5039,10.5444,12.1343,12.1343,12.1258,12.1163,12.1094,12.0206,11.9796,11.8978,11.6294,11.5799,11.6386,11.5525,11.5059,11.4932,11.4879,11.4879,11.4879,11.4879,11.4879,11.4879,11.4879,11.4879,11.4763,11.4647,11.4588,11.4588,11.4472,11.4414,11.4472,11.389,11.2843,11.1415,11.1855,11.1007,11.0077,10.9378,10.9088,10.9112,10.9112,10.9611,11.011,11.0342,11.04,11.0542,11.0717,11.0866,11.0949,11.2145,11.2818,11.2876,11.3806,11.4472,11.4472,11.4705,11.4879,11.4879,11.4215,11.3225,11.19,11.1954,11.2386,11.3118,11.1845,10.8841,10.6139,10.3086,10.1245,10.0373,9.7772,9.6677,9.6395,9.6395,9.6395,9.6395,9.6395,9.6395,9.6395,9.6395,9.6395,9.6395,9.6395,9.6395,9.6395,9.6395,9.6395,9.6395,9.6395,9.6395,9.6395,9.6493,9.6932,9.7515,9.8711,9.9986,10.0984,10.1828,10.2576,10.282,10.282,10.282,10.282,10.282,10.282,10.2917,10.2966,10.2917,10.3018,10.3447,10.3563,10.3018,10.2902,10.3313,10.3686,10.4043,10.4336,12.1343,12.1343,12.1343,12.1343,12.1267,12.1067,12.0471,11.9735,11.8654,11.8012,11.7471,11.6381,11.5448,11.5039,11.4821,11.4821,11.4879,11.4879,11.4879,11.4879,11.4879,11.4821,11.4472,11.3748,11.3457,11.3457,11.3515,11.2876,11.232,11.1971,11.1855,11.104,11.0658,10.9869,10.9054,10.8389,10.7924,10.7949,10.7924,10.8098,10.8331,10.8389,10.8365,10.8622,10.9112,10.9669,10.9869,11.0891,11.1447,11.1738,11.2701,11.3399,11.3632,11.4181,11.4705,11.4705,11.4705,11.4041,11.3506,11.3328,11.4082,11.4431,11.363,11.2097,10.9032,10.4016,10.1157,10.1842,9.8753,9.7051,9.6395,9.6475,9.6444,9.6395,9.6395,9.6395,9.6395,9.6395,9.6395,9.6395,9.6395,9.6395,9.6395,9.6395,9.6395,9.6395,9.6395,9.6395,9.6395,9.6395,9.6737,9.6981,9.8356,9.9873,10.0772,10.1536,10.2332,10.282,10.282,10.282,10.282,10.282,10.282,10.282,10.2868,10.282,10.282,10.282,10.282,10.282,10.282,10.282,10.282,10.3048,10.339,12.1343,12.1343,12.1343,12.1343,12.1343,12.1343,12.0958,12.0291,11.9377,11.8808,11.835,11.6138,11.4877,11.4611,11.4213,11.4356,11.4821,11.4879,11.4879,11.4879,11.4298,11.4007,11.3748,11.2818,11.2559,11.2643,11.2294,11.1273,11.0284,11.0168,11.0226,10.9586,10.9287,10.8996,10.824,10.7658,10.74,10.7342,10.7342,10.7342,10.7342,10.7342,10.7342,10.74,10.8065,10.8356,10.8705,10.9553,11.0218,11.0484,11.1389,11.2062,11.2436,11.3225,11.4039,11.4039,11.4039,11.4039,11.4155,11.451,11.4716,11.4853,11.4669,11.4091,11.1966,10.8132,10.5256,10.4898,10.1088,9.8865,9.8553,9.727,9.673,9.6395,9.6395,9.6395,9.6395,9.6395,9.6395,9.6395,9.6395,9.6395,9.6395,9.6395,9.6395,9.6395,9.6395,9.6395,9.6395,9.6395,9.6542,9.6786,9.8214,9.9776,10.0577,10.1536,10.2429,10.282,10.282,10.282,10.282,10.282,10.282,10.282,10.282,10.282,10.282,10.282,10.282,10.282,10.282,10.282,10.282,10.2868,10.3048,12.1343,12.1343,12.1343,12.1343,12.1343,12.1343,12.1305,12.1017,11.93,11.8901,11.9654,11.5929,11.4731,11.4911,11.4163,11.3678,11.4059,11.4123,11.4123,11.4155,11.3283,11.2818,11.2818,11.1506,11.1389,11.1738,11.1157,10.9495,10.8855,10.9644,10.9295,10.8132,10.8414,10.8531,10.7633,10.74,10.7342,10.7342,10.7342,10.7342,10.7342,10.7342,10.7342,10.7342,10.74,10.7458,10.7749,10.8389,10.8996,10.9146,11.0135,11.0717,11.1007,11.2003,11.2585,11.2585,11.2675,11.2818,11.3199,11.3923,11.4472,11.4879,11.4879,11.4879,11.3821,11.1609,10.997,11.0213,10.5047,10.1885,10.1147,9.9386,9.7772,9.7562,9.7624,9.7407,9.6395,9.6395,9.6395,9.6395,9.6395,9.6395,9.6395,9.6395,9.6395,9.6395,9.6395,9.6395,9.6395,9.6395,9.6493,9.7127,9.8409,9.9583,10.0495,10.178,10.2478,10.282,10.282,10.282,10.282,10.282,10.282,10.282,10.282,10.282,10.282,10.282,10.282,10.282,10.282,10.282,10.282,10.282,10.282,12.1343,12.1343,12.1343,12.1343,12.1343,12.1343,12.1343,12.1201,12.0694,12.0667,12.0713,11.9057,11.8187,11.7788,11.5642,11.3278,11.1706,11.188,11.2494,11.285,11.2003,11.2029,11.1945,11.0982,10.9844,11.0309,10.9694,10.9345,10.8564,10.8506,10.7957,10.7575,10.7458,10.7517,10.74,10.7342,10.7342,10.7342,10.7342,10.7342,10.7342,10.7342,10.7342,10.7342,10.7342,10.7342,10.7342,10.7749,10.7808,10.8157,10.8855,10.9578,10.9811,11.0717,11.0924,11.0309,11.0924,11.1887,11.2559,11.3257,11.369,11.4356,11.4763,11.4821,11.4363,11.3514,11.2564,11.0222,10.6779,10.4826,10.4707,10.4047,10.2537,10.1028,10.0021,9.9351,9.773,9.6909,9.7065,9.6899,9.6395,9.6395,9.6395,9.6395,9.6395,9.6395,9.6395,9.6395,9.6395,9.6395,9.659,9.7354,9.8038,9.9177,10.0446,10.1633,10.2576,10.282,10.282,10.282,10.282,10.282,10.282,10.282,10.282,10.282,10.282,10.282,10.282,10.282,10.282,10.282,10.282,10.282,10.282,12.1343,12.1343,12.1343,12.1343,12.1343,12.1343,12.1343,12.1343,12.1343,12.1343,12.0859,11.9544,11.8786,11.8187,11.6176,11.4394,11.275,11.1707,11.1331,11.1538,11.0808,11.06,11.0717,10.9204,10.8797,10.8938,10.8589,10.8273,10.824,10.7575,10.74,10.7342,10.7342,10.7342,10.7342,10.7342,10.7342,10.7342,10.7342,10.7342,10.7342,10.7342,10.7342,10.7342,10.7342,10.7342,10.7342,10.7342,10.7342,10.7458,10.7924,10.824,10.8448,10.8797,10.8913,10.8705,10.952,11.0542,11.0982,11.1771,11.2236,11.296,11.296,11.3018,11.2986,11.307,11.2417,11.1178,10.92,10.7904,10.7814,10.6322,10.5136,10.3652,10.3299,10.1837,9.9717,9.8943,9.8898,9.8985,9.8472,9.7958,9.7326,9.6395,9.6395,9.6395,9.6395,9.6395,9.6395,9.6395,9.6444,9.6883,9.7078,9.8396,9.9844,10.1438,10.2771,10.282,10.282,10.282,10.282,10.282,10.282,10.282,10.282,10.282,10.282,10.282,10.282,10.282,10.282,10.282,10.282,10.282,10.282,12.1343,12.1343,12.1343,12.1343,12.1343,12.1343,12.1343,12.1343,12.1343,12.1343,12.1067,11.9354,11.8666,11.8193,11.7139,11.598,11.4492,11.2085,11.0904,11.0509,10.952,10.9229,10.9262,10.8273,10.7982,10.8389,10.804,10.7517,10.7458,10.7342,10.7342,10.7342,10.7342,10.7342,10.7342,10.7342,10.7342,10.7342,10.7342,10.7342,10.7342,10.7342,10.7342,10.7342,10.7342,10.7342,10.7342,10.7342,10.7342,10.7342,10.7342,10.7342,10.7517,10.7517,10.7575,10.7691,10.8414,10.9171,10.9611,11.0251,11.0658,11.1007,11.1273,11.1215,11.1175,11.116,11.164,11.1519,11.0907,11.033,11.0537,10.9315,10.7491,10.658,10.6265,10.5198,10.2915,10.2322,10.2681,10.0685,10.0346,10.002,9.7866,9.6395,9.6395,9.6395,9.6395,9.6395,9.6395,9.6395,9.6395,9.6395,9.6395,9.7745,9.9307,10.1194,10.2689,10.2689,10.282,10.282,10.282,10.282,10.282,10.282,10.282,10.282,10.282,10.282,10.282,10.282,10.282,10.282,10.282,10.282,10.282,12.1343,12.1343,12.1343,12.1343,12.1343,12.1343,12.1343,12.1343,12.1343,12.1343,12.1144,12.1029,12.0397,12.0239,11.8568,11.7554,11.6115,11.3254,11.0258,10.9561,10.8298,10.8356,10.8622,10.7982,10.7517,10.7517,10.7376,10.7342,10.7342,10.7342,10.7342,10.7342,10.7342,10.7342,10.7342,10.7342,10.7342,10.7342,10.7342,10.7342,10.7342,10.7342,10.7342,10.7342,10.7342,10.7342,10.7342,10.7342,10.7342,10.7342,10.7342,10.7342,10.7342,10.7342,10.7342,10.7342,10.7575,10.8181,10.888,10.9345,10.9927,11.0982,11.0924,11.0866,11.0808,11.0709,11.0884,11.0985,11.1161,11.1034,11.2417,11.2023,11.1485,11.0258,10.9538,10.8112,10.6351,10.738,10.5776,10.3096,10.2023,10.0685,9.8516,9.6555,9.6475,9.6395,9.6395,9.6395,9.6395,9.6395,9.6395,9.6395,9.6395,9.7371,9.9031,10.082,10.2299,10.2542,10.282,10.282,10.282,10.282,10.282,10.282,10.282,10.282,10.282,10.282,10.282,10.282,10.282,10.282,10.282,10.282,10.282,12.1343,12.1343,12.1343,12.1343,12.1343,12.1343,12.1343,12.1343,12.1343,12.1343,12.1343,12.1343,12.1343,12.1163,12.0143,11.8826,11.7214,11.4169,11.112,10.8568,10.7716,10.7633,10.7982,10.7575,10.7342,10.7342,10.7342,10.7342,10.7342,10.7342,10.7342,10.7342,10.7342,10.7342,10.7342,10.7342,10.7342,10.7342,10.7342,10.7342,10.7342,10.7342,10.7342,10.7342,10.7342,10.7342,10.7342,10.7342,10.7342,10.7342,10.7342,10.7342,10.7342,10.7342,10.7342,10.7342,10.7342,10.7691,10.8007,10.824,10.8531,10.8971,10.9029,10.9029,10.9029,10.9004,10.932,10.9844,11.0193,11.0866,11.2701,11.3632,11.3788,11.2645,11.2685,11.1383,10.9455,11.078,11.0747,10.724,10.4266,10.195,9.9371,9.736,9.6904,9.6922,9.6922,9.6395,9.6395,9.6395,9.6395,9.6395,9.6395,9.7078,9.8755,10.0153,10.153,10.2232,10.2558,10.282,10.282,10.282,10.282,10.282,10.282,10.282,10.282,10.282,10.282,10.282,10.282,10.282,10.282,10.282,10.282,12.1343,12.1343,12.1343,12.1343,12.1343,12.1343,12.1343,12.1343,12.1343,12.1343,12.1343,12.1343,12.1343,12.1343,12.1086,12.0383,11.8504,11.6084,11.2885,10.8935,10.8079,10.7284,10.7342,10.7342,10.7342,10.7342,10.7342,10.7342,10.7342,10.7342,10.7342,10.7342,10.7342,10.7342,10.7342,10.7342,10.7342,10.7342,10.7342,10.7342,10.7342,10.7342,10.7342,10.7342,10.7342,10.7342,10.7342,10.7342,10.7342,10.7342,10.7342,10.7342,10.7342,10.7342,10.7342,10.7342,10.7342,10.7342,10.7342,10.74,10.7342,10.7575,10.7633,10.7342,10.7342,10.7458,10.7924,10.8531,10.888,10.9753,11.1538,11.2527,11.3191,11.3893,11.4194,11.3453,11.1544,11.2674,11.226,10.9613,10.7101,10.5132,10.1966,9.9075,9.7703,9.7494,9.7091,9.652,9.6395,9.6395,9.6395,9.6395,9.6493,9.6883,9.8189,9.9063,10.0519,10.1546,10.2329,10.282,10.282,10.282,10.282,10.282,10.282,10.282,10.282,10.282,10.282,10.282,10.282,10.282,10.282,10.282,10.282,12.1343,12.1343,12.1343,12.1343,12.1343,12.1343,12.1343,12.1343,12.1343,12.1343,12.1343,12.1343,12.1343,12.1343,12.1343,12.1144,12.0674,11.8139,11.5617,11.2885,10.9566,10.7407,10.7382,10.7342,10.7342,10.7342,10.7342,10.7342,10.7342,10.7342,10.7342,10.7342,10.7342,10.7342,10.7342,10.7342,10.7342,10.7342,10.7342,10.7342,10.7342,10.7342,10.7342,10.7342,10.7342,10.7342,10.7342,10.7342,10.7342,10.7342,10.7342,10.7342,10.7342,10.7342,10.7342,10.7342,10.7342,10.7342,10.7342,10.7342,10.7342,10.7342,10.7342,10.7342,10.7342,10.7342,10.7425,10.7749,10.7517,10.8331,10.9761,11.1655,11.2617,11.3141,11.4097,11.3463,11.1927,11.2146,11.1515,10.7594,10.789,10.6503,10.3867,10.1125,9.9205,9.9348,9.7827,9.7163,9.6679,9.5981,9.5614,9.5841,9.6182,9.6622,9.7205,9.8009,9.9512,10.0735,10.1452,10.215,10.215,10.2186,10.2478,10.282,10.282,10.282,10.282,10.282,10.282,10.282,10.282,10.282,10.282,10.282,10.282,12.1343,12.1343,12.1343,12.1343,12.1343,12.1343,12.1343,12.1343,12.1343,12.1343,12.1343,12.1343,12.1343,12.1343,12.1343,12.1343,12.101,11.889,11.7296,11.5531,11.1565,10.8864,10.7651,10.7308,10.7342,10.7342,10.7342,10.7342,10.7342,10.7342,10.7342,10.7342,10.7342,10.7342,10.7342,10.7342,10.7342,10.7342,10.7342,10.7342,10.7342,10.7342,10.7342,10.7342,10.7342,10.7342,10.7342,10.7342,10.7342,10.7342,10.7342,10.7342,10.7342,10.7342,10.7342,10.7342,10.7342,10.7342,10.7342,10.7342,10.7342,10.7342,10.7342,10.7342,10.7342,10.7342,10.7342,10.7342,10.7342,10.7575,10.8306,10.9669,11.0982,11.1738,11.2262,11.2145,11.1157,11.1447,11.0779,10.9539,10.8079,10.6657,10.5636,10.265,10.1449,10.0853,9.9101,9.7647,9.6734,9.53,9.4425,9.4498,9.4755,9.4951,9.5397,9.6838,9.8443,9.9162,9.9942,10.0847,10.0849,10.0804,10.1551,10.2527,10.2722,10.282,10.282,10.282,10.2625,10.2429,10.2771,10.282,10.282,10.282,10.282,12.1343,12.1343,12.1343,12.1343,12.1343,12.1343,12.1343,12.1343,12.1343,12.1343,12.1343,12.1343,12.1343,12.1343,12.1343,12.1343,12.099,11.9527,11.8544,11.7317,11.3998,11.1725,11.033,10.8996,10.8321,10.82,10.7749,10.7284,10.7342,10.7342,10.7342,10.7342,10.7342,10.7342,10.7342,10.7342,10.7342,10.7342,10.7342,10.7342,10.7342,10.7342,10.7342,10.7342,10.7342,10.7342,10.7342,10.7342,10.7342,10.7342,10.7342,10.7342,10.7342,10.7342,10.7342,10.7342,10.7342,10.7342,10.7342,10.7342,10.7342,10.7342,10.7342,10.7342,10.7342,10.7342,10.7342,10.7342,10.7342,10.7342,10.7458,10.824,10.9287,11.0251,11.0193,10.996,10.996,11.0251,11.0385,10.992,10.8347,10.7636,10.6662,10.4706,10.2869,10.2492,10.0274,9.7461,9.6833,9.5586,9.3711,9.36,9.3833,9.3672,9.4077,9.5809,9.6886,9.7507,9.8334,9.9211,9.9195,9.9519,10.0853,10.178,10.1438,10.1389,10.178,10.2123,10.1975,10.1536,10.1647,10.1495,10.1789,10.2345,10.2263,12.1343,12.1343,12.1343,12.1343,12.1343,12.1343,12.1343,12.1343,12.1343,12.1343,12.1343,12.1343,12.1343,12.1343,12.1343,12.1343,12.122,12.0836,11.9764,11.8302,11.7214,11.6525,11.5531,11.2233,11.048,11.0049,10.8431,10.748,10.7342,10.7342,10.7342,10.7342,10.7342,10.7342,10.7342,10.7342,10.7342,10.7342,10.7342,10.7342,10.7342,10.7342,10.7342,10.7342,10.7342,10.7342,10.7342,10.7342,10.7342,10.7342,10.7342,10.7342,10.7342,10.7342,10.7342,10.7342,10.7342,10.7342,10.7342,10.7342,10.7342,10.7342,10.7342,10.7342,10.7342,10.7342,10.7342,10.7342,10.7342,10.7342,10.7342,10.7517,10.8098,10.8938,10.8506,10.7982,10.7691,10.868,10.8846,10.8139,10.8493,10.8978,10.8491,10.619,10.5309,10.4678,10.1382,9.8962,9.7753,9.6354,9.3933,9.3509,9.3993,9.3838,9.3697,9.5117,9.4985,9.57,9.6503,9.703,9.7208,9.8379,9.9714,9.986,9.9893,9.9942,10.0153,10.0429,10.0494,10.0625,10.0478,9.9968,10.0242,10.1006,10.1285,12.1343,12.1343,12.1343,12.1343,12.1343,12.1343,12.1343,12.1343,12.1343,12.1343,12.1343,12.1343,12.1343,12.1343,12.1343,12.1343,12.1343,12.1343,12.0856,11.9947,11.8625,11.7854,11.7296,11.4453,11.2368,11.0875,10.9931,10.8792,10.7382,10.7342,10.7342,10.7342,10.7342,10.7342,10.7342,10.7342,10.7342,10.7342,10.7342,10.7342,10.7342,10.7342,10.7342,10.7342,10.7342,10.7342,10.7342,10.7342,10.7342,10.7342,10.7342,10.7342,10.7342,10.7342,10.7342,10.7342,10.7342,10.7342,10.7342,10.7342,10.7342,10.7342,10.7342,10.7342,10.7342,10.7342,10.7342,10.7342,10.7342,10.7342,10.7342,10.7342,10.7517,10.7982,10.7575,10.7342,10.7342,10.7749,10.7691,10.7599,10.7747,10.7955,10.7991,10.6704,10.671,10.6391,10.3495,10.0977,10.0408,9.8297,9.7329,9.6482,9.5571,9.4602,9.4037,9.3776,9.3568,9.4589,9.552,9.5798,9.578,9.6976,9.7794,9.794,9.8624,9.8721,9.9159,9.9301,9.9248,9.9668,9.9899,9.9519,9.9355,9.9939,10.0247,12.1343,12.1343,12.1343,12.1343,12.1343,12.1343,12.1343,12.1343,12.1343,12.1343,12.1343,12.1343,12.1343,12.1343,12.1343,12.1343,12.1343,12.1343,12.1343,12.101,11.9626,11.901,11.8665,11.7276,11.5274,11.3114,11.1596,10.9578,10.7724,10.7342,10.7342,10.7342,10.7342,10.7342,10.7342,10.7342,10.7342,10.7342,10.7342,10.7342,10.7342,10.7342,10.7342,10.7342,10.7342,10.7342,10.7342,10.7342,10.7342,10.7342,10.7342,10.7342,10.7342,10.7342,10.7342,10.7342,10.7342,10.7342,10.7342,10.7342,10.7342,10.7342,10.7342,10.7342,10.7342,10.7342,10.7342,10.7342,10.7342,10.7342,10.7342,10.7342,10.7342,10.7342,10.7342,10.7342,10.7342,10.7342,10.7342,10.7342,10.7342,10.7342,10.7318,10.7327,10.718,10.6999,10.4704,10.2817,10.2477,10.0052,9.8658,9.8523,9.7709,9.6462,9.6323,9.615,9.6035,9.6566,9.6222,9.5882,9.5055,9.5193,9.5656,9.6134,9.7159,9.7776,9.8214,9.8373,9.8206,9.8396,9.8575,9.8618,9.8691,9.8871,9.9065,12.1343,12.1343,12.1343,12.1343,12.1343,12.1343,12.1343,12.1343,12.1343,12.1343,12.1343,12.1343,12.1343,12.1343,12.1343,12.1343,12.1343,12.1343,12.1343,12.1343,12.1086,12.1029,12.099,12.0597,11.9329,11.7317,11.3114,10.9884,10.7715,10.77,10.748,10.7333,10.7342,10.7342,10.7342,10.7342,10.7342,10.7342,10.7342,10.7342,10.7342,10.7342,10.7342,10.7342,10.7342,10.7342,10.7342,10.7342,10.7342,10.7342,10.7342,10.7342,10.7342,10.7342,10.7342,10.7342,10.7342,10.7342,10.7342,10.7342,10.7342,10.7342,10.7342,10.7342,10.7342,10.7342,10.7342,10.7342,10.7342,10.7342,10.7342,10.7342,10.7342,10.7342,10.7342,10.7342,10.7342,10.7342,10.7342,10.7342,10.7342,10.7342,10.7342,10.7342,10.7342,10.6899,10.5196,10.3615,10.3423,10.1649,9.9247,9.9053,9.9111,9.898,9.8712,9.8595,9.8624,9.8327,9.7557,9.6572,9.6078,9.5846,9.6579,9.6935,9.7981,9.8825,9.9391,9.9121,9.8644,9.7215,9.6894,9.6964,9.7327,9.7736,9.7897,12.1343,12.1343,12.1343,12.1343,12.1343,12.1343,12.1343,12.1343,12.1343,12.1343,12.1343,12.1343,12.1343,12.1343,12.1343,12.1343,12.1343,12.1343,12.1343,12.1343,12.1343,12.1343,12.1343,12.1343,12.0913,11.975,11.6942,11.3487,11.0119,10.9672,10.8864,10.7358,10.7342,10.7342,10.7342,10.7342,10.7342,10.7342,10.7342,10.7342,10.7342,10.7342,10.7342,10.7342,10.7342,10.7342,10.7342,10.7342,10.7342,10.7342,10.7342,10.7342,10.7284,10.7342,10.7342,10.7342,10.7284,10.7342,10.7342,10.7342,10.7342,10.7342,10.7342,10.7342,10.7342,10.7342,10.7342,10.7342,10.7342,10.7342,10.7342,10.7342,10.7342,10.7342,10.7342,10.7342,10.7342,10.7342,10.7342,10.7342,10.7342,10.7342,10.7342,10.7342,10.7342,10.7342,10.666,10.5937,10.589,10.4999,10.4488,10.4368,10.272,10.1777,10.1587,10.2672,10.333,10.19,10.0835,9.9549,9.8741,9.8549,9.867,9.8833,9.9369,10.0192,10.0467,10.022,9.8857,9.6953,9.7176,9.8214,9.7582,9.7288,9.8013,12.1343,12.1343,12.1343,12.1343,12.1343,12.1343,12.1343,12.1343,12.1343,12.1343,12.1343,12.1343,12.1343,12.1343,12.1343,12.1343,12.1343,12.1343,12.1343,12.1343,12.1343,12.1343,12.1343,12.1343,12.1343,12.0971,11.893,11.534,11.1252,11.0828,10.9601,10.77,10.7342,10.7342,10.7342,10.7342,10.7342,10.7342,10.7342,10.7342,10.7342,10.7342,10.7342,10.7342,10.7342,10.7342,10.7342,10.7342,10.7342,10.7342,10.6794,10.6586,10.6561,10.6154,10.5863,10.5946,10.6329,10.6561,10.6678,10.7051,10.7342,10.7342,10.7342,10.7342,10.7342,10.7342,10.7342,10.7342,10.7342,10.7342,10.7342,10.7342,10.7342,10.7342,10.7342,10.7342,10.7342,10.7342,10.7342,10.7342,10.7342,10.7342,10.7342,10.7342,10.7342,10.7342,10.7342,10.7186,10.7235,10.7259,10.6964,10.6913,10.5751,10.4593,10.4595,10.6313,10.685,10.51,10.3375,10.1802,10.0539,10.0139,9.975,9.9762,9.9995,10.0736,10.14,10.12,10.121,9.9707,10.0555,10.1038,9.9686,10.1226,10.0805,12.1127,12.1014,12.108,12.0949,12.1212,12.1278,12.1343,12.1258,12.1212,12.1212,12.1278,12.1146,12.108,12.0751,12.0554,12.1014,12.1146,12.108,12.1146,12.1343,12.1343,12.1343,12.1343,12.1343,12.1343,12.1105,11.919,11.6041,11.2006,11.1451,10.9884,10.77,10.7676,10.748,10.7342,10.7342,10.7342,10.7342,10.7342,10.7342,10.7342,10.7342,10.7342,10.7342,10.7342,10.7284,10.7168,10.7266,10.7232,10.7109,10.6081,10.5522,10.5358,10.4237,10.3679,10.3855,10.4738,10.533,10.5639,10.6392,10.6993,10.7134,10.7344,10.7461,10.7763,10.7846,10.7788,10.7553,10.7598,10.7466,10.7466,10.7378,10.7342,10.7342,10.7342,10.7342,10.7342,10.7342,10.7342,10.7342,10.7342,10.7342,10.7342,10.7342,10.7342,10.7342,10.7342,10.7342,10.7342,10.7342,10.7342,10.7259,10.7177,10.7177,10.7235,10.7284,10.7284,10.6519,10.4951,10.3357,10.2209,10.1316,10.0808,10.0626,10.1626,10.2138,10.2193,10.2303,10.2566,10.3154,10.3886,10.3859,10.2822,10.4785,10.4711,11.8074,11.8065,11.8036,11.8713,11.9812,12.0883,12.1343,12.1212,12.0159,12.0291,12.1146,12.0159,11.8544,11.6703,11.6524,11.7773,11.9549,11.9746,12.0291,12.1278,12.1343,12.1278,12.1343,12.1343,12.1343,12.1182,12.0531,11.9606,11.8464,11.6797,11.3778,11.034,10.9861,10.8996,10.7504,10.7342,10.7342,10.7342,10.7342,10.7342,10.7284,10.7342,10.7342,10.7342,10.7342,10.6852,10.5946,10.7445,10.7196,10.4717,10.5695,10.6334,10.6289,10.4478,10.4127,10.5515,10.4666,10.4642,10.6243,10.5171,10.484,10.5892,10.7528,10.8846,10.9622,10.9837,10.9861,10.9765,10.8885,10.8278,10.821,10.7661,10.7358,10.7342,10.7342,10.7342,10.7284,10.7342,10.7284,10.7342,10.7342,10.7342,10.7342,10.7342,10.7342,10.7342,10.7342,10.7342,10.7342,10.7342,10.7342,10.7342,10.7342,10.7342,10.7342,10.7342,10.7342,10.6982,10.6817,10.5879,10.5905,10.5633,10.5164,10.3826,10.4922,10.5582,10.5702,10.4625,10.4161,10.5077,10.4868,10.4116,10.5125,10.5362,10.5737,11.6773,11.6769,11.6787,11.7379,11.8102,11.8431,11.891,11.9239,11.7313,11.7247,11.8299,11.6458,11.4928,11.3876,11.4467,11.5585,11.7294,11.7971,11.8694,11.9351,11.9502,11.9436,11.9568,12.0075,12.0028,11.9568,12.0159,12.0404,11.9995,11.8066,11.5368,11.2465,11.1206,11.0106,10.8792,10.7763,10.7342,10.7342,10.7342,10.676,10.5888,10.5713,10.5713,10.5713,10.5713,10.5666,10.5994,10.7114,10.6916,10.5078,10.6391,10.6904,10.5956,10.5016,10.5114,10.6249,10.5224,10.5332,10.7149,10.6549,10.6355,10.7109,10.849,10.9535,11.0306,11.0367,11.0834,11.135,11.0183,10.8692,10.7973,10.7367,10.6687,10.5882,10.5737,10.5888,10.6411,10.6503,10.676,10.7226,10.7342,10.7342,10.7342,10.7342,10.7342,10.7342,10.7342,10.7342,10.7342,10.7342,10.7342,10.7342,10.7342,10.7342,10.7342,10.7342,10.7342,10.7342,10.7342,10.7342,10.7161,10.7284,10.7342,10.7195,10.6948,10.7329,10.8415,10.6762,10.6088,10.7022,10.6514,10.6215,10.6687,10.7375,10.7792,11.6374,11.6392,11.6327,11.6524,11.6524,11.5519,11.5717,11.6261,11.378,11.317,11.3613,11.1197,11.0803,11.207,11.317,11.3744,11.4121,11.5274,11.5998,11.6392,11.6476,11.6608,11.7116,11.8299,11.8168,11.7247,11.8102,11.8609,11.8516,11.6536,11.5159,11.4178,11.2287,11.111,11.0429,10.8544,10.7359,10.7276,10.7471,10.6267,10.388,10.3716,10.3716,10.3716,10.3763,10.4719,10.6753,10.7064,10.6965,10.6597,10.7328,10.6984,10.5135,10.5356,10.5779,10.6001,10.6001,10.6378,10.7315,10.8516,10.8781,10.9404,10.951,10.9824,11.0238,11.0053,11.0793,11.2071,11.1086,10.9271,10.7401,10.7179,10.6446,10.4689,10.4209,10.4088,10.5005,10.5199,10.5631,10.6819,10.6644,10.6993,10.6959,10.6993,10.7109,10.7226,10.7342,10.7342,10.7342,10.7342,10.7342,10.7342,10.7342,10.7342,10.7342,10.7342,10.7342,10.7342,10.7342,10.7342,10.7342,10.7342,10.7342,10.7342,10.7342,10.7342,10.7434,10.7342,10.7584,10.8087,10.852,10.9079,11.0415,11.0548,11.0366,11.3517,11.3517,11.3517,11.4139,11.5191,11.5998,11.5848,11.4993,11.3254,11.0886,10.8173,10.7383,10.7269,10.7598,10.7927,10.8699,10.9519,10.8896,11.036,11.3236,11.3517,11.4701,11.6721,11.7181,11.7181,11.6853,11.6045,11.5698,11.568,11.5127,11.4822,11.459,11.4574,11.3037,11.0122,10.8991,10.7946,10.7027,10.8411,10.8196,10.6071,10.6003,10.592,10.598,10.592,10.6524,10.7761,10.9383,10.8463,10.5027,10.637,10.6604,10.4993,10.3491,10.3463,10.5037,10.5243,10.4652,10.3313,10.3366,10.4401,10.6489,10.8353,11.0291,11.2087,11.1169,11.0544,11.0968,11.0865,11.059,10.9827,10.9367,10.829,10.6282,10.6003,10.5226,10.409,10.3851,10.405,10.4142,10.4259,10.4796,10.5508,10.5786,10.6154,10.691,10.7342,10.7342,10.7342,10.7342,10.7342,10.7342,10.7342,10.7168,10.7342,10.7201,10.7177,10.7342,10.7226,10.7027,10.7085,10.7226,10.7284,10.7109,10.7168,10.7051,10.7226,10.7226,10.7324,10.7437,10.7597,10.8072,10.9237,11.0117,11.0626,11.0584,11.054,10.99,11.0097,11.0803,11.0869,11.0851,11.0522,10.7844,10.4901,10.2286,10.2846,10.3109,10.3159,10.3767,10.4885,10.6364,10.6841,10.8699,11.1526,11.2285,11.3385,11.4766,11.4916,11.4485,11.3894,11.3104,11.3087,11.3678,11.3696,11.4336,11.5644,11.6051,11.4608,11.1506,11.0026,10.8935,10.8137,10.5342,10.3395,10.2228,10.0179,9.9104,9.9066,9.9843,10.0599,10.1277,10.2583,10.1733,9.8323,10.0944,10.2306,10.1897,10.2463,10.3816,10.6259,10.6478,10.5932,10.4759,10.4704,10.5324,10.6772,10.7463,10.8746,11.0875,10.9433,10.8436,10.8467,10.9357,10.9194,10.7546,10.7495,10.6497,10.3705,10.3756,10.3432,10.2303,10.2288,10.2711,10.3293,10.341,10.3679,10.4334,10.446,10.4792,10.5297,10.5524,10.5771,10.6271,10.5888,10.548,10.548,10.5563,10.5539,10.5539,10.5524,10.5529,10.548,10.5548,10.5476,10.5529,10.5524,10.5456,10.5539,10.548,10.5529,10.5464,10.5543,10.5512,10.5539,10.5494,10.6039,10.7119,10.7937,10.7937,10.7968,10.7893,10.6414,10.569,10.5427,10.4145,10.4243,10.4835,10.0989,9.8622,9.7798,9.9214,9.9724,9.9593,10.0792,10.1975,10.3224,10.5394,10.7432,10.9225,11.0426,11.1215,11.161,11.1693,11.1018,10.9882,10.9619,11.0211,11.1544,11.161,11.2859,11.5011,11.5735,11.4962,11.3195,11.1147,10.995,10.9469,10.2314,9.8614,9.8681,9.4577,9.2136,9.1605,9.3158,9.3688,9.3556,9.4426,9.3646,9.1515,9.4529,9.6582,9.6943,9.9847,10.3027,10.5591,10.5838,10.6035,10.6347,10.6429,10.6627,10.6889,10.6068,10.5608,10.6101,10.5739,10.5411,10.5246,10.6625,10.6388,10.3549,10.4271,10.3646,10.0489,10.0382,10.0352,9.9636,10.0191,10.1006,10.185,10.2455,10.2514,10.2992,10.3143,10.3209,10.3402,10.3825,10.391,10.4642,10.3944,10.327,10.3351,10.3388,10.3376,10.3666,10.3434,10.3614,10.3437,10.3616,10.3674,10.3746,10.373,10.3735,10.3526,10.3701,10.3644,10.3553,10.3401,10.3635,10.3712,10.3727,10.3929,10.4957,10.4987,10.4658,10.6477,10.6414,10.495,10.3619,10.2435,10.2189,10.1531,10.0579,9.8572,0.0,0.0,10.066,10.0579,9.9527,9.979,9.9411,9.8506,9.7848,9.9558,10.3175,10.3504,10.4885,10.722,10.7269,10.7137,10.6792,10.5674,10.5871,10.722,10.7269,10.7532,10.819,11.0408,11.1959,11.2607,11.1699,11.0358,10.8539,10.705,10.6561,10.696,10.5146,10.24,9.8894,9.9121,9.7763,9.4763,9.7095,9.611,9.1095,9.2692,9.2798,9.0674,9.1137,9.2259,9.3852,9.4035,9.5087,9.7388,9.757,9.8541,10.0907,10.1909,10.0529,9.6108,9.9871,10.1977,10.0767,10.3176,10.4472,10.3897,10.4003,10.3217,10.0744,10.0585,9.931,9.6324,9.673,9.7621,9.7304,9.8217,9.9349,10.1419,10.1722,10.2199,10.3082,10.3141,10.356,10.356,10.2606,10.2164,10.2933,10.3015,10.3292,10.3355,10.3233,10.3381,10.3181,10.3278,10.3384,10.3389,10.3416,10.3362,10.3177,10.341,10.3295,10.3366,10.3212,10.3425,10.3408,10.3428,10.3517,10.3597,10.2932,10.2362,10.1302,10.056,9.9887,9.9148,0.0,9.7636,9.5663,9.2982,9.2288,9.2734,9.4202,9.5613,9.5876,9.5203,9.5203,9.5613,9.6285,9.6336,9.8243,10.1662,10.2435,10.3635,10.5016,10.4227,10.3832,10.3832,10.2435,10.2435,10.3849,10.3915,10.3832,10.3898,10.5279,10.6003,10.5952,10.6376,10.5625,10.3866,10.379,10.3864,10.4088,10.1155,9.8525,9.6494,9.7178,0.0,0.0,0.0,0.0,0.0,0.0,0.0,0.0,8.6932,8.6472,8.8445,8.4631,8.3197,8.5144,8.5434,8.6933,9.0469,9.2113,9.0784,8.584,9.1375,9.4582,9.323,9.6392,9.8463,9.8506,9.9154,9.8837,9.7161,9.785,9.7523,9.5216,9.5919,9.6766,9.6383,9.6748,9.7448,9.8502,9.9096,9.9735,10.034,10.1001,10.1675,10.2141,10.1326,10.0687,10.1291,10.1461,10.14,10.1452,10.1454,10.1443,10.1443,10.1443,10.1431,10.1419,10.142,10.1443,10.1443,10.1443,10.1431,10.1441,10.1425,10.142,10.1443,10.1443,10.1158,9.975,9.9065,9.8848,9.6116,9.4809,9.4546,9.4298,9.3954,9.2836,9.0715,8.8154,8.7952,8.8466,8.9631,9.056,9.0915,9.0944,9.0944,9.2259,9.4495,9.5694,9.752,10.0069,10.1383,10.1975,10.1844,10.0923,10.0479,10.0413,9.9543,9.9871,10.1252,10.1252,10.1252,10.1268,10.1515,10.0923,9.9658,0.0,0.0,0.0,9.9726,10.0438,10.0839,9.6906,9.4386,9.3629,9.4903,0.0,9.1646,9.2003,8.9906,8.5052,8.7286,0.0,8.8352,0.0,0.0,0.0,0.0,0.0,0.0,0.0,0.0,0.0,8.0594,8.02,7.8294,8.3106,8.562,8.4141,8.9035,9.1982,9.1129,9.2609,9.3311,9.2515,9.3874,9.4491,9.3363,9.4761,9.5989,9.5656,9.6082,9.6317,9.6229,9.7041,9.7718,9.7528,9.8369,9.9478,10.0279,9.9407,9.8825,9.8803,9.8848,9.8848,9.8803,9.8815,9.8864,9.8861,9.8861,9.8828,9.8879,9.8808,9.8803,9.8825,9.8803,9.8803,9.8883,9.8803,9.8835,9.8803,9.8841,9.8187,9.6271,9.5829,9.5808,9.4436,9.3296,9.2062,9.0812,8.9629,8.9483,9.1047,9.3609,9.2429,9.2059,9.2195,9.1327,9.0954,9.0944,9.0944,9.1155,9.155,9.1762,9.2654,9.4202,9.4384,9.4531,9.4516,9.5598,9.6073,9.6124,9.714,9.8375,9.9806,9.9806,9.979,9.9856,10.1055,10.0923,9.9477,9.7226,9.6007,9.5861,10.0814,10.4586,10.6995,10.5253,10.2454,9.8811,9.8789,9.5791,8.9289,9.0041,8.7965,8.2376,8.213,8.2398,8.2609,7.9749,7.7223,0.0,7.184,0.0,0.0,0.0,0.0,0.0,0.0,0.0,0.0,7.7673,7.6346,7.3701,8.3114,8.7846,8.3976,8.6119,8.8224,8.9206,8.965,8.9608,8.9172,9.0252,9.1335,9.1957,9.4167,9.5873,9.6318,9.7747,9.7863,9.6571,9.6969,9.7215,9.6689,9.6464,9.6464,9.6332,9.6332,9.6601,9.6521,9.6452,9.6443,9.6382,9.647,9.6327,9.6443,9.6407,9.6368,9.6368,9.6485,9.6426,9.631,9.6368,9.6354,9.6492,9.626,9.5891,9.5548,9.5364,9.5808,9.1689,9.047,9.0031,8.9682,8.9595,8.9595,9.0607,9.2083,9.0894,9.0353,9.0342,8.9831,8.9963,9.0412,8.9174,8.9788,9.1679,9.042,9.0908,9.2811,9.2224,9.193,9.1981,9.2588,9.2851,9.2931,9.3508,9.4196,9.4758,9.4824,9.4348,9.361,9.5021,9.3377,8.9009,9.147,9.364,9.5269,9.9345,10.2961,10.5723,10.5279,10.3652,10.0842,10.0726,9.8784,9.47,9.3482,9.0823,8.6497,8.7041,8.6084,8.2796,7.645,7.2701,0.0,0.0,0.0,0.0,0.0,0.0,0.0,0.0,0.0,0.0,0.0,6.9392,7.1425,8.0556,8.4255,7.9128,8.0591,8.2105,8.2737,8.1409,8.1912,8.5735,8.6632,8.7258,8.8165,9.0032,9.1874,9.3439,9.3939,9.4548,9.6245,9.4334,9.2679,9.23,9.3914,9.5058,9.5135,9.5545,9.5808,9.5808,9.5829,9.5786,9.5832,9.5829,9.5829,9.5829,9.5827,9.5808,9.5808,9.5808,9.5808,9.583,9.5792,9.5813,9.5444,9.3587,9.1719,9.1504,9.1524,9.1808,9.0125,8.8714,8.6643,8.6608,8.787,8.7582,8.8355,8.9855,8.8693,8.8272,8.8135,8.7791,8.7385,8.673,8.3822,8.4994,8.913,8.7635,8.8774,9.1979,9.0924,9.0331,9.0397,9.0456,9.0418,9.0498,9.0761,9.0944,9.0958,9.0644,8.9366,8.7393,8.8314,8.5749,8.0068,8.6472,9.1536,9.4758,9.7883,10.0644,10.283,10.2896,10.2172,10.0676,10.0692,9.9821,9.8065,9.5284,9.2287,8.9187,8.8642,8.6352,8.1636,7.2316,0.0,0.0,0.0,0.0,0.0,0.0,0.0,0.0,0.0,6.0649,5.1722,0.0,6.4458,0.0,7.7352,7.994,7.623,7.5876,0.0,0.0,7.3201,7.3518,7.9555,8.1186,8.2394,8.3711,8.6051,8.8193,8.9847,8.9849,9.1172,9.4611,9.1304,8.8353,8.8166,9.0659,9.26,9.2652,9.2784,9.335,9.3433,9.3686,9.3519,9.3912,9.3932,9.3954,9.4007,9.3963,9.3982,9.3982,9.4004,9.4019,9.3795,9.3953,9.3912,9.3694,9.1231,8.8585,8.8136,8.8507,8.8939,9.12,8.9302,8.0779,7.8806,8.1095,8.0006,8.3232,8.9053,8.7987,8.7564,8.7445,8.6065,8.2401,7.705,7.261,0.0,7.9697,8.0947,8.469,9.0297,8.9194,8.866,8.8651,8.8933,8.8957,8.9023,9.0352,9.0944,9.0892,8.9629,8.6867,8.2856,8.2869,8.1343,7.861,8.3987,8.9117,9.3282,9.7358,9.9658,9.9856,9.9856,9.9229,9.7798,9.7732,9.6452,9.3763,9.1795,8.9313,8.6074,7.9697,7.5899,7.5311,0.0,0.0,0.0,0.0,0.0,0.0,0.0,0.0,0.0,0.0,0.0,0.0,0.0,0.0,6.8661,7.1638,0.0,7.5623,7.2275,0.0,0.0,0.0,6.4934,6.8081,7.2005,7.5574,7.8223,0.0,0.0,8.6247,8.7295,8.8691,9.0503,8.8393,8.6335,8.5382,8.6417,8.7241,8.7967,8.6722,8.6356,8.8281,8.7893,8.7908,8.8686,8.8669,8.8863,8.9019,8.9017,8.88,8.9239,8.8765,8.8858,8.876,8.9158,8.8671,8.881,8.9619,8.9979,8.8469,8.926,8.992,8.4111,7.8017,7.4324,7.4009,7.5793,7.5376,7.7808,8.214,8.1878,8.0653,7.8886,7.9276,7.6093,7.0547,7.0171,0.0,0.0,0.0,7.7065,8.2824,8.2813,8.4328,8.6954,8.7383,8.7552,8.7604,8.8078,8.8421,8.8421,8.8656,8.1709,6.8181,0.0,6.8952,6.7715,7.7974,8.4984,8.8696,9.5772,9.9527,9.9527,9.9527,9.8409,9.6205,9.5284,9.3903,9.185,8.9319,8.5292,7.9705,7.6666,7.2008,0.0,0.0,0.0,0.0,0.0,0.0,0.0,0.0,0.0,0.0,0.0,5.1288,4.5726,0.0,0.0,0.0,6.0138,6.1013,6.3552,6.5545,0.0,0.0,0.0,0.0,0.0,0.0,0.0,6.9659,7.521,8.0007,8.3194,8.3316,8.3401,8.4032,8.3214,8.2502,8.2085,0.0,8.5424,8.7294,8.6071,8.5758,8.7959,8.6086,8.4368,8.4725,8.5229,8.6317,8.8242,8.8347,8.8886,9.06,9.0446,8.9671,8.9703,8.9401,8.8516,8.6304,8.8064,8.9453,8.7844,8.8937,9.0296,7.3694,0.0,0.0,0.0,0.0,6.8012,7.0146,7.352,7.4195,7.2901,7.0511,7.1207,0.0,0.0,0.0,0.0,0.0,0.0,7.209,7.7877,8.0044,8.2513,8.5322,8.5287,8.5212,8.5238,8.5072,8.4323,8.308,8.2639,7.3759,5.7143,0.0,0.0,0.0,0.0,8.0083,8.4563,9.3125,9.7868,9.8278,9.8293,9.7095,9.4743,9.2887,9.1193,8.9774,8.5591,8.068,7.5024,7.0865,0.0,0.0,0.0,0.0,0.0,0.0,0.0,0.0,0.0,0.0,0.0,0.0,0.0,0.0,0.0,0.0,0.0,0.0,0.0,5.5501,5.9109,6.0401,0.0,0.0,0.0,0.0,0.0,0.0,0.0,0.0,0.0,7.7173,7.827,7.9331,0.0,0.0,8.1545,8.0819,8.2417,8.4135,8.5453,8.376,0.0,8.5627,8.3337,8.1302,8.1496,8.2794,8.4186,8.5815,8.6089,8.6631,8.8195,8.9017,8.8824,8.7852,8.6569,8.4598,8.2386,8.3638,8.5024,8.403,8.5685,8.7543,0.0,0.0,0.0,0.0,5.4809,0.0,0.0,0.0,6.5378,6.5053,0.0,6.2113,0.0,0.0,0.0,0.0,5.7202,6.4367,0.0,0.0,8.2497,8.4743,8.324,8.2212,8.1773,8.1789,8.1136,7.8573,7.4103,6.9578,6.2649,0.0,0.0,0.0,0.0,0.0,7.4092,8.127,8.9322,9.402,9.54,9.5415,9.4677,9.3201,9.0455,8.8314,8.6645,7.9978,7.5313,7.3249,6.0266,0.0,0.0,0.0,0.0,0.0,0.0,0.0,0.0,0.0,0.0,0.0,0.0,0.0,0.0,0.0,0.0,0.0,0.0,0.0,0.0,5.3878,0.0,0.0,0.0,0.0,0.0,0.0,0.0,0.0,0.0,7.0204,6.6941,7.1971,7.7502,8.1489,0.0,0.0,0.0,0.0,8.3018,8.093,7.7973,7.6821,7.8342,7.7997,7.7916,7.8831,0.0,0.0,7.91,8.0101,8.0449,7.7969,8.2188,8.448,8.0442,7.7578,7.5775,7.5063,7.5502,7.5595,7.5419,7.8659,8.1247,0.0,0.0,0.0,0.0,0.0,0.0,0.0,0.0,0.0,5.5103,5.2853,5.3242,0.0,0.0,0.0,0.0,0.0,0.0,0.0,0.0,6.7619,7.078,7.2295,7.4174,7.3998,7.204,7.1798,6.7475,0.0,0.0,0.0,0.0,0.0,0.0,0.0,0.0,7.0605,7.6364,8.7317,9.3808,9.5218,9.5284,9.4085,9.1799,9.0747,8.6881,7.9856,7.5329,7.0555,0.0,0.0,0.0,0.0,0.0,0.0,0.0,0.0,0.0,0.0,0.0,0.0,0.0,0.0,0.0,0.0,0.0,0.0,0.0,0.0,0.0,0.0,0.0,5.1716,0.0,0.0,0.0,0.0,0.0,0.0,0.0,0.0,0.0,5.8474,6.6328,7.2879,7.5012,7.8478,8.1191,8.208,0.0,0.0,0.0,0.0,0.0,0.0,0.0,7.5521,7.3008,7.1716,7.0674,6.9409,7.268,7.5935,7.7306,0.0,0.0,6.9823,6.9872,7.0486,6.7997,6.9573,7.089,6.9609,7.1558,7.3296,0.0,0.0,0.0,0.0,0.0,0.0,0.0,0.0,0.0,4.5477,4.3216,0.0,0.0,0.0,0.0,0.0,0.0,0.0,0.0,0.0,0.0,0.0,6.4117,6.6931,0.0,0.0,0.0,0.0,0.0,0.0,0.0,0.0,0.0,0.0,0.0,0.0,6.8408,7.3789,8.5924,9.3362,9.5152,9.5284,9.3903,9.101,9.0498,8.5683,7.6094,0.0,0.0,0.0,0.0,0.0,0.0,0.0,0.0,0.0,0.0,0.0,0.0,0.0,0.0,0.0,0.0,0.0,0.0,0.0,0.0,0.0,0.0,0.0,0.0,0.0,4.9088,0.0,0.0,0.0,0.0,0.0,0.0,0.0,0.0,0.0,0.0,6.1292,6.8063,7.1197,7.5456,7.9216,8.1727,8.2562,8.3947,0.0,0.0,0.0,0.0,0.0,0.0,0.0,0.0,0.0,0.0,0.0,0.0,0.0,7.1235,6.9321,6.1664,6.1998,6.2795,6.0859,0.0,0.0,0.0,0.0,0.0,0.0,0.0,0.0,0.0,0.0,0.0,0.0,0.0,0.0,0.0,3.5192,0.0,0.0,3.2989,0.0,0.0,0.0,0.0,0.0,0.0,0.0,0.0,0.0,0.0,0.0,0.0,0.0,0.0,0.0,0.0,0.0,0.0,0.0,0.0,0.0,0.0,6.737,7.3433,8.498,9.2325,9.5152,9.5284,9.3822,9.1024,8.9563,8.471,7.5897,0.0,0.0,0.0,0.0,0.0,0.0,0.0,0.0,0.0,0.0,0.0,0.0,0.0,0.0,0.0,0.0,0.0,0.0,0.0,0.0,0.0,0.0,0.0,0.0,0.0,0.0,4.4482,4.678,4.8331,0.0,0.0,0.0,0.0,0.0,0.0,0.0,0.0,0.0,7.0259,7.5733,7.9497,8.1292,8.0749,8.0344,8.0476,7.8046,7.6571,7.8055,7.6803,7.462,0.0,0.0,0.0,0.0,0.0,0.0,0.0,0.0,0.0,0.0,0.0,0.0,0.0,0.0,0.0,0.0,0.0,0.0,0.0,0.0,0.0,0.0,0.0,0.0,0.0,0.0,0.0,0.0,0.0,3.3739,0.0,0.0,0.0,0.0,0.0,0.0,0.0,0.0,0.0,0.0,0.0,0.0,0.0,0.0,0.0,0.0,0.0,0.0,0.0,0.0,0.0,0.0,0.0,0.0,6.475,7.1844,8.3482,9.1338,9.5137,9.5284,9.3428,8.9615,8.8064,8.275,7.3081,0.0,0.0,0.0,0.0,0.0,0.0,0.0,0.0,0.0,0.0,0.0,0.0,0.0,0.0,0.0,0.0,0.0,0.0,0.0,0.0,0.0,0.0,0.0,0.0,0.0,0.0,0.0,4.952,4.8601,4.5496,0.0,0.0,0.0,0.0,0.0,0.0,0.0,0.0,0.0,0.0,7.4546,7.9301,8.0037,8.0817,8.2764,8.1533,8.0097,7.9573,7.8217,7.5173,6.9182,0.0,0.0,0.0,0.0,0.0,0.0,0.0,0.0,0.0,0.0,0.0,0.0,0.0,0.0,0.0,0.0,0.0,0.0,0.0,0.0,0.0,0.0,0.0,0.0,0.0,0.0,0.0,0.0,0.0,0.0,0.0,0.0,0.0,0.0,0.0,0.0,0.0,0.0,0.0,0.0,0.0,0.0,0.0,0.0,0.0,0.0,0.0,0.0,0.0,0.0,0.0,0.0,0.0,6.4612,7.0996,8.3195,9.1047,9.4109,9.3853,9.1813,8.805,8.6053,7.9671,0.0,0.0,0.0,0.0,0.0,0.0,0.0,0.0,0.0,0.0,0.0,0.0,0.0,0.0,0.0,0.0,0.0,0.0,0.0,0.0,0.0,0.0,0.0,0.0,0.0,0.0,0.0,0.0,4.6061,4.5983,4.4008,0.0,0.0,0.0,0.0,0.0,0.0,0.0,0.0,0.0,0.0,6.9074,7.3985,7.4903,0.0,0.0,7.8497,7.7334,7.7604,7.684,7.3575,6.5824,6.219,0.0,0.0,0.0,0.0,0.0,0.0,0.0,0.0,0.0,0.0,0.0,0.0,0.0,0.0,0.0,0.0,0.0,0.0,0.0,0.0,0.0,0.0,0.0,0.0,0.0,0.0,0.0,0.0,0.0,0.0,0.0,0.0,0.0,0.0,0.0,0.0,0.0,0.0,0.0,0.0,0.0,0.0,0.0,0.0,0.0,0.0,0.0,0.0,0.0,0.0,0.0,0.0,6.6081,7.0986,8.3844,9.1275,9.2639,9.1658,8.969,8.679,8.3658,7.6041,0.0,0.0,0.0,0.0,0.0,0.0,0.0,0.0,0.0,0.0,0.0,0.0,0.0,0.0,0.0,0.0,0.0,0.0,0.0,0.0,0.0,0.0,0.0,0.0,0.0,0.0,0.0,0.0,0.0,0.0,0.0,0.0,0.0,0.0,0.0,0.0,0.0,0.0,0.0,0.0,0.0,6.3631,6.6794,6.7023,6.8355,0.0,7.0741,6.9767,7.2574,7.3019,7.0226,6.1877,0.0,0.0,0.0,0.0,0.0,0.0,0.0,0.0,0.0,0.0,0.0,0.0,0.0,0.0,0.0,0.0,0.0,0.0,0.0,0.0,0.0,0.0,0.0,0.0,0.0,0.0,0.0,0.0,0.0,0.0,0.0,0.0,0.0,0.0,0.0,0.0,0.0,0.0,0.0,0.0,0.0,0.0,0.0,0.0,0.0,0.0,0.0,0.0,0.0,0.0,0.0,0.0,0.0,0.0,7.0828,8.3618,9.1101,9.2638,9.2426,9.0523,8.6751,8.2724,0.0,0.0,0.0,0.0,0.0,0.0,0.0,0.0,0.0,0.0,0.0,0.0,0.0,0.0,0.0,0.0,0.0,0.0,0.0,0.0,0.0,0.0,0.0,0.0,0.0,0.0,0.0,3.1599,0.0,0.0,0.0,0.0,0.0,0.0,0.0,0.0,0.0,0.0,0.0,0.0,0.0,0.0,6.2713,6.6734,6.5291,6.5234,0.0,0.0,6.4836,6.6161,6.7622,6.6477,0.0,0.0,0.0,0.0,0.0,0.0,0.0,0.0,0.0,0.0,0.0,0.0,0.0,0.0,0.0,0.0,0.0,0.0,0.0,0.0,0.0,0.0,0.0,0.0,0.0,0.0,0.0,0.0,0.0,0.0,0.0,0.0,0.0,0.0,0.0,0.0,0.0,0.0,0.0,0.0,0.0,0.0,0.0,0.0,0.0,0.0,0.0,0.0,0.0,0.0,0.0,0.0,0.0,0.0,6.251,7.07,8.0746,8.8077,9.2271,9.1449,8.9181,8.5733,8.1423,7.3738,0.0,0.0,0.0,0.0,0.0,0.0,0.0,0.0,0.0,0.0,0.0,0.0,0.0,0.0,0.0,0.0,0.0,0.0,0.0,0.0,0.0,0.0,0.0,0.0,0.0,0.0,0.0,0.0,0.0,0.0,0.0,0.0,0.0,0.0,0.0,0.0,0.0,0.0,0.0,0.0,0.0,0.0,6.208,6.0741,0.0,0.0,0.0,6.1379,6.274,0.0,0.0,0.0,0.0,0.0,0.0,0.0,0.0,0.0,0.0,0.0,0.0,0.0,0.0,0.0,0.0,0.0,0.0,0.0,0.0,0.0,0.0,0.0,0.0,0.0,0.0,0.0,0.0,0.0,0.0,0.0,0.0,0.0,0.0,0.0,0.0,0.0,0.0,0.0,0.0,0.0,0.0,0.0,0.0,0.0,0.0,0.0,0.0,0.0,0.0,0.0,0.0,0.0,0.0,0.0,0.0,0.0,7.0033,7.7525,8.4682,9.1324,8.9459,8.6866,8.4218,7.9814,7.216,0.0,0.0,0.0,0.0,0.0,0.0,0.0,0.0,0.0,0.0,0.0,0.0,0.0,0.0,0.0,0.0,0.0,0.0,0.0,0.0,0.0,0.0,0.0,0.0,0.0,0.0,0.0,0.0,0.0,0.0,0.0,0.0,0.0,0.0,0.0,0.0,0.0,0.0,0.0,0.0,0.0,5.6738,5.6345,5.5577,5.5267,0.0,0.0,5.8376,6.045,6.087,0.0,0.0,0.0,0.0,0.0,0.0,0.0,0.0,0.0,0.0,0.0,0.0,0.0,0.0,0.0,0.0,0.0,0.0,0.0,0.0,0.0,0.0,0.0,0.0,0.0,0.0,0.0,0.0,0.0,0.0,0.0,0.0,0.0,0.0,0.0,0.0,0.0,0.0,0.0,0.0,0.0,0.0,0.0,0.0,0.0,0.0,0.0,0.0,0.0,0.0,0.0,0.0,0.0,0.0,0.0,0.0,6.86,7.9769,8.7116,8.9974,8.7768,8.5729,8.4119,7.7888,7.0175,0.0,0.0,0.0,0.0,0.0,0.0,0.0,0.0,0.0,0.0,0.0,0.0,0.0,0.0,0.0,0.0,0.0,0.0,0.0,0.0,0.0,0.0,0.0,0.0,0.0,0.0,0.0,0.0,0.0,0.0,0.0,0.0,0.0,0.0,0.0,0.0,0.0,0.0,0.0,0.0,0.0,5.5216,5.7506,5.5756,0.0,0.0,0.0,0.0,5.518,5.2818,0.0,0.0,0.0,0.0,0.0,0.0,0.0,0.0,0.0,0.0,0.0,0.0,0.0,0.0,0.0,0.0,0.0,0.0,0.0,0.0,0.0,0.0,0.0,0.0,0.0,0.0,0.0,0.0,0.0,0.0,0.0,0.0,0.0,0.0,0.0,0.0,0.0,0.0,0.0,0.0,0.0,0.0,0.0,0.0,0.0,0.0,0.0,0.0,0.0,0.0,0.0,0.0,0.0,0.0,0.0,0.0,6.8984,7.6418,8.3231,8.9173,8.6433,8.415,8.2741,7.6882,6.9233,0.0,0.0,0.0,0.0,0.0,0.0,0.0,0.0,0.0,0.0,0.0,0.0,0.0,0.0,0.0,0.0,0.0,0.0,0.0,0.0,0.0,0.0,0.0,0.0,0.0,0.0,0.0,0.0,0.0,0.0,0.0,0.0,0.0,0.0,0.0,0.0,0.0,0.0,0.0,0.0,5.0309,5.2315,5.4221,0.0,0.0,0.0,0.0,0.0,0.0,4.9991,4.761,0.0,0.0,0.0,0.0,0.0,0.0,0.0,0.0,0.0,0.0,0.0,0.0,0.0,0.0,0.0,0.0,0.0,0.0,0.0,0.0,0.0,0.0,0.0,0.0,0.0,0.0,0.0,0.0,0.0,0.0,0.0,0.0,0.0,0.0,0.0,0.0,0.0,0.0,0.0,0.0,0.0,0.0,0.0,0.0,0.0,0.0,0.0,0.0,0.0,0.0,0.0,0.0,0.0,0.0,0.0,6.842,7.1445,7.7797,8.7657,8.4781,8.2489,8.1014,7.5745,6.811,5.8262,0.0,0.0,0.0,0.0,0.0,0.0,0.0,0.0,0.0,0.0,0.0,0.0,0.0,0.0,0.0,0.0,0.0,0.0,0.0,0.0,0.0,0.0,0.0,0.0,0.0,0.0,0.0,0.0,0.0,0.0,0.0,0.0,0.0,0.0,0.0,0.0,0.0,0.0,0.0,4.6908,4.907,0.0,0.0,0.0,0.0,0.0,0.0,0.0,0.0,4.6589,0.0,0.0,0.0,0.0,0.0,0.0,0.0,0.0,0.0,0.0,0.0,0.0,0.0,0.0,0.0,0.0,0.0,0.0,0.0,0.0,0.0,0.0,0.0,0.0,0.0,0.0,0.0,0.0,0.0,0.0,0.0,0.0,0.0,0.0,0.0,0.0,0.0,0.0,0.0,0.0,0.0,0.0,0.0,0.0,0.0,0.0,0.0,0.0,0.0,0.0,0.0,0.0,0.0,0.0,0.0,0.0,6.8661,7.6298,8.287,8.188,8.0629,7.9577,7.299,6.4776,5.5123,0.0,0.0,0.0,0.0,0.0,0.0,0.0,0.0,0.0,0.0,0.0,0.0,0.0,0.0,0.0,0.0,0.0,0.0,0.0,0.0,0.0,0.0,0.0,0.0,0.0,0.0,0.0,0.0,0.0,0.0,0.0,0.0,0.0,0.0,0.0,0.0,0.0,0.0,3.7387,4.2366,0.0,0.0,0.0,0.0,0.0,0.0,0.0,0.0,4.3886,0.0,0.0,0.0,0.0,0.0,0.0,0.0,0.0,0.0,0.0,0.0,0.0,0.0,0.0,0.0,0.0,0.0,0.0,0.0,0.0,0.0,0.0,0.0,0.0,0.0,0.0,0.0,0.0,0.0,0.0,0.0,0.0,0.0,0.0,0.0,0.0,0.0,0.0,0.0,0.0,0.0,0.0,0.0,0.0,0.0,0.0,0.0,0.0,0.0,0.0,0.0,0.0,0.0,0.0,0.0,0.0,0.0,0.0,7.4706,8.073,7.951,7.8123,7.6754,6.9008,6.0991,0.0,0.0,0.0,0.0,0.0,0.0,0.0,0.0,0.0,0.0,0.0,0.0,0.0,0.0,0.0,0.0,0.0,0.0,0.0,0.0,0.0,0.0,0.0,0.0,0.0,0.0,0.0,0.0,0.0,0.0,0.0,0.0,0.0,0.0,0.0,0.0,0.0,0.0,0.0,0.0,0.0,0.0,0.0,0.0,0.0,0.0,0.0,0.0,0.0,0.0,0.0,0.0,0.0,0.0,0.0,0.0,0.0,0.0,0.0,0.0,0.0,0.0,0.0,0.0,0.0,0.0,0.0,0.0,0.0,0.0,0.0,0.0,0.0,0.0,0.0,0.0,0.0,0.0,0.0,0.0,0.0,0.0,0.0,0.0,0.0,0.0,0.0,0.0,0.0,0.0,0.0,0.0,0.0,0.0,0.0,0.0,0.0,0.0,0.0,0.0,0.0,0.0,0.0,0.0,0.0,0.0,0.0,0.0,7.1423,7.7149,7.6544,7.5392,7.3798,6.5106,5.759,0.0,0.0,0.0,0.0,0.0,0.0,0.0,0.0,0.0,0.0,0.0,0.0,0.0,0.0,0.0,0.0,0.0,0.0,0.0,0.0,0.0,0.0,0.0,0.0,0.0,0.0,0.0,0.0,0.0,0.0,0.0,0.0,0.0,0.0,0.0,0.0,0.0,0.0,0.0,0.0,0.0,0.0,0.0,0.0,0.0,0.0,0.0,0.0,4.1962,0.0,0.0,0.0,0.0,0.0,0.0,0.0,0.0,0.0,0.0,0.0,0.0,0.0,0.0,0.0,0.0,0.0,0.0,0.0,0.0,0.0,0.0,0.0,0.0,0.0,0.0,0.0,0.0,0.0,0.0,0.0,0.0,0.0,0.0,0.0,0.0,0.0,0.0,0.0,0.0,0.0,0.0,0.0,0.0,0.0,0.0,0.0,0.0,0.0,0.0,0.0,0.0,0.0,0.0,0.0,0.0,0.0,0.0,0.0,6.4366,6.9177,7.1907,7.2445,7.0344,6.2354,5.513,0.0,0.0,0.0,0.0,0.0,0.0,0.0,0.0,0.0,0.0,0.0,0.0,0.0,0.0,0.0,0.0,0.0,0.0,0.0,0.0,0.0,0.0,0.0,0.0,0.0,0.0,0.0,0.0,0.0,0.0,0.0,0.0,0.0,0.0,0.0,0.0,0.0,0.0,0.0,0.0,0.0,0.0,0.0,0.0,0.0,0.0,0.0,0.0,0.0,0.0,0.0,0.0,0.0,0.0,0.0,0.0,0.0,0.0,0.0,0.0,0.0,0.0,0.0,0.0,0.0,0.0,0.0,0.0,0.0,0.0,0.0,0.0,0.0,0.0,0.0,0.0,0.0,0.0,0.0,0.0,0.0,0.0,0.0,0.0,0.0,0.0,0.0,0.0,0.0,0.0,0.0,0.0,0.0,0.0,0.0,0.0,0.0,0.0,0.0,0.0,0.0,0.0,0.0,0.0,0.0,0.0,0.0,0.0,6.1295,6.6912,6.9416,6.8152,6.2921,5.6549,5.0973,0.0,0.0,0.0,0.0,0.0,0.0,0.0,0.0,0.0,0.0,0.0,0.0,0.0,0.0,0.0,0.0,0.0,0.0,0.0,0.0,0.0,0.0,0.0,0.0,0.0,0.0,0.0,0.0,0.0,0.0,0.0,0.0,0.0,0.0,0.0,0.0,0.0,0.0,0.0,0.0,0.0,0.0,0.0,0.0,0.0,0.0,0.0,0.0,0.0,0.0,0.0,0.0,0.0,0.0,0.0,0.0,0.0,0.0,0.0,0.0,0.0,0.0,0.0,0.0,0.0,0.0,0.0,0.0,0.0,0.0,0.0,0.0,0.0,0.0,0.0,0.0,0.0,0.0,0.0,0.0,0.0,0.0,0.0,0.0,0.0,0.0,0.0,0.0,0.0,0.0,0.0,0.0,0.0,0.0,0.0,0.0,0.0,0.0,0.0,0.0,0.0,0.0,0.0,0.0,0.0,0.0,0.0,0.0,0.0,6.2296,6.42,6.2201,5.6208,5.1407,4.6852,0.0,0.0,0.0,0.0,0.0,0.0,0.0,0.0,0.0,0.0,0.0,0.0,0.0,0.0,0.0,0.0,0.0,0.0,0.0,0.0,0.0,0.0,0.0,0.0,0.0,0.0,0.0,0.0,0.0,0.0,0.0,0.0,0.0,0.0,0.0,0.0,0.0,0.0,0.0,0.0,0.0,0.0,0.0,0.0,0.0,0.0,0.0,0.0,0.0,0.0,0.0,0.0,0.0,0.0,0.0,0.0,0.0,0.0,0.0,0.0,0.0,0.0,0.0,0.0,0.0,0.0,0.0,0.0,0.0,0.0,0.0,0.0,0.0,0.0,0.0,0.0,0.0,0.0,0.0,0.0,0.0,0.0,0.0,0.0,0.0,0.0,0.0,0.0,0.0,0.0,0.0,0.0,0.0,0.0,0.0,0.0,0.0,0.0,0.0,0.0,0.0,0.0,0.0,0.0,0.0,0.0,0.0,0.0,0.0,5.2475,5.4058,5.3943,5.2004,4.825,4.3295,0.0,0.0,0.0,0.0,0.0,0.0,0.0,0.0,0.0,0.0,0.0,0.0,0.0,0.0,0.0,0.0,0.0,0.0,0.0,0.0,0.0,0.0,0.0,0.0,0.0,0.0,0.0,0.0,0.0,0.0,0.0,0.0,0.0,0.0,0.0,0.0,0.0,0.0,0.0,0.0,0.0,0.0,0.0,0.0,0.0,0.0,0.0,0.0,0.0,0.0,0.0,0.0,0.0,0.0,0.0,0.0,0.0,0.0,0.0,0.0,0.0,0.0,0.0,0.0,0.0,0.0,0.0,0.0,0.0,0.0,0.0,0.0,0.0,0.0,0.0,0.0,0.0,0.0,0.0,0.0,0.0,0.0,0.0,0.0,0.0,0.0,0.0,0.0,0.0,0.0,0.0,0.0,0.0,0.0,0.0,0.0,0.0,0.0,0.0,0.0,0.0,0.0,0.0,0.0,0.0,0.0,0.0,0.0,0.0,4.1827,4.4924,4.6888,4.7297,4.2794,3.9583,3.7934,0.0,0.0,0.0,0.0,0.0,0.0,0.0,0.0,0.0,0.0,0.0,0.0,0.0,0.0,0.0,0.0,0.0,0.0,0.0,0.0,0.0,0.0,0.0,0.0,0.0,0.0,0.0,0.0,0.0,0.0,0.0,0.0,0.0,0.0,0.0,0.0,0.0,0.0,0.0,0.0,0.0,0.0,0.0,0.0,0.0,0.0,0.0,0.0,0.0,0.0,0.0,0.0,0.0,0.0,0.0,0.0,0.0,0.0,0.0,0.0,0.0,0.0,0.0,0.0,0.0,0.0,0.0,0.0,0.0,0.0,0.0,0.0,0.0,0.0,0.0,0.0,0.0,0.0,0.0,0.0,0.0,0.0,0.0,0.0,0.0,0.0,0.0,0.0,0.0,0.0,0.0,0.0,0.0,0.0,0.0,0.0,0.0,0.0,0.0,0.0,0.0,0.0,0.0,0.0,0.0,0.0,0.0,0.0,3.7135,4.0483,4.2677,4.3067,3.9239,3.6552,0.0,0.0,0.0,0.0,0.0,0.0,0.0,0.0,0.0,0.0,0.0,0.0,0.0,0.0,0.0,0.0,0.0,0.0,0.0,0.0,0.0,0.0,0.0,0.0,0.0,0.0,0.0,0.0,0.0,0.0,0.0,0.0,0.0,0.0,0.0,0.0,0.0,0.0,0.0,0.0,0.0,0.0,0.0,0.0,0.0,0.0,0.0,0.0,0.0,0.0,0.0,0.0,0.0,0.0,0.0,0.0,0.0,0.0,0.0,0.0,0.0,0.0,0.0,0.0,0.0,0.0,0.0,0.0,0.0,0.0,0.0,0.0,0.0,0.0,0.0,0.0,0.0,0.0,0.0,0.0,0.0,0.0,0.0,0.0,0.0,0.0,0.0,0.0,0.0,0.0,0.0,0.0,0.0,0.0,0.0,0.0,0.0,0.0,0.0,0.0,0.0,0.0,0.0,0.0,0.0,0.0,0.0,0.0,3.2889,3.9701,4.1415,4.1388,3.9997,3.8297,3.4452,0.0,0.0,0.0,0.0,0.0,0.0,0.0,0.0,0.0,0.0,0.0,0.0,0.0,0.0,0.0,0.0,0.0,0.0,0.0,0.0,0.0,0.0,0.0,0.0,0.0,0.0,0.0,0.0,0.0,0.0,0.0,0.0,0.0,0.0,0.0,0.0,0.0,0.0,0.0,0.0,0.0,0.0,0.0,0.0,0.0,0.0,0.0,0.0,0.0,0.0,0.0,0.0,0.0,0.0,0.0,0.0,0.0,0.0,0.0,0.0,0.0,0.0,0.0,0.0,0.0,0.0,0.0,0.0,0.0,0.0,0.0,0.0,0.0,0.0,0.0,0.0,0.0,0.0,0.0,0.0,0.0,0.0,0.0,0.0,0.0,0.0,0.0,0.0,0.0,0.0,0.0,0.0,0.0,0.0,0.0,0.0,0.0,0.0,0.0,0.0,0.0,0.0,0.0,0.0,0.0,0.0,0.0,0.0,0.0,3.258,0.0,3.7734,4.117,3.6878,3.4246,0.0,0.0,0.0,0.0,0.0,0.0,0.0,0.0,0.0,0.0,0.0,0.0,0.0,0.0,0.0,0.0,0.0,0.0,0.0,0.0,0.0,0.0,0.0,0.0,0.0,0.0,0.0,0.0,0.0,0.0,0.0,0.0,0.0,0.0,0.0,0.0,0.0,0.0,0.0,0.0,0.0,0.0,0.0,0.0,0.0,0.0,0.0,0.0,0.0,0.0,0.0,0.0,0.0,0.0,0.0,0.0,0.0,0.0,0.0,0.0,0.0,0.0,0.0,0.0,0.0,0.0,0.0,0.0,0.0,0.0,0.0,0.0,0.0,0.0,0.0,0.0,0.0,0.0,0.0,0.0,0.0,0.0,0.0,0.0,0.0,0.0,0.0,0.0,0.0,0.0,0.0,0.0,0.0,0.0,0.0,0.0,0.0,0.0,0.0,0.0,0.0,0.0,0.0,0.0,0.0,0.0,0.0,0.0,0.0,3.2049,3.2619,3.5377,4.0183,3.6664,3.4861,0.0,0.0,0.0,0.0,0.0,0.0,0.0,0.0,0.0,0.0,0.0,0.0,0.0,0.0,0.0,0.0,0.0,0.0,0.0,0.0,0.0,0.0,0.0,0.0,0.0,0.0,0.0,0.0,0.0,0.0,0.0,0.0,0.0,0.0,0.0,0.0,0.0,0.0,0.0,0.0,0.0,0.0,0.0,0.0,0.0,0.0,0.0,0.0,0.0,0.0,0.0,0.0,0.0,0.0,0.0,0.0,0.0,0.0,0.0,0.0,0.0,0.0,0.0,0.0,0.0,0.0,0.0,0.0,0.0,0.0,0.0,0.0,0.0,0.0,0.0,0.0,0.0,0.0,0.0,0.0,0.0,0.0,0.0,0.0,0.0,0.0,0.0,0.0,0.0,0.0,0.0,0.0,0.0,0.0,0.0,0.0,0.0,0.0,0.0,0.0,0.0,0.0,0.0,0.0,0.0,0.0,0.0,0.0,0.0,3.6954,3.438,3.43,3.7189,3.7257,3.5883,0.0,0.0,0.0,0.0,0.0,0.0,0.0,0.0,0.0,0.0,0.0,0.0,0.0,0.0,0.0,0.0,0.0,0.0,0.0,0.0,0.0,0.0,0.0,0.0,0.0,0.0,0.0,0.0,0.0,0.0,0.0,0.0,0.0,0.0,0.0,0.0,0.0,0.0,0.0,0.0,0.0,0.0,0.0,0.0,0.0,0.0,0.0,0.0,0.0,0.0,0.0,0.0,0.0,0.0,0.0,0.0,0.0,0.0,0.0,0.0,0.0,0.0,0.0,0.0,0.0,0.0,0.0,0.0,0.0,0.0,0.0,0.0,0.0,0.0,0.0,0.0,0.0,0.0,0.0,0.0,0.0,0.0,0.0,0.0,0.0,0.0,0.0,0.0,0.0,0.0,0.0,0.0,0.0,0.0,0.0,0.0,0.0,0.0,0.0,0.0,0.0,0.0,0.0,0.0,0.0,0.0,0.0,0.0,0.0,0.0,3.2315,3.3295,3.4089,3.4157,3.3617,3.2456,0.0,0.0,0.0,0.0,0.0,0.0,0.0,0.0,0.0,0.0,0.0,0.0,0.0,0.0,0.0,0.0,0.0,0.0,0.0,0.0,0.0,0.0,0.0,0.0,0.0,0.0,0.0,0.0,0.0,0.0,0.0,0.0,0.0,0.0,0.0,0.0,0.0,0.0,0.0,0.0,0.0,0.0,0.0,0.0,0.0,0.0,0.0,0.0,0.0,0.0,0.0,0.0,0.0,0.0,0.0,0.0,0.0,0.0,0.0,0.0,0.0,0.0,0.0,0.0,0.0,0.0,0.0,0.0,0.0,0.0,0.0,0.0,0.0,0.0,0.0,0.0,0.0,0.0,0.0,0.0,0.0,0.0,0.0,0.0,0.0,0.0,0.0,0.0,0.0,0.0,0.0,0.0,0.0,0.0,0.0,0.0,0.0,0.0,0.0,0.0,0.0,0.0,0.0,0.0,0.0,0.0,0.0,0.0,0.0,0.0,3.1577,3.2867,3.2867,3.2784,0.0,0.0,0.0,0.0,0.0,0.0,0.0,0.0,0.0,0.0,0.0,0.0,0.0,0.0,0.0,0.0,0.0,0.0,0.0,0.0,0.0,0.0,0.0,0.0,0.0,0.0,0.0,0.0,0.0,0.0,0.0,0.0,0.0,0.0,0.0,0.0,0.0,0.0,0.0,0.0,0.0,0.0,0.0,0.0,0.0,0.0,0.0,0.0,0.0,0.0,0.0,0.0,0.0,0.0,0.0,0.0,0.0,0.0,0.0,0.0,0.0,0.0,0.0,0.0,0.0,0.0,0.0,0.0,0.0,0.0,0.0,0.0,0.0,0.0,0.0,0.0,0.0,0.0,0.0,0.0,0.0,0.0,0.0,0.0,0.0,0.0,0.0,0.0,0.0,0.0,0.0,0.0,0.0,0.0,0.0,0.0,0.0,0.0,0.0,0.0,0.0,0.0,0.0,0.0,0.0,0.0,0.0,0.0,0.0,0.0,0.0,2.9691,3.2371,3.2721,0.0,3.2433,0.0,0.0,0.0,0.0,0.0,0.0,0.0,0.0,0.0,0.0,0.0,0.0,0.0,0.0,0.0,0.0,0.0,0.0,0.0,0.0,0.0,0.0,0.0,0.0,0.0,0.0,0.0,0.0,0.0,0.0,0.0,0.0,0.0,0.0,0.0,0.0,0.0,0.0,0.0,0.0,0.0,0.0,0.0,0.0,0.0,0.0,0.0,0.0,0.0,0.0,0.0,0.0,0.0,0.0,0.0,0.0,0.0,0.0,0.0,0.0,0.0,0.0,0.0,0.0,0.0,0.0,0.0,0.0,0.0,0.0,0.0,0.0,0.0,0.0,0.0,0.0,0.0,0.0,0.0,0.0,0.0,0.0,0.0,0.0,0.0,0.0,0.0,0.0,0.0,0.0,0.0,0.0,0.0,0.0,0.0,0.0,0.0,0.0,0.0,0.0,0.0,0.0,0.0,0.0,0.0,0.0,0.0,0.0,0.0,0.0,0.0,0.0,3.1577,3.1723,2.9374,0.0,0.0,0.0,0.0,0.0,0.0,0.0,0.0,0.0,0.0,0.0,0.0,0.0,0.0,0.0,0.0,0.0,0.0,0.0,0.0,0.0,0.0,0.0,0.0,0.0,0.0,0.0,0.0,0.0,0.0,0.0,0.0,0.0,0.0,0.0,0.0,0.0,0.0,0.0,0.0,0.0,0.0,0.0,0.0,0.0,0.0,0.0,0.0,0.0,0.0,0.0,0.0,0.0,0.0,0.0,0.0,0.0,0.0,0.0,0.0,0.0,0.0,0.0,0.0,0.0,0.0,0.0,0.0,0.0,0.0,0.0,0.0,0.0,0.0,0.0,0.0,0.0,0.0,0.0,0.0,0.0,0.0,0.0,0.0,0.0,0.0,0.0,0.0,0.0,0.0,0.0,0.0,0.0,0.0,0.0,0.0,0.0,0.0,0.0,0.0,0.0,0.0,0.0,0.0,0.0,0.0,0.0,0.0,0.0,0.0,3.0189,2.847,3.0679,3.0418,2.727,0.0,0.0,0.0,0.0,0.0,0.0,0.0,0.0,0.0,0.0,0.0,0.0,0.0,0.0,0.0,0.0,0.0,0.0,0.0,0.0,0.0,0.0,0.0,0.0,0.0,0.0,0.0,0.0,0.0,0.0,0.0,0.0,0.0,0.0,0.0,0.0,0.0,0.0,0.0,0.0,0.0,0.0,0.0,0.0,0.0,0.0,0.0,0.0,0.0,0.0,0.0,0.0,0.0,0.0,0.0,0.0,0.0,0.0,0.0,0.0,0.0,0.0,0.0,0.0,0.0,0.0,0.0,0.0,0.0,0.0,0.0,0.0,0.0,0.0,0.0,0.0,0.0,0.0,0.0,0.0,0.0,0.0,0.0,0.0,0.0,0.0,0.0,0.0,0.0,0.0,0.0,0.0,0.0,0.0,0.0,0.0,0.0,0.0,0.0,0.0,0.0,0.0,0.0,0.0,0.0,0.0,0.0,0.0,0.0,0.0,0.0,0.0,0.0,0.0,2.6703,0.0,0.0,0.0,0.0,0.0,0.0,0.0,0.0,0.0,0.0,0.0,0.0,0.0,0.0,0.0,0.0,0.0,0.0,0.0,0.0,0.0,0.0,0.0,0.0,0.0,0.0,0.0,0.0,0.0,0.0,0.0,0.0,0.0,0.0,0.0,0.0,0.0,0.0,0.0,0.0,0.0,0.0,0.0,0.0,0.0,0.0,0.0,0.0,0.0,0.0,0.0,0.0,0.0,0.0,0.0,0.0,0.0,0.0,0.0,0.0,0.0,0.0,0.0,0.0,0.0,0.0,0.0,0.0,0.0,0.0,0.0,0.0,0.0,0.0,0.0,0.0,0.0,0.0,0.0,0.0,0.0,0.0,0.0,0.0,0.0,0.0,0.0,0.0,0.0,0.0,0.0,0.0,0.0,0.0,0.0,0.0,0.0,0.0,0.0,0.0,0.0,0.0,0.0,0.0,0.0,0.0,0.0,0.0,0.0,0.0,0.0,0.0,0.0,0.0,0.0,0.0,0.0,0.0,0.0,0.0,0.0,0.0,0.0,0.0,0.0,0.0,0.0,0.0,0.0,0.0,0.0,0.0,0.0,0.0,0.0,0.0,0.0,0.0,0.0,0.0,0.0,0.0,0.0,0.0,0.0,0.0,0.0,0.0,0.0,0.0,0.0,0.0,0.0,0.0,0.0,0.0,0.0,0.0,0.0,0.0,0.0,0.0,0.0,0.0,0.0,0.0,0.0,0.0,0.0,0.0,0.0,0.0,0.0,0.0,0.0,0.0,0.0,0.0,0.0,0.0,0.0,0.0,0.0,0.0,0.0,0.0,0.0,0.0,0.0,0.0,0.0,0.0,0.0,0.0,0.0,0.0,0.0,0.0,0.0,0.0,0.0,0.0,0.0,0.0,0.0,0.0,0.0,0.0,0.0,0.0,0.0,0.0,0.0,0.0,0.0,0.0,0.0,0.0,0.0,0.0,0.0,0.0,0.0,0.0,0.0,0.0,0.0,0.0,0.0,0.0,0.0,0.0,0.0,0.0,0.0,0.0,0.0,0.0,0.0,0.0,0.0,0.0,0.0,0.0,0.0,0.0,0.0,0.0,0.0,0.0,0.0,0.0,0.0,0.0,0.0,0.0,0.0,0.0,0.0,0.0,0.0,0.0,0.0,0.0,0.0,0.0,0.0,0.0,0.0,0.0,0.0,0.0,0.0,0.0,0.0,0.0,0.0,0.0,0.0,0.0,0.0,0.0,0.0,0.0,0.0,0.0,0.0,0.0,0.0,0.0,0.0,0.0,0.0,0.0,0.0,0.0,0.0,0.0,0.0,0.0,0.0,0.0,0.0,0.0,0.0,0.0,0.0,0.0,0.0,0.0,0.0,0.0,0.0,0.0,0.0,0.0,0.0,0.0,0.0,0.0,0.0,0.0,0.0,0.0,0.0,0.0,0.0,0.0,0.0,0.0,0.0,0.0,0.0,0.0,0.0,0.0,0.0,0.0,0.0,0.0,0.0,0.0,0.0,0.0,0.0,0.0,0.0,0.0,0.0,0.0,0.0,0.0,0.0,0.0,0.0,0.0,0.0,0.0,0.0,0.0,0.0,0.0,0.0,0.0,0.0,0.0,0.0,0.0,0.0,0.0,0.0,0.0,0.0,0.0,0.0,0.0,0.0,0.0,0.0,0.0,0.0,0.0,0.0,0.0,0.0,0.0,0.0,0.0,0.0,0.0,0.0,0.0,0.0,0.0,0.0,0.0,0.0,0.0,0.0,0.0,0.0,0.0,0.0,0.0,0.0,0.0,0.0,0.0,0.0,0.0,0.0,0.0,0.0,0.0,0.0,0.0,0.0,0.0,0.0,0.0,0.0,0.0,0.0,0.0,0.0,0.0,0.0,0.0,0.0,0.0,0.0,0.0,0.0,0.0,0.0,0.0,0.0,0.0,0.0,0.0,0.0,0.0,0.0,0.0,0.0,0.0,0.0,0.0,0.0,0.0,0.0,0.0,0.0,0.0,0.0,0.0,0.0,0.0,0.0,0.0,0.0,0.0,0.0,0.0,0.0,0.0,0.0,0.0,0.0,0.0,0.0,0.0,0.0,0.0,0.0,0.0,0.0,0.0,0.0,0.0,0.0,0.0,0.0,0.0,0.0,0.0,0.0,0.0,0.0,0.0,0.0,0.0,0.0,0.0,0.0,0.0,0.0,0.0,0.0,0.0,0.0,0.0,0.0,0.0,0.0,0.0,0.0,0.0,0.0,0.0,0.0,0.0,0.0,0.0,0.0,0.0,0.0,0.0,0.0,0.0,0.0,0.0,0.0,0.0,0.0,0.0,0.0,0.0,0.0,0.0,0.0,0.0,0.0,0.0,0.0,0.0,0.0,0.0,0.0,0.0,0.0,0.0,0.0,0.0,0.0,0.0,0.0,0.0,0.0,0.0,0.0,0.0,0.0,0.0,0.0,0.0,0.0,0.0,0.0,0.0,0.0,0.0,0.0,0.0,0.0,0.0,0.0,0.0,0.0,0.0,0.0,0.0,0.0,0.0,0.0,0.0,0.0,0.0,0.0,0.0,0.0,0.0,0.0,0.0,0.0,0.0,0.0,0.0,0.0,0.0,0.0,0.0,0.0,0.0,0.0,0.0,0.0,0.0,0.0,0.0,0.0,0.0,0.0,0.0,0.0,0.0,0.0,0.0,0.0,0.0,0.0,0.0,0.0,0.0,0.0,0.0,0.0,0.0,0.0,0.0,0.0,0.0,0.0,0.0,0.0,0.0,0.0,0.0,0.0,0.0,0.0,0.0,0.0,0.0,0.0,0.0,0.0,0.0,0.0,0.0,0.0,0.0,0.0,0.0,0.0,0.0,0.0,0.0,0.0,0.0,0.0,0.0,0.0,0.0,0.0,0.0,0.0,0.0,0.0,0.0,0.0,0.0,0.0,0.0,0.0,0.0,0.0,0.0,0.0,0.0,0.0,0.0,0.0,0.0,0.0,0.0,0.0,0.0,0.0,0.0,0.0,0.0,0.0,0.0,0.0,0.0,0.0,0.0,0.0,0.0,0.0,0.0,0.0,0.0,0.0,0.0,0.0,0.0,0.0,0.0,0.0,0.0,0.0,0.0,0.0,0.0,0.0,0.0,0.0,0.0,0.0,0.0,0.0,0.0,0.0,0.0,0.0,0.0,0.0,0.0,0.0,0.0,0.0,0.0,0.0,0.0,0.0,0.0,0.0,0.0,0.0,0.0,0.0,0.0,0.0,0.0,0.0,0.0,0.0,0.0,0.0,0.0,0.0,0.0,0.0,0.0,0.0,0.0,0.0,0.0,0.0,0.0,0.0,0.0,0.0,0.0,0.0,0.0,0.0,0.0,0.0,0.0,0.0,0.0,0.0,0.0,0.0,0.0,0.0,0.0,0.0,0.0,0.0,0.0,0.0,0.0,0.0,0.0,0.0,0.0,0.0,0.0,0.0,0.0,0.0,0.0,0.0,0.0,0.0,0.0,0.0,0.0,0.0,0.0,0.0,0.0,0.0,0.0,0.0,0.0,0.0,0.0,0.0,0.0,0.0,0.0,0.0,0.0,0.0,0.0,0.0,0.0,0.0,0.0,0.0,0.0,0.0,0.0,0.0,0.0,0.0,0.0,0.0,0.0,0.0,0.0,0.0,0.0,0.0,0.0,0.0,0.0,0.0,0.0,0.0,0.0,0.0,0.0,0.0,0.0,0.0,0.0,0.0,0.0,0.0,0.0,0.0,0.0,0.0,0.0,0.0,0.0,0.0,0.0,0.0,0.0,0.0,0.0,0.0,0.0,0.0,0.0,0.0,0.0,0.0,0.0,0.0,0.0,0.0,0.0,0.0,0.0,0.0,0.0,0.0,0.0,0.0,0.0,0.0,0.0,0.0,0.0,0.0,0.0,0.0,0.0,0.0,0.0,0.0,0.0,0.0,0.0,0.0,0.0,0.0,0.0,0.0,0.0,0.0,0.0,0.0,0.0,0.0,0.0,0.0,0.0,0.0,0.0,0.0,0.0,0.0,0.0,0.0,0.0,0.0,0.0,0.0,0.0,0.0,0.0,0.0,0.0,0.0,0.0,0.0,0.0,0.0,0.0,0.0,0.0,0.0,0.0,0.0,0.0,0.0,0.0,0.0,0.0,0.0,0.0,0.0,0.0,0.0,0.0,0.0,0.0,0.0,0.0,0.0,0.0,0.0,0.0,0.0,0.0,0.0,0.0,0.0,0.0,0.0,0.0,0.0,0.0,0.0,0.0,0.0,0.0,0.0,0.0,0.0,0.0,0.0,0.0,0.0,0.0,0.0,0.0,0.0,0.0,0.0,0.0,0.0,0.0,0.0,0.0,0.0,0.0,0.0,0.0]}],[{"header":{"parameterUnit":"kt","parameterCategory":2,"dx":1,"dy":1,"la1":29.587661999999998,"la2":31.0,"lo1":-88.76705300000003,"lo2":-86.6583820000003,"nx":115,"ny":88,"refTime":"2022-09-19T06:00:00:Z","depth":0,"parameterNumber":2,"parameterNumberName":"V-component_of_WINDS"},"data":[7.8743,8.4625,8.6201,9.0432,9.5813,9.6395,9.6395,9.6395,9.6395,9.6395,9.6395,9.6395,9.6395,9.6395,9.6395,9.6395,9.6395,9.6395,9.6395,9.6395,9.6395,9.6395,9.6395,9.6395,9.6395,9.6395,9.6395,9.6395,9.6395,9.6395,9.6395,9.6395,9.6395,9.6395,9.6395,9.6395,9.6395,9.6395,9.6395,9.6395,9.6395,9.6395,9.6395,9.6395,9.6395,9.6395,9.694,9.9004,10.1718,10.5632,11.0037,11.2712,11.3817,11.4215,11.4721,11.4879,11.4879,11.4879,11.4879,11.4879,11.4879,11.4879,11.4879,11.4879,11.4879,11.4879,11.4879,11.4879,11.5054,11.5577,11.5577,11.5228,11.5286,11.7005,11.7877,11.8602,11.9882,12.058,12.1364,12.2206,12.2613,12.2613,12.2613,12.2672,12.2672,12.2672,12.2672,12.2846,12.3807,12.5291,12.6687,12.7937,12.9188,12.977,13.0235,13.0235,13.0235,13.0235,13.0235,13.0235,13.0235,13.0235,13.0235,13.0235,13.0235,13.0235,13.0235,13.0235,13.0235,13.0237,13.0244,12.9865,12.8696,12.7181,12.5816,7.6963,8.0858,8.7379,9.2671,9.6113,9.6395,9.6395,9.6395,9.6395,9.6395,9.6395,9.6395,9.6395,9.6395,9.6395,9.6395,9.6395,9.6395,9.6395,9.6395,9.6395,9.6395,9.6395,9.6395,9.6395,9.6395,9.6395,9.6395,9.6395,9.6395,9.6395,9.6395,9.6395,9.6395,9.6395,9.6395,9.6395,9.6395,9.6395,9.6395,9.6395,9.6395,9.6395,9.6395,9.6395,9.6395,9.6395,9.7345,9.8728,10.2856,10.7408,11.0368,11.2035,11.3923,11.4537,11.4879,11.4879,11.4879,11.4879,11.4879,11.4879,11.4879,11.4879,11.4879,11.4879,11.4879,11.4879,11.4879,11.4879,11.5054,11.5054,11.4937,11.4937,11.5577,11.5868,11.6275,11.8195,11.9882,12.1131,12.2439,12.2527,12.2527,12.2585,12.2672,12.2672,12.2672,12.273,12.2788,12.3458,12.5379,12.6745,12.7821,12.9188,12.977,13.0177,13.0235,13.0235,13.0235,13.0235,13.0235,13.0235,13.0235,13.0235,13.0235,13.0235,13.0235,13.0235,13.0235,13.0235,13.0235,13.0211,13.0065,12.8897,12.7849,12.6716,7.5768,7.9978,8.765,9.3055,9.6019,9.6395,9.6395,9.6395,9.6395,9.6395,9.6395,9.6395,9.6395,9.6395,9.6395,9.6395,9.6395,9.6395,9.6395,9.6395,9.6395,9.6395,9.6395,9.6395,9.6395,9.6395,9.6395,9.6395,9.6395,9.6395,9.6395,9.6395,9.6395,9.6395,9.6395,9.6395,9.6395,9.6395,9.6395,9.6395,9.6395,9.6395,9.6395,9.6395,9.6395,9.6395,9.6395,9.6583,9.8317,10.1576,10.4971,10.8,11.1927,11.3843,11.4748,11.4879,11.4879,11.4879,11.4879,11.4879,11.4879,11.4879,11.4879,11.4879,11.4879,11.4879,11.4879,11.4879,11.4879,11.4879,11.4879,11.4879,11.4879,11.4879,11.517,11.5286,11.6566,11.8311,11.9707,12.0901,12.1139,12.1313,12.2381,12.2467,12.27,12.27,12.2672,12.273,12.4302,12.6106,12.6833,12.7763,12.9246,13.0091,13.0177,13.0235,13.0235,13.0235,13.0235,13.0235,13.0235,13.0235,13.0235,13.0235,13.0235,13.0235,13.0235,13.0235,13.0235,13.0235,13.0235,13.0235,12.9213,12.8195,12.7645,7.5054,8.0743,8.7491,9.2709,9.6158,9.6395,9.6395,9.6395,9.6395,9.6395,9.6395,9.6395,9.6395,9.6395,9.6395,9.6395,9.6395,9.6395,9.6395,9.6395,9.6395,9.6395,9.6395,9.6395,9.6395,9.6395,9.6395,9.6395,9.6395,9.6395,9.6395,9.6395,9.6395,9.6395,9.6395,9.6395,9.6395,9.6395,9.6395,9.6395,9.6395,9.6395,9.6395,9.6395,9.6395,9.6395,9.6395,9.6395,9.7915,9.9473,10.2404,10.6723,11.2416,11.4056,11.4774,11.4879,11.4879,11.4879,11.4879,11.4879,11.4879,11.4879,11.4879,11.4879,11.4879,11.4879,11.4879,11.4879,11.4879,11.4879,11.4879,11.4879,11.4879,11.4879,11.4937,11.4937,11.4996,11.6508,11.7962,11.8613,11.9118,12.0215,12.1685,12.2292,12.2553,12.2669,12.2641,12.3137,12.4651,12.5437,12.596,12.7734,12.9218,12.9974,13.0177,13.0235,13.0235,13.0235,13.0235,13.0235,13.0235,13.0235,13.0235,13.0235,13.0235,13.0235,13.0235,13.0235,13.0235,13.0235,13.0235,13.0235,12.9417,12.898,12.8633,7.5208,8.3096,8.6968,9.1637,9.603,9.6395,9.6395,9.6395,9.6395,9.6395,9.6395,9.6395,9.6395,9.6395,9.6395,9.6395,9.6395,9.6395,9.6395,9.6395,9.6395,9.6395,9.6395,9.6395,9.6395,9.6395,9.6395,9.6395,9.6395,9.6395,9.6395,9.6395,9.6395,9.6395,9.6395,9.6395,9.6395,9.6395,9.6395,9.6395,9.6395,9.6395,9.6395,9.6395,9.6395,9.6395,9.6395,9.6426,9.6552,9.6739,9.8193,10.0938,10.6669,11.1083,11.3949,11.4774,11.4879,11.4879,11.4879,11.4879,11.4879,11.4879,11.4879,11.4879,11.4879,11.4879,11.4879,11.4879,11.4879,11.4879,11.4879,11.4879,11.4879,11.4879,11.4879,11.4879,11.4996,11.5752,11.6946,11.7447,11.7982,11.891,12.0405,12.2381,12.2671,12.2404,12.2439,12.2904,12.3807,12.4244,12.5582,12.7618,12.8665,12.9363,12.977,13.0235,13.0235,13.0235,13.0235,13.0235,13.0235,13.0235,13.0235,13.0235,13.0235,13.0235,13.0235,13.0235,13.0235,13.0235,13.0235,13.0235,13.0177,12.9943,12.9652,7.893,8.3425,8.6835,9.14,9.5918,9.6395,9.6395,9.6395,9.6395,9.6395,9.6395,9.6395,9.6395,9.6395,9.6395,9.6395,9.6395,9.6395,9.6395,9.6395,9.6395,9.6395,9.6395,9.6395,9.6395,9.6395,9.6395,9.6395,9.6395,9.6395,9.6395,9.6395,9.6395,9.6395,9.6395,9.6395,9.6395,9.6395,9.6395,9.6395,9.6395,9.6395,9.6395,9.6395,9.6395,9.6395,9.6395,9.6395,9.6426,9.6426,9.8759,10.0696,10.2797,10.8646,11.2197,11.4616,11.48,11.4879,11.4879,11.4879,11.4879,11.4879,11.4879,11.4879,11.4879,11.4879,11.4879,11.4879,11.4879,11.4879,11.4879,11.4879,11.4879,11.4879,11.4879,11.4879,11.517,11.5461,11.59,11.6428,11.7014,11.7773,11.9374,12.1458,12.2443,12.1432,12.1159,12.171,12.2206,12.2527,12.4011,12.6338,12.7501,12.8548,12.9654,13.0235,13.0207,13.0178,13.0207,13.0235,13.0235,13.0235,13.0235,13.0235,13.0235,13.0235,13.0235,13.0235,13.0235,13.0235,13.0235,13.0235,13.0235,13.0235,13.0235,8.1101,8.3086,8.6743,9.1211,9.5622,9.5938,9.6182,9.6395,9.6395,9.6395,9.6395,9.6395,9.6395,9.6395,9.6395,9.6395,9.6395,9.6395,9.6395,9.6395,9.6395,9.6395,9.6395,9.6395,9.6395,9.6395,9.6395,9.6395,9.6395,9.6395,9.6395,9.6395,9.6395,9.6395,9.6395,9.6395,9.6395,9.6395,9.6395,9.6395,9.6395,9.6395,9.6395,9.6395,9.6395,9.6395,9.6395,9.6395,9.6395,9.6458,9.8544,10.0455,10.1028,10.5895,11.0258,11.3092,11.4484,11.4879,11.4879,11.4879,11.4879,11.4879,11.4879,11.4879,11.4879,11.4879,11.4879,11.4879,11.4879,11.4879,11.4879,11.4879,11.4879,11.4879,11.4879,11.4879,11.4937,11.517,11.5228,11.5582,11.5561,11.6464,11.7846,11.975,12.0264,11.951,11.9324,11.9933,12.0313,12.0433,12.1743,12.4302,12.5785,12.6978,12.82,12.9568,12.983,13.0151,13.0237,13.0235,13.0119,13.0061,13.0177,13.0235,13.0235,13.0235,13.0177,13.0235,13.0235,13.0235,13.0235,13.0235,13.0235,13.0235,13.0235,8.0629,8.2296,8.6393,9.063,9.4397,9.4622,9.5344,9.6346,9.6395,9.6395,9.6395,9.6395,9.6395,9.6395,9.6395,9.6395,9.6395,9.6395,9.6395,9.6395,9.6395,9.6395,9.6395,9.6395,9.6395,9.6395,9.6395,9.6395,9.6395,9.6395,9.6395,9.6395,9.6395,9.6395,9.6395,9.6395,9.6395,9.6395,9.6395,9.6395,9.6395,9.6395,9.6395,9.6395,9.6395,9.6395,9.6395,9.6395,9.6395,9.6489,9.6739,9.8482,10.0907,10.4121,10.715,11.0147,11.3172,11.4188,11.4774,11.4879,11.4827,11.4029,11.4563,11.4879,11.4879,11.4879,11.4879,11.4879,11.4879,11.4879,11.4879,11.4879,11.4879,11.4879,11.4879,11.4879,11.4879,11.4879,11.4879,11.4911,11.489,11.5382,11.6736,11.7282,11.7962,11.7577,11.7815,11.8249,11.8132,11.8195,11.9474,12.212,12.3922,12.526,12.6803,12.823,12.8755,12.9338,12.9599,12.9452,12.98,12.9712,12.9305,12.9101,12.977,13.0031,12.9711,12.9769,13.0031,13.0235,13.0235,13.0235,13.0235,13.0235,13.0235,7.5364,7.868,8.2364,8.682,9.1119,9.1543,9.3096,9.5295,9.6102,9.6395,9.6395,9.6395,9.6395,9.6395,9.6395,9.6395,9.6395,9.6395,9.6395,9.6395,9.6395,9.6395,9.6395,9.6395,9.6395,9.6395,9.6395,9.6395,9.6395,9.6395,9.6395,9.6395,9.6395,9.6346,9.6298,9.6249,9.6249,9.6298,9.6298,9.6298,9.6395,9.6395,9.6395,9.6395,9.6395,9.6395,9.6395,9.6395,9.6395,9.6395,9.652,9.7002,9.8359,10.0636,10.3004,10.5434,10.8702,11.2632,11.4109,11.459,11.3439,11.2659,11.4029,11.4748,11.4879,11.4879,11.4879,11.4879,11.4879,11.4879,11.4879,11.4879,11.4879,11.4879,11.4879,11.4879,11.4879,11.4879,11.4879,11.4879,11.4885,11.5027,11.5604,11.5863,11.6265,11.6302,11.6307,11.6043,11.581,11.6159,11.7031,11.9642,12.1705,12.2906,12.4362,12.654,12.7967,12.8492,12.8288,12.7997,12.8317,12.852,12.7996,12.7705,12.8345,12.8868,12.8925,12.9186,12.9361,12.9623,13.0034,13.0209,13.0235,13.0235,13.0235,7.2349,7.6249,7.8866,8.2055,8.5463,8.8005,9.0679,9.3252,9.5342,9.6395,9.6395,9.6395,9.6395,9.6395,9.6395,9.6395,9.6395,9.6395,9.6395,9.6395,9.6395,9.6395,9.6395,9.6395,9.6395,9.6395,9.6395,9.6395,9.6395,9.6395,9.6395,9.6395,9.6395,9.6249,9.5938,9.5419,9.5645,9.5841,9.5938,9.6053,9.6395,9.6395,9.6395,9.6395,9.6395,9.6395,9.6395,9.6395,9.6395,9.6395,9.6395,9.652,9.7158,9.9687,10.1247,10.25,10.5405,11.0065,11.2308,11.2038,11.1438,11.2416,11.3038,11.3439,11.4827,11.4879,11.4879,11.4879,11.4879,11.4879,11.4879,11.4879,11.4879,11.4879,11.4879,11.4879,11.4879,11.4879,11.4879,11.4879,11.4879,11.4996,11.5054,11.5456,11.5514,11.5519,11.5577,11.5228,11.517,11.5286,11.5577,11.8039,11.9303,12.0505,12.2389,12.5373,12.706,12.7352,12.712,12.683,12.6832,12.7036,12.6803,12.6774,12.7152,12.7501,12.7443,12.7501,12.8256,12.9073,12.9865,13.0217,12.9484,12.919,12.9509,7.184,7.4892,7.6161,7.679,7.8191,8.4772,8.8613,9.0584,9.3989,9.5953,9.6364,9.6395,9.6395,9.6395,9.6395,9.6395,9.6395,9.6395,9.6395,9.6395,9.6395,9.6395,9.6395,9.6395,9.6395,9.6395,9.6395,9.6395,9.6395,9.6395,9.6395,9.6395,9.6151,9.5792,9.4846,9.376,9.376,9.47,9.4797,9.5304,9.5712,9.5858,9.5809,9.5858,9.5956,9.6053,9.6151,9.62,9.6395,9.6395,9.6395,9.6395,9.6489,9.9046,10.0152,10.0666,10.3799,10.678,10.9232,10.6922,10.8197,11.0917,11.1054,11.1818,11.3896,11.4879,11.4879,11.4879,11.4879,11.4879,11.4879,11.4879,11.4879,11.4879,11.4879,11.4879,11.4879,11.4879,11.4879,11.4879,11.4879,11.4879,11.4879,11.4879,11.4879,11.4879,11.4879,11.4937,11.4937,11.5112,11.5345,11.6692,11.6845,11.835,12.0505,12.3798,12.5891,12.6096,12.6041,12.5869,12.5871,12.5552,12.5669,12.6018,12.6135,12.6193,12.6047,12.5844,12.5556,12.5642,12.7618,12.89,12.8346,12.7968,12.8404,7.0603,7.178,7.4383,7.55,7.5881,7.8767,8.3297,8.8393,9.0945,9.3326,9.6364,9.6395,9.6395,9.6395,9.6395,9.6395,9.6395,9.6395,9.6395,9.6395,9.6395,9.6395,9.6395,9.6395,9.6395,9.6395,9.6395,9.6395,9.6395,9.6395,9.6298,9.6005,9.5694,9.5286,9.4553,9.3839,9.3271,9.3564,9.3613,9.3906,9.4052,9.4199,9.4248,9.4345,9.5011,9.5255,9.5401,9.5907,9.62,9.6298,9.6395,9.6395,9.6739,9.7158,9.7668,9.882,10.0485,10.2619,10.2797,10.1478,10.1268,10.5809,10.7351,11.0147,11.1927,11.3599,11.4046,11.4421,11.4716,11.4879,11.4879,11.4879,11.4879,11.4879,11.4879,11.4879,11.4879,11.4879,11.4879,11.4879,11.4879,11.4879,11.4879,11.4879,11.4879,11.4879,11.4879,11.4879,11.4879,11.4996,11.5286,11.5465,11.5535,11.7023,11.8654,12.1713,12.4351,12.4498,12.4556,12.4589,12.4503,12.3805,12.3691,12.436,12.4768,12.4826,12.4683,12.4396,12.3588,12.2782,12.3877,12.5639,12.5409,12.6512,12.7036,7.0013,7.0174,7.2199,7.3072,7.3242,7.5583,7.9321,8.3807,8.7653,9.0804,9.301,9.5365,9.6395,9.6395,9.6395,9.6395,9.6395,9.6395,9.6395,9.6395,9.6395,9.6395,9.6395,9.6395,9.6395,9.6395,9.6395,9.6395,9.6346,9.6395,9.6102,9.537,9.5011,9.4474,9.3644,9.2783,9.2509,9.2509,9.2558,9.2802,9.293,9.3125,9.3125,9.3125,9.3985,9.4132,9.4327,9.5255,9.5645,9.5858,9.62,9.6346,9.6552,9.652,9.6708,9.7033,9.8193,10.0082,10.0545,10.0001,9.8328,10.0877,10.3599,10.7153,10.8506,11.1247,11.238,11.2766,11.3086,11.48,11.4879,11.4879,11.4879,11.4879,11.4879,11.4879,11.4879,11.4879,11.4879,11.4879,11.4879,11.4879,11.4879,11.4879,11.4879,11.4879,11.4879,11.4879,11.4879,11.4996,11.5461,11.5745,11.624,11.7536,11.9515,12.1048,12.2613,12.2874,12.296,12.3223,12.3398,12.273,12.273,12.2904,12.3342,12.3633,12.3551,12.3038,12.2779,12.2746,12.2889,12.3179,12.3873,12.4973,12.5524,7.0013,7.0013,7.0009,7.0174,7.0443,7.4431,7.6227,7.8191,8.4347,8.7063,8.8803,9.2978,9.5587,9.6332,9.6395,9.6395,9.6395,9.6395,9.6395,9.6395,9.6395,9.6395,9.6298,9.62,9.6151,9.6151,9.6053,9.6005,9.6053,9.5565,9.4687,9.3436,9.3857,9.3095,9.2314,9.1729,9.1485,9.1455,9.1455,9.1924,9.2393,9.2588,9.2637,9.2704,9.2851,9.3027,9.3046,9.4101,9.4718,9.4766,9.5548,9.6053,9.6053,9.6249,9.6395,9.6395,9.7065,9.8101,9.9382,9.9321,9.8831,9.8224,9.9443,10.2612,10.5619,10.8392,10.9287,10.9059,11.2908,11.4642,11.4879,11.4879,11.4879,11.4879,11.4879,11.4879,11.4879,11.4879,11.4879,11.4879,11.4879,11.4879,11.4879,11.4879,11.4879,11.4879,11.4879,11.4879,11.4879,11.4996,11.5519,11.6021,11.6602,11.8109,12.0148,12.1422,12.2381,12.2672,12.2672,12.2672,12.2672,12.2672,12.2672,12.2788,12.2846,12.2788,12.2704,12.2739,12.2741,12.2704,12.2702,12.2852,12.3431,12.3925,12.4274,7.0013,7.0013,7.0013,7.0013,7.0146,7.1092,7.3419,7.6463,7.8955,8.2059,8.6084,8.9807,9.3436,9.573,9.6346,9.6346,9.6395,9.6395,9.6395,9.6395,9.6395,9.6346,9.6053,9.5499,9.5255,9.5255,9.5304,9.4766,9.4248,9.3955,9.3857,9.3174,9.2802,9.2089,9.1406,9.0899,9.0509,9.0479,9.0509,9.0655,9.085,9.0899,9.0929,9.1094,9.1455,9.1973,9.2089,9.2997,9.3515,9.376,9.462,9.5206,9.5401,9.5809,9.6249,9.6249,9.6249,9.6917,9.7426,9.7866,9.722,9.6927,9.7748,9.9503,10.3073,10.7711,11.0091,11.1935,11.4167,11.4325,11.4879,11.4911,11.4937,11.4879,11.4879,11.4879,11.4879,11.4879,11.4879,11.4879,11.4879,11.4879,11.4879,11.4879,11.4879,11.4879,11.4879,11.4879,11.4879,11.4879,11.5286,11.5577,11.6504,11.8105,11.983,12.1073,12.209,12.2672,12.2672,12.2672,12.2672,12.2672,12.2672,12.2672,12.273,12.2672,12.2672,12.2672,12.2672,12.2672,12.2672,12.2672,12.2672,12.2876,12.3283,7.0013,7.0013,7.0013,7.0013,7.0013,7.0013,7.1427,7.3714,7.5185,7.7063,7.9547,8.5205,9.148,9.5533,9.5889,9.5956,9.6346,9.6395,9.6395,9.6395,9.5907,9.5663,9.5499,9.4718,9.4553,9.4571,9.4278,9.3369,9.2539,9.2442,9.2491,9.1954,9.1601,9.1357,9.0723,9.0235,9.007,9.0021,9.0021,9.0021,9.0021,9.0021,9.0021,9.007,9.0577,9.0821,9.1113,9.1875,9.2382,9.2656,9.3467,9.4083,9.4345,9.5059,9.5743,9.5743,9.5743,9.5743,9.5841,9.6245,9.6472,9.6426,9.6646,9.7443,9.9878,10.3797,10.7989,11.3975,11.3634,11.3668,11.444,11.4837,11.4896,11.4879,11.4879,11.4879,11.4879,11.4879,11.4879,11.4879,11.4879,11.4879,11.4879,11.4879,11.4879,11.4879,11.4879,11.4879,11.4879,11.4879,11.5054,11.5345,11.6723,11.8187,11.9597,12.1073,12.2206,12.2672,12.2672,12.2672,12.2672,12.2672,12.2672,12.2672,12.2672,12.2672,12.2672,12.2672,12.2672,12.2672,12.2672,12.2672,12.2672,12.273,12.2876,7.0013,7.0013,7.0013,7.0013,7.0013,7.0013,7.008,7.0575,7.3152,7.264,7.1984,8.0798,8.9085,9.4096,9.4527,9.4755,9.5601,9.5761,9.5761,9.5841,9.5108,9.4718,9.4718,9.3564,9.3467,9.376,9.3271,9.1826,9.1289,9.2002,9.171,9.0733,9.087,9.0967,9.0265,9.007,9.0021,9.0021,9.0021,9.0021,9.0021,9.0021,9.0021,9.0021,9.007,9.0118,9.0362,9.0899,9.1357,9.1533,9.2363,9.2851,9.3095,9.4034,9.4522,9.4522,9.4651,9.4718,9.509,9.5645,9.6053,9.6395,9.6395,9.6395,9.7643,10.0163,10.396,11.2276,11.1242,11.0763,11.2767,11.3515,11.391,11.379,11.3737,11.3923,11.4879,11.4879,11.4879,11.4879,11.4879,11.4879,11.4879,11.4879,11.4879,11.4879,11.4879,11.4879,11.4879,11.4879,11.4996,11.5752,11.6956,11.835,11.9765,12.1364,12.2264,12.2672,12.2672,12.2672,12.2672,12.2672,12.2672,12.2672,12.2672,12.2672,12.2672,12.2672,12.2672,12.2672,12.2672,12.2672,12.2672,12.2672,12.2672,7.0013,7.0013,7.0013,7.0013,7.0013,7.0013,7.0013,7.0108,7.0828,7.0724,7.0795,7.6396,8.4448,9.0842,9.137,9.1169,9.368,9.3827,9.4394,9.4797,9.4034,9.4004,9.3985,9.3125,9.2119,9.2509,9.1943,9.165,9.1045,9.0997,9.0587,9.0216,9.0118,9.0167,9.007,9.0021,9.0021,9.0021,9.0021,9.0021,9.0021,9.0021,9.0021,9.0021,9.0021,9.0021,9.0021,9.0362,9.0411,9.0704,9.1289,9.1845,9.204,9.2851,9.3076,9.2509,9.3076,9.3936,9.4553,9.5139,9.545,9.5956,9.6298,9.6346,9.6655,9.695,9.8282,10.0339,10.3341,10.7666,10.9259,10.8629,10.912,11.0313,11.1329,11.1927,11.3546,11.4347,11.4215,11.3957,11.4879,11.4879,11.4879,11.4879,11.4879,11.4879,11.4879,11.4879,11.4879,11.4879,11.5112,11.5958,11.6772,11.8195,11.9707,12.1189,12.2381,12.2672,12.2672,12.2672,12.2672,12.2672,12.2672,12.2672,12.2672,12.2672,12.2672,12.2672,12.2672,12.2672,12.2672,12.2672,12.2672,12.2672,12.2672,7.0013,7.0013,7.0013,7.0013,7.0013,7.0013,7.0013,7.0013,7.0013,7.0013,7.1147,7.4202,8.0122,8.4838,8.5281,8.7283,9.0492,9.2135,9.3418,9.3644,9.2979,9.2753,9.2851,9.1582,9.1241,9.1309,9.1016,9.0802,9.0723,9.0216,9.007,9.0021,9.0021,9.0021,9.0021,9.0021,9.0021,9.0021,9.0021,9.0021,9.0021,9.0021,9.0021,9.0021,9.0021,9.0021,9.0021,9.0021,9.0021,9.0118,9.0509,9.0723,9.0948,9.1241,9.1338,9.1113,9.1796,9.2704,9.3125,9.3839,9.4229,9.4784,9.4784,9.4833,9.4754,9.4772,9.4958,9.6752,10.0668,10.4144,10.5544,10.5974,10.6405,10.7746,10.8084,10.9566,11.1601,11.2389,11.1416,11.0115,11.1792,11.3248,11.3892,11.4879,11.4879,11.4879,11.4879,11.4879,11.4879,11.4879,11.4937,11.5461,11.5694,11.7264,11.8924,12.0956,12.2613,12.2672,12.2672,12.2672,12.2672,12.2672,12.2672,12.2672,12.2672,12.2672,12.2672,12.2672,12.2672,12.2672,12.2672,12.2672,12.2672,12.2672,12.2672,7.0013,7.0013,7.0013,7.0013,7.0013,7.0013,7.0013,7.0013,7.0013,7.0013,7.0339,7.2917,7.5598,7.8277,7.9711,8.2442,8.5641,8.9256,9.1676,9.2625,9.1796,9.1552,9.1631,9.0802,9.0558,9.0899,9.0606,9.0167,9.0118,9.0021,9.0021,9.0021,9.0021,9.0021,9.0021,9.0021,9.0021,9.0021,9.0021,9.0021,9.0021,9.0021,9.0021,9.0021,9.0021,9.0021,9.0021,9.0021,9.0021,9.0021,9.0021,9.0021,9.0167,9.0167,9.0216,9.0314,9.087,9.1504,9.1924,9.246,9.2802,9.3095,9.3369,9.332,9.3132,9.2913,9.3522,9.5194,9.7638,10.0107,10.1233,10.2329,10.3916,10.485,10.5169,10.6236,10.845,10.8593,10.7204,10.512,10.8257,11.1023,11.3328,11.4879,11.4879,11.4879,11.4879,11.4879,11.4879,11.4879,11.4879,11.4879,11.4879,11.6423,11.8284,12.0665,12.2583,12.2583,12.2672,12.2672,12.2672,12.2672,12.2672,12.2672,12.2672,12.2672,12.2672,12.2672,12.2672,12.2672,12.2672,12.2672,12.2672,12.2672,12.2672,7.0013,7.0013,7.0013,7.0013,7.0013,7.0013,7.0013,7.0013,7.0013,7.0013,7.0207,7.0405,7.1629,7.2336,7.4901,7.6204,7.8921,8.3231,8.8987,9.1273,9.0772,9.0821,9.1094,9.0558,9.0167,9.0167,9.0099,9.0021,9.0021,9.0021,9.0021,9.0021,9.0021,9.0021,9.0021,9.0021,9.0021,9.0021,9.0021,9.0021,9.0021,9.0021,9.0021,9.0021,9.0021,9.0021,9.0021,9.0021,9.0021,9.0021,9.0021,9.0021,9.0021,9.0021,9.0021,9.0021,9.0216,9.0674,9.126,9.165,9.2138,9.3125,9.3076,9.3027,9.2979,9.2742,9.2888,9.3593,9.4209,9.541,9.6013,9.7864,9.9504,10.1088,10.1756,10.3269,10.5082,10.3922,10.1757,10.0049,10.4672,11.0421,11.3267,11.4943,11.4911,11.4879,11.4879,11.4879,11.4879,11.4879,11.4879,11.4879,11.4879,11.6043,11.802,12.0286,12.2118,12.2409,12.2672,12.2672,12.2672,12.2672,12.2672,12.2672,12.2672,12.2672,12.2672,12.2672,12.2672,12.2672,12.2672,12.2672,12.2672,12.2672,12.2672,7.0013,7.0013,7.0013,7.0013,7.0013,7.0013,7.0013,7.0013,7.0013,7.0013,7.0013,7.0013,7.0013,7.0174,7.1611,7.3487,7.5892,8.0267,8.5314,8.9497,9.0284,9.0265,9.0558,9.0216,9.0021,9.0021,9.0021,9.0021,9.0021,9.0021,9.0021,9.0021,9.0021,9.0021,9.0021,9.0021,9.0021,9.0021,9.0021,9.0021,9.0021,9.0021,9.0021,9.0021,9.0021,9.0021,9.0021,9.0021,9.0021,9.0021,9.0021,9.0021,9.0021,9.0021,9.0021,9.0021,9.0021,9.0314,9.0528,9.0723,9.0967,9.1387,9.1436,9.1436,9.1436,9.1466,9.168,9.2119,9.2412,9.3027,9.462,9.5401,9.6276,9.819,9.8605,9.996,10.1957,10.0515,9.782,9.8537,10.3303,10.9149,11.3125,11.4562,11.4848,11.4236,11.4236,11.4879,11.4879,11.4879,11.4879,11.4879,11.4879,11.5694,11.7756,11.9755,12.1671,12.2173,12.2495,12.2672,12.2672,12.2672,12.2672,12.2672,12.2672,12.2672,12.2672,12.2672,12.2672,12.2672,12.2672,12.2672,12.2672,12.2672,12.2672,7.0013,7.0013,7.0013,7.0013,7.0013,7.0013,7.0013,7.0013,7.0013,7.0013,7.0013,7.0013,7.0013,7.0013,7.0306,7.1354,7.4005,7.7473,8.2063,8.7723,8.8896,8.9972,9.0021,9.0021,9.0021,9.0021,9.0021,9.0021,9.0021,9.0021,9.0021,9.0021,9.0021,9.0021,9.0021,9.0021,9.0021,9.0021,9.0021,9.0021,9.0021,9.0021,9.0021,9.0021,9.0021,9.0021,9.0021,9.0021,9.0021,9.0021,9.0021,9.0021,9.0021,9.0021,9.0021,9.0021,9.0021,9.0021,9.0021,9.007,9.0021,9.0216,9.0265,9.0021,9.0021,9.0118,9.0509,9.0967,9.126,9.1991,9.3644,9.4474,9.5453,9.6152,9.6619,9.7488,9.8523,9.7462,9.6197,9.6924,10.1468,10.8216,11.3868,11.4792,11.4269,11.3648,11.3993,11.4774,11.4879,11.4879,11.4879,11.4879,11.4996,11.5461,11.7537,11.9773,12.113,12.1757,12.229,12.2672,12.2672,12.2672,12.2672,12.2672,12.2672,12.2672,12.2672,12.2672,12.2672,12.2672,12.2672,12.2672,12.2672,12.2672,12.2672,7.0013,7.0013,7.0013,7.0013,7.0013,7.0013,7.0013,7.0013,7.0013,7.0013,7.0013,7.0013,7.0013,7.0013,7.0013,7.0207,7.0861,7.4585,7.8168,8.2063,8.6812,8.9826,8.9855,9.0021,9.0021,9.0021,9.0021,9.0021,9.0021,9.0021,9.0021,9.0021,9.0021,9.0021,9.0021,9.0021,9.0021,9.0021,9.0021,9.0021,9.0021,9.0021,9.0021,9.0021,9.0021,9.0021,9.0021,9.0021,9.0021,9.0021,9.0021,9.0021,9.0021,9.0021,9.0021,9.0021,9.0021,9.0021,9.0021,9.0021,9.0021,9.0021,9.0021,9.0021,9.0021,9.0021,9.004,9.0362,9.0167,9.085,9.21,9.3741,9.4602,9.5041,9.5792,9.5365,9.4596,9.4572,9.4613,9.4046,9.5663,10.3299,11.0475,11.4616,11.3371,11.0095,11.155,11.2329,11.2947,11.3441,11.3949,11.4155,11.4562,11.5086,11.7071,11.9558,12.0583,12.0852,12.1242,12.2143,12.2143,12.1915,12.2264,12.2672,12.2672,12.2672,12.2672,12.2672,12.2672,12.2672,12.2672,12.2672,12.2672,12.2672,12.2672,7.0013,7.0013,7.0013,7.0013,7.0013,7.0013,7.0013,7.0013,7.0013,7.0013,7.0013,7.0013,7.0013,7.0013,7.0013,7.0013,7.0438,7.3527,7.5764,7.8294,8.3975,8.7812,8.9532,8.9943,9.0021,9.0021,9.0021,9.0021,9.0021,9.0021,9.0021,9.0021,9.0021,9.0021,9.0021,9.0021,9.0021,9.0021,9.0021,9.0021,9.0021,9.0021,9.0021,9.0021,9.0021,9.0021,9.0021,9.0021,9.0021,9.0021,9.0021,9.0021,9.0021,9.0021,9.0021,9.0021,9.0021,9.0021,9.0021,9.0021,9.0021,9.0021,9.0021,9.0021,9.0021,9.0021,9.0021,9.0021,9.0021,9.0216,9.088,9.1973,9.3125,9.376,9.4199,9.4101,9.3271,9.3515,9.3367,9.2834,9.3024,9.6245,10.3752,10.7758,10.7432,10.6742,10.8268,10.9886,11.0791,11.1828,11.2469,11.2308,11.2488,11.2721,11.4131,11.8063,12.0086,11.9098,11.9436,12.1054,12.0855,12.02,12.1159,12.2322,12.2555,12.2672,12.2672,12.2672,12.2439,12.2206,12.2613,12.2672,12.2672,12.2672,12.2672,7.0013,7.0013,7.0013,7.0013,7.0013,7.0013,7.0013,7.0013,7.0013,7.0013,7.0013,7.0013,7.0013,7.0013,7.0013,7.0013,7.0471,7.2486,7.394,7.5732,8.0379,8.3762,8.5716,8.7527,8.8601,8.8748,8.9415,8.9972,9.0021,9.0021,9.0021,9.0021,9.0021,9.0021,9.0021,9.0021,9.0021,9.0021,9.0021,9.0021,9.0021,9.0021,9.0021,9.0021,9.0021,9.0021,9.0021,9.0021,9.0021,9.0021,9.0021,9.0021,9.0021,9.0021,9.0021,9.0021,9.0021,9.0021,9.0021,9.0021,9.0021,9.0021,9.0021,9.0021,9.0021,9.0021,9.0021,9.0021,9.0021,9.0021,9.0118,9.0723,9.1601,9.246,9.2412,9.2217,9.2217,9.246,9.2419,9.1673,9.0713,9.249,9.7257,10.1334,10.4054,10.2716,10.4462,10.7297,10.8374,10.9475,11.168,11.1178,10.9985,11.0222,11.1868,11.6354,11.8122,11.6721,11.7515,11.8958,11.8675,11.8602,12.0258,12.1364,12.0956,12.0898,12.1364,12.1571,12.1596,12.1073,12.1474,12.1899,12.2049,12.2376,12.2346,7.0013,7.0013,7.0013,7.0013,7.0013,7.0013,7.0013,7.0013,7.0013,7.0013,7.0013,7.0013,7.0013,7.0013,7.0013,7.0013,7.0075,7.0735,7.2095,7.4327,7.5892,7.6807,7.8294,8.2953,8.5398,8.6076,8.8346,8.9738,9.0021,9.0021,9.0021,9.0021,9.0021,9.0021,9.0021,9.0021,9.0021,9.0021,9.0021,9.0021,9.0021,9.0021,9.0021,9.0021,9.0021,9.0021,9.0021,9.0021,9.0021,9.0021,9.0021,9.0021,9.0021,9.0021,9.0021,9.0021,9.0021,9.0021,9.0021,9.0021,9.0021,9.0021,9.0021,9.0021,9.0021,9.0021,9.0021,9.0021,9.0021,9.0021,9.0021,9.0167,9.0655,9.1309,9.0997,9.0558,9.0314,9.1143,9.1181,9.0488,9.0183,9.0787,9.266,9.8107,9.9716,9.9499,10.2215,10.4455,10.5691,10.6661,10.98,10.9364,10.7237,10.7474,10.8501,11.2481,11.3387,11.2983,11.469,11.5635,11.5783,11.7179,11.8835,11.9009,11.8982,11.904,11.916,11.9026,11.8972,11.9259,11.9878,12.06,12.1064,12.1515,12.1579,7.0013,7.0013,7.0013,7.0013,7.0013,7.0013,7.0013,7.0013,7.0013,7.0013,7.0013,7.0013,7.0013,7.0013,7.0013,7.0013,7.0013,7.0013,7.0702,7.1938,7.3811,7.5036,7.5764,7.9862,8.2769,8.4885,8.6226,8.7901,8.9855,9.0021,9.0021,9.0021,9.0021,9.0021,9.0021,9.0021,9.0021,9.0021,9.0021,9.0021,9.0021,9.0021,9.0021,9.0021,9.0021,9.0021,9.0021,9.0021,9.0021,9.0021,9.0021,9.0021,9.0021,9.0021,9.0021,9.0021,9.0021,9.0021,9.0021,9.0021,9.0021,9.0021,9.0021,9.0021,9.0021,9.0021,9.0021,9.0021,9.0021,9.0021,9.0021,9.0021,9.0167,9.0558,9.0216,9.0021,9.0021,9.0362,9.0314,9.0187,9.0011,9.0235,9.0665,9.368,9.3788,9.392,9.688,9.9718,9.9645,10.1623,10.234,10.2619,10.2432,10.3636,10.5475,10.7225,10.8412,10.9837,11.184,11.3099,11.3014,11.4489,11.6481,11.6656,11.747,11.7586,11.7912,11.7494,11.7042,11.7084,11.7485,11.8602,11.9727,12.023,12.0467,7.0013,7.0013,7.0013,7.0013,7.0013,7.0013,7.0013,7.0013,7.0013,7.0013,7.0013,7.0013,7.0013,7.0013,7.0013,7.0013,7.0013,7.0013,7.0013,7.0438,7.2323,7.3332,7.3746,7.5796,7.8672,8.1618,8.3808,8.6675,8.9444,9.0021,9.0021,9.0021,9.0021,9.0021,9.0021,9.0021,9.0021,9.0021,9.0021,9.0021,9.0021,9.0021,9.0021,9.0021,9.0021,9.0021,9.0021,9.0021,9.0021,9.0021,9.0021,9.0021,9.0021,9.0021,9.0021,9.0021,9.0021,9.0021,9.0021,9.0021,9.0021,9.0021,9.0021,9.0021,9.0021,9.0021,9.0021,9.0021,9.0021,9.0021,9.0021,9.0021,9.0021,9.0021,9.0021,9.0021,9.0021,9.0021,9.0021,9.0021,9.0021,9.0021,9.005,9.0158,9.0685,9.0781,9.376,9.5826,9.53,9.7626,9.8389,9.8094,9.6543,9.7148,10.1725,10.5102,10.5206,10.5441,10.9119,11.183,11.0438,11.072,11.3119,11.4504,11.5725,11.6396,11.6723,11.6589,11.6134,11.5973,11.612,11.6879,11.8007,11.855,11.8783,7.0013,7.0013,7.0013,7.0013,7.0013,7.0013,7.0013,7.0013,7.0013,7.0013,7.0013,7.0013,7.0013,7.0013,7.0013,7.0013,7.0013,7.0013,7.0013,7.0013,7.0306,7.0405,7.0471,7.0993,7.2812,7.5732,8.1618,8.6286,8.9337,8.9474,8.9738,8.9914,9.0021,9.0021,9.0021,9.0021,9.0021,9.0021,9.0021,9.0021,9.0021,9.0021,9.0021,9.0021,9.0021,9.0021,9.0021,9.0021,9.0021,9.0021,9.0021,9.0021,9.0021,9.0021,9.0021,9.0021,9.0021,9.0021,9.0021,9.0021,9.0021,9.0021,9.0021,9.0021,9.0021,9.0021,9.0021,9.0021,9.0021,9.0021,9.0021,9.0021,9.0021,9.0021,9.0021,9.0021,9.0021,9.0021,9.0021,9.0021,9.0021,9.0021,9.0021,9.0021,9.0021,9.0547,9.2865,9.4738,9.4046,9.5518,9.7796,9.7127,9.4774,9.4031,9.8443,10.2601,10.1517,10.1488,10.5768,10.82,10.6296,10.6506,10.8803,10.9806,11.0808,11.1886,11.2094,11.2839,11.2854,11.5281,11.5154,11.5493,11.6376,11.7124,11.7187,7.0013,7.0013,7.0013,7.0013,7.0013,7.0013,7.0013,7.0013,7.0013,7.0013,7.0013,7.0013,7.0013,7.0013,7.0013,7.0013,7.0013,7.0013,7.0013,7.0013,7.0013,7.0013,7.0013,7.0013,7.0603,7.2265,7.617,8.123,8.5986,8.6556,8.7812,8.9884,9.0021,9.0021,9.0021,9.0021,9.0021,9.0021,9.0021,9.0021,9.0021,9.0021,9.0021,9.0021,9.0021,9.0021,9.0021,9.0021,9.0021,9.0021,9.0021,9.0021,8.9972,9.0021,9.0021,9.0021,8.9972,9.0021,9.0021,9.0021,9.0021,9.0021,9.0021,9.0021,9.0021,9.0021,9.0021,9.0021,9.0021,9.0021,9.0021,9.0021,9.0021,9.0021,9.0021,9.0021,9.0021,9.0021,9.0021,9.0021,9.0021,9.0021,9.0021,9.0021,9.0021,9.0021,9.0945,9.1786,9.1493,9.2284,9.2748,9.254,9.1079,9.2245,9.5251,9.6426,9.5048,9.6911,10.0615,10.1357,10.1085,10.2329,10.358,10.4263,10.5115,10.6217,10.7209,10.8062,11.0638,11.421,11.4916,11.4931,11.5269,11.5815,11.5203,7.0013,7.0013,7.0013,7.0013,7.0013,7.0013,7.0013,7.0013,7.0013,7.0013,7.0013,7.0013,7.0013,7.0013,7.0013,7.0013,7.0013,7.0013,7.0013,7.0013,7.0013,7.0013,7.0013,7.0013,7.0013,7.0504,7.3462,7.844,8.4264,8.4946,8.6645,8.9474,9.0021,9.0021,9.0021,9.0021,9.0021,9.0021,9.0021,9.0021,9.0021,9.0021,9.0021,9.0021,9.0021,9.0021,9.0021,9.0021,9.0021,9.0021,8.9611,8.9387,8.9416,8.9074,8.883,8.885,8.922,8.9416,8.9513,8.9777,9.0021,9.0021,9.0021,9.0021,9.0021,9.0021,9.0021,9.0021,9.0021,9.0021,9.0021,9.0021,9.0021,9.0021,9.0021,9.0021,9.0021,9.0021,9.0021,9.0021,9.0021,9.0021,9.0021,9.0021,9.0021,9.0021,9.0021,9.0089,9.0031,9.0001,9.0352,9.0059,9.0021,9.0671,9.2741,9.1001,9.0605,9.3087,9.5559,9.7454,9.7887,9.9053,10.0625,10.1573,10.2089,10.2958,10.2624,10.3884,10.8179,11.1712,11.4914,11.4895,11.4866,11.5235,11.419,6.9933,6.9824,6.9862,6.9786,6.9938,6.9976,7.0013,7.0009,6.9938,6.9938,6.9976,6.99,6.9862,6.9672,6.9558,6.9824,6.99,6.9862,6.99,7.0013,7.0013,7.0013,7.0013,7.0013,7.0013,7.0273,7.304,7.7536,8.3259,8.4127,8.6286,8.9474,8.9503,8.9738,9.0021,9.0021,9.0021,9.0021,9.0021,9.0021,9.0021,9.0021,9.0021,9.0021,9.0021,8.9972,8.9874,8.9758,8.968,8.9826,8.857,8.8054,8.8015,8.7224,8.6708,8.6615,8.7691,8.8284,8.8152,8.9027,8.9728,8.9796,8.9426,8.9523,8.9278,8.9297,8.9249,8.965,8.924,8.928,8.928,8.9504,9.0021,9.0021,9.0021,9.0021,9.0021,9.0021,9.0021,9.0021,9.0021,9.0021,9.0021,9.0021,9.0021,9.0021,9.0021,9.0021,9.0021,9.0021,9.0021,9.0001,8.9982,8.9982,9.0031,8.9972,8.9972,9.1227,9.3826,9.6805,9.6253,9.6093,9.7828,9.9101,9.873,9.8419,9.8471,10.0752,10.4885,10.6644,10.9413,11.2661,11.1965,11.3666,11.2596,6.9291,6.8251,6.8148,6.8496,6.9173,6.9748,7.0013,6.9938,6.933,6.9406,6.99,6.933,6.8484,6.7421,6.7275,6.7996,6.9022,6.9135,6.9406,6.9976,7.0013,6.9976,7.0013,7.0013,7.0013,7.0141,7.0954,7.2356,7.4069,7.6393,8.069,8.5579,8.6316,8.7527,8.9708,9.0021,9.0021,9.0021,9.0021,9.0021,8.9972,9.0021,9.0021,9.0021,9.0021,8.966,8.885,8.6668,8.613,8.7479,8.5209,8.3921,8.3979,8.5743,8.5692,8.3977,8.5754,8.6261,8.4037,8.6216,8.7923,8.8559,8.6445,8.5519,8.6128,8.6346,8.6316,8.6192,8.5838,8.5503,8.5834,8.8208,8.9884,9.0021,9.0021,9.0021,8.9972,9.0021,8.9972,9.0021,9.0021,9.0021,9.0021,9.0021,9.0021,9.0021,9.0021,9.0021,9.0021,9.0021,9.0021,9.0021,9.0021,9.0021,9.0021,9.0021,9.0021,9.0567,9.0878,9.2547,9.1707,9.1674,9.2786,9.4619,9.3288,9.3001,9.4239,9.6556,10.004,9.8523,9.9299,10.2482,10.7268,10.8098,10.7305,6.8357,6.7459,6.7427,6.7769,6.8186,6.8376,6.8609,6.8799,6.7731,6.7693,6.83,6.7237,6.6395,6.5788,6.6129,6.6775,6.7763,6.811,6.8528,6.8908,6.8951,6.8913,6.8989,6.9325,6.9255,6.8989,6.933,6.9515,7.0067,7.2839,7.7314,8.251,8.4324,8.5879,8.7901,8.9278,9.0021,9.0021,9.0021,8.9533,8.8801,8.8655,8.8655,8.8655,8.8655,8.7882,8.5928,8.4158,8.3673,8.4523,8.1498,8.0193,8.1441,8.1541,8.0793,7.9294,8.065,8.1007,7.9739,8.1666,8.3281,8.3918,8.2125,8.1237,8.1855,8.19,8.1267,8.0299,8.0743,8.1859,8.3178,8.5308,8.7361,8.8453,8.8626,8.8801,8.924,8.9367,8.9533,8.9923,9.0021,9.0021,9.0021,9.0021,9.0021,9.0021,9.0021,9.0021,9.0021,9.0021,9.0021,9.0021,9.0021,9.0021,9.0021,9.0021,9.0021,9.0021,9.0021,9.0021,9.0118,8.9972,9.0021,9.0196,9.0488,9.0861,9.1223,9.3268,9.4376,9.3084,9.3205,9.5374,10.0801,10.1951,10.14,6.7231,6.7199,6.7161,6.7275,6.7275,6.6737,6.6851,6.7123,6.565,6.5339,6.5636,6.42,6.3972,6.4663,6.5339,6.5712,6.5971,6.6554,6.6971,6.7199,6.7205,6.7281,6.7617,6.83,6.8224,6.7693,6.8186,6.8522,6.8684,7.1413,7.4874,7.8794,8.2238,8.3822,8.4592,8.7604,8.929,8.927,8.9036,8.799,8.6348,8.6308,8.6308,8.6308,8.6251,8.4847,8.1775,8.1367,8.1246,8.1104,7.7309,7.6355,7.8374,7.602,7.3981,7.3664,7.3664,7.4185,7.5361,7.6426,7.7235,7.7275,7.7125,7.681,7.7145,7.6614,7.4863,7.3215,7.4973,7.7987,8.0795,8.1593,8.3165,8.5725,8.619,8.681,8.7963,8.8322,8.8635,8.9582,8.9435,8.9728,8.965,8.9728,8.9826,8.9923,9.0021,9.0021,9.0021,9.0021,9.0021,9.0021,9.0021,9.0021,9.0021,9.0021,9.0021,9.0021,9.0021,9.0021,9.0021,9.0021,9.0021,9.0021,9.0021,9.0021,9.0148,9.0021,9.0324,9.0195,9.0506,9.1376,9.4616,9.6204,9.5834,6.5498,6.5498,6.5498,6.5939,6.6547,6.6971,6.6927,6.6433,6.5346,6.398,6.2453,6.1998,6.1893,6.2082,6.2272,6.2757,6.331,6.2871,6.3676,6.5377,6.5498,6.6181,6.7389,6.7655,6.7655,6.7465,6.7041,6.6883,6.6914,6.7562,6.8524,6.9792,7.3962,7.7235,7.9276,8.2973,8.4574,8.3901,8.1601,8.1254,8.3151,8.3238,8.322,8.3267,8.322,8.1324,7.7487,7.5045,7.424,7.4915,7.1916,7.0059,7.0154,7.1419,7.1192,6.8988,6.8672,6.9844,7.234,7.2925,7.3698,7.5085,7.2913,7.2052,7.3051,6.9551,6.6504,6.6388,7.0035,7.2981,7.4123,7.6535,7.9856,8.2757,8.3238,8.4217,8.6571,8.7093,8.7211,8.7337,8.7435,8.774,8.8189,8.8568,8.9074,8.9708,9.0021,9.0021,9.0021,9.0021,9.0021,9.0021,9.0021,8.9874,9.0021,8.9953,8.9982,9.0021,8.9923,8.9806,8.9855,8.9923,8.9972,8.9826,8.9874,8.9777,8.9923,8.9923,8.9806,8.9553,8.9835,9.0332,9.1661,9.2502,9.2723,6.4047,6.382,6.3411,6.3524,6.3972,6.401,6.404,6.385,6.2264,6.0527,5.8981,5.9378,5.953,5.9596,5.991,6.0555,6.1486,6.1723,6.2757,6.439,6.4746,6.5422,6.6219,6.6263,6.6098,6.5756,6.5301,6.5332,6.5674,6.5643,6.6053,6.6977,6.9429,7.2356,7.53,7.8889,8.0516,8.0063,7.7328,7.677,7.8442,7.8974,7.9229,7.9154,7.805,7.6195,7.3625,7.0462,6.9552,7.1231,6.7329,6.5805,6.7404,6.6819,6.5979,6.5076,6.501,6.5752,6.7464,6.755,6.799,6.8967,6.7028,6.6395,6.7861,6.4662,6.2605,6.2702,6.5384,6.7695,6.8886,7.1191,7.388,7.6606,7.8943,8.0855,8.2521,8.4461,8.609,8.6577,8.6675,8.6708,8.687,8.7313,8.798,8.8796,8.8643,8.8703,8.9172,8.8801,8.846,8.846,8.848,8.8508,8.8508,8.9233,8.9931,8.9989,8.9205,8.8701,8.8992,8.8643,8.8488,8.8508,8.846,8.8402,8.8006,8.8267,8.7948,8.7678,8.8324,8.9917,8.9933,9.002,9.002,6.2807,6.2331,6.1399,6.0982,6.083,6.0166,6.0147,6.0489,5.8343,5.6975,5.6428,5.7317,5.7648,5.7572,5.8229,5.8912,5.9634,6.0888,6.2065,6.3061,6.3714,6.417,6.4397,6.4405,6.4056,6.3441,6.3289,6.363,6.4359,6.4397,6.5118,6.6402,6.682,6.8438,7.1464,7.4882,7.623,7.5456,7.3486,7.2763,7.3438,7.4183,7.4444,7.4015,7.205,7.0479,6.9386,6.6233,6.5495,6.7294,6.2716,6.1789,6.5389,6.1299,5.952,6.1002,6.1182,6.1296,6.1515,6.1524,6.1638,6.179,6.1239,6.0973,6.1334,6.1049,6.0859,6.084,6.1793,6.3098,6.498,6.583,6.7228,6.9752,7.3435,7.6396,7.7451,8.0907,8.3866,8.5226,8.5922,8.5734,8.5753,8.6165,8.6795,8.7391,8.7361,8.7142,8.7805,8.7219,8.6605,8.6626,8.6465,8.6359,8.6842,8.8292,8.9132,8.957,8.7961,8.7186,8.7925,8.7474,8.6996,8.6772,8.6919,8.6631,8.6029,8.6093,8.5573,8.4642,8.6413,8.8764,8.9197,8.8339,8.743,6.1746,6.1399,6.0593,5.9862,5.9178,5.8999,5.8619,5.8142,5.691,0.0,0.0,5.8153,5.8142,5.7534,5.7686,5.7431,5.6873,5.6493,5.748,5.9568,5.9758,6.0555,6.1825,6.1893,6.1817,6.1656,6.1011,6.1125,6.1825,6.1893,6.2044,6.2424,6.3744,6.5006,6.6455,7.0136,6.9842,6.5418,6.48,6.6466,7.0209,6.9925,6.8704,6.6705,6.6231,6.4708,6.1945,5.9975,5.9113,5.937,5.6698,5.4901,5.4314,5.3383,5.3266,5.4151,5.4291,5.4898,5.6227,5.6368,5.6964,5.8332,5.8875,5.8077,5.5558,5.7697,5.9062,5.8876,5.9869,6.0964,6.2235,6.176,6.248,6.5424,6.6497,6.9054,7.3412,7.5744,7.8043,8.0837,8.2231,8.3363,8.4912,8.526,8.5755,8.6592,8.6641,8.6849,8.6849,8.6097,8.5678,8.618,8.525,8.4675,8.5673,8.6767,8.718,8.73,8.6949,8.6942,8.7525,8.7258,8.6731,8.648,8.6675,8.6339,8.5778,8.4892,8.4032,8.3691,8.4269,8.5238,8.6688,8.6418,8.5797,5.856,5.8022,5.767,5.7279,0.0,5.6406,5.5266,5.3683,5.3215,5.3506,5.4456,5.5202,5.5354,5.5,5.5,5.5202,5.5555,5.562,5.6721,5.8695,5.9178,5.9834,6.0631,6.0176,5.9948,5.9948,5.9178,5.9178,5.9919,5.9957,5.9948,5.9986,6.0783,6.1201,6.1287,6.3563,6.3192,6.0042,6.1672,6.3609,6.5834,6.6044,6.5483,6.4285,6.3108,0.0,0.0,0.0,0.0,0.0,0.0,0.0,0.0,5.2137,4.9925,5.1064,4.8862,4.8004,4.9189,4.9294,5.0191,5.2265,5.3215,5.248,4.9653,5.2822,5.471,5.4166,5.5827,5.7099,5.7627,5.7572,5.7965,5.914,6.1776,6.4244,6.6826,6.989,7.3458,7.6795,7.804,7.9707,8.2836,8.3428,8.3966,8.4897,8.5173,8.5316,8.5706,8.5023,8.4486,8.4947,8.415,8.3867,8.4517,8.4989,8.5121,8.5121,8.5121,8.5252,8.562,8.5384,8.5121,8.5121,8.5121,8.5016,8.4649,8.4074,8.3604,8.3577,8.3577,8.4039,8.4772,8.3818,8.2897,5.4935,5.4772,5.462,5.4443,5.4279,5.3633,5.1684,4.8959,4.9476,4.9956,5.0517,5.1956,5.2556,5.2506,5.2506,5.3266,5.4557,5.5214,5.6303,5.7811,5.8571,5.8912,5.8837,5.8305,5.8011,5.7974,5.7507,5.7697,5.8495,5.8495,5.8495,5.8467,5.8647,5.8305,5.761,0.0,0.0,0.0,6.0329,6.2077,6.2439,6.2969,6.3067,6.2561,6.0751,0.0,6.2107,5.9783,5.9931,6.3007,5.9605,0.0,6.0333,0.0,0.0,0.0,0.0,0.0,0.0,0.0,0.0,0.0,4.659,4.6362,4.526,4.8011,4.9122,4.7423,5.0952,5.3441,5.3546,5.3873,5.3873,5.3582,5.7385,6.0125,6.0197,6.4143,6.8626,7.2409,7.3228,7.5039,7.8798,8.044,8.1407,8.293,8.323,8.3564,8.4144,8.3412,8.2924,8.2951,8.2897,8.2897,8.2951,8.3054,8.3233,8.3,8.3,8.3157,8.3568,8.3416,8.2951,8.2924,8.2951,8.2951,8.2973,8.2951,8.2795,8.2951,8.3259,8.3444,8.2998,8.153,8.0259,5.1876,5.3899,5.3152,5.2431,5.1747,5.1696,4.9209,4.5372,4.7732,4.8114,4.7356,5.1375,5.2943,5.2506,5.2506,5.2596,5.2823,5.2912,5.3494,5.4456,5.4596,5.4646,5.4672,5.5228,5.5468,5.5532,5.6049,5.6797,5.7659,5.7659,5.7686,5.7724,5.8381,5.8305,5.7469,5.6204,5.543,5.538,5.8645,6.1069,6.2515,6.1883,6.0501,5.8458,5.8046,5.7592,5.6986,5.7501,5.805,5.842,5.8111,5.6664,5.4032,5.1327,4.7933,0.0,4.1555,0.0,0.0,0.0,0.0,0.0,0.0,0.0,0.0,4.4816,4.2538,3.7325,4.5834,5.1939,5.2601,5.1426,5.084,5.1568,5.2315,5.3875,5.6604,5.8436,6.1209,6.5517,6.7518,6.9696,7.254,7.5301,7.8106,8.1122,8.1592,8.0943,8.0863,8.054,8.054,8.0698,8.0698,8.0968,8.0946,8.1382,8.151,8.0874,8.0769,8.1412,8.3147,8.2022,8.0773,8.0773,8.087,8.0822,8.0724,8.0773,8.0672,8.0743,8.2077,8.2625,8.1156,8.0197,8.0259,4.8816,4.9634,5.1197,4.9648,4.6268,4.6268,4.5113,4.346,4.6063,4.5449,4.2879,4.7294,4.8339,4.7003,4.978,4.977,4.7693,5.0508,5.1499,5.105,5.241,5.3076,5.3139,5.3456,5.3607,5.362,5.3987,5.4315,5.4708,5.4746,5.4506,5.4114,5.486,5.3911,5.1454,5.281,5.4063,5.5038,5.7393,5.9482,6.1078,6.0783,5.9806,5.8294,5.8191,5.7754,5.6901,5.8166,5.9369,6.0215,5.9021,5.7587,5.5945,4.8733,4.3683,0.0,0.0,0.0,0.0,0.0,0.0,0.0,0.0,0.0,0.0,0.0,4.3414,3.8882,4.5432,4.9507,4.846,4.7649,4.7314,4.7738,4.7001,4.7949,5.177,5.2634,5.4657,5.9119,6.0834,6.1497,6.1334,6.8094,7.4955,8.0091,7.5711,7.18,7.1546,7.441,7.6506,7.6653,7.8674,8.0259,8.0259,8.0588,8.0285,7.9042,7.9523,8.0588,8.153,8.0944,8.0259,8.0259,8.0259,8.0259,8.0233,7.9448,7.8588,7.8678,7.9359,7.9555,7.8758,7.7566,7.6993,4.5058,4.5324,4.7135,4.4936,4.0276,4.0898,4.0674,4.0124,4.2632,4.2281,3.9876,4.2404,4.3064,4.233,4.501,4.4747,4.2245,4.6412,4.7825,4.7277,4.9753,5.0977,5.1014,5.1831,5.2203,5.2216,5.2368,5.2506,5.2482,5.2267,5.1595,5.0456,5.0988,4.9507,4.6286,4.9925,5.2848,5.4708,5.6584,5.818,5.9406,5.9444,5.9026,5.8125,5.8098,5.7632,5.6725,5.8426,6.0183,6.1799,5.9089,5.746,5.7361,4.646,0.0,0.0,0.0,0.0,0.0,0.0,0.0,0.0,0.0,3.4818,2.9319,0.0,4.211,0.0,4.3847,4.6357,4.5917,4.4583,0.0,0.0,4.2236,4.2446,4.596,4.6932,4.8776,5.2595,5.4294,5.4012,5.106,6.0426,6.9525,7.4753,6.9351,6.4414,6.3507,6.8316,7.1779,7.1215,7.3268,7.572,7.5618,7.663,7.6834,7.6474,7.7647,7.8924,7.9451,7.915,7.8773,7.8773,7.8747,7.8848,7.8878,7.7621,7.6474,7.6381,7.6382,7.633,7.6153,7.4431,7.3438,4.0277,4.2237,3.9289,3.6721,3.4763,3.7201,3.6325,3.3489,3.5997,3.8358,4.011,3.7618,3.8534,4.1889,3.7622,0.0,3.8388,3.929,4.0793,4.2798,4.5386,4.6584,4.6765,4.99,5.1392,5.143,5.2165,5.2506,5.2444,5.1747,5.0153,4.7837,4.7814,4.6963,4.5471,4.8459,5.1419,5.3924,5.628,5.761,5.7724,5.7724,5.729,5.6428,5.639,5.5722,5.4305,5.6562,5.8626,6.0025,5.6553,5.4294,5.3812,0.0,0.0,0.0,0.0,0.0,0.0,0.0,0.0,0.0,0.0,0.0,0.0,0.0,0.0,3.5173,3.8166,0.0,4.7628,4.3508,0.0,0.0,0.0,3.7419,3.9257,4.1572,4.3743,4.5533,0.0,0.0,4.5949,5.2712,5.9017,6.2165,6.5258,6.5725,6.1785,6.4861,6.6791,6.3912,6.3043,6.3029,6.5027,6.7063,6.9886,7.3148,7.4237,7.5186,7.6873,7.5943,7.4554,7.4384,7.4359,7.4602,7.5307,7.4481,7.4116,7.4068,7.4164,7.3967,7.3172,7.1479,7.0768,3.484,3.2092,3.0691,2.9855,2.9474,3.0526,3.0576,3.0074,3.3081,3.3665,3.2575,3.3218,3.5888,3.9685,3.2419,0.0,0.0,0.0,3.632,3.6876,4.1684,4.4544,4.5749,4.8937,5.0484,5.0546,5.0788,5.0953,5.0953,5.1153,4.617,3.6419,0.0,3.7706,3.5839,4.2889,4.7472,4.9545,5.4773,5.7534,5.7534,5.7534,5.6888,5.5544,5.5012,5.4215,5.3063,5.4936,5.5059,5.3194,5.159,4.8856,0.0,0.0,0.0,0.0,0.0,0.0,0.0,0.0,0.0,0.0,0.0,2.9314,2.5575,0.0,0.0,0.0,2.8063,2.9409,3.7974,3.8633,0.0,0.0,0.0,0.0,0.0,0.0,0.0,4.0624,4.3614,4.5323,4.5053,4.8102,5.064,5.1211,5.3237,5.4058,5.2325,0.0,5.9364,5.9054,6.0163,6.1524,6.2885,6.3013,6.4046,6.7544,7.0179,7.267,7.4744,7.4502,7.2785,7.0269,7.0466,7.1328,7.0676,6.8716,6.7998,7.1262,7.1991,7.1114,6.8863,6.6943,6.6132,2.8797,0.0,0.0,0.0,0.0,2.4712,2.5509,2.6895,2.939,2.8739,2.6057,2.8274,0.0,0.0,0.0,0.0,0.0,0.0,3.1673,3.2034,3.8716,4.244,4.362,4.6609,4.7996,4.795,4.7156,4.6471,4.6052,4.6221,4.0152,2.8335,0.0,0.0,0.0,0.0,4.3623,4.6034,5.2822,5.6611,5.6812,5.6785,5.6128,5.4734,5.3696,5.2683,5.1799,5.1715,5.0568,4.8286,4.5064,0.0,0.0,0.0,0.0,0.0,0.0,0.0,0.0,0.0,0.0,0.0,0.0,0.0,0.0,0.0,0.0,0.0,0.0,0.0,2.9375,3.2913,3.387,0.0,0.0,0.0,0.0,0.0,0.0,0.0,0.0,0.0,4.597,4.5904,4.5284,0.0,0.0,4.8273,4.6808,5.0939,5.4052,5.3819,5.5046,0.0,5.7994,5.7577,5.8226,6.1551,6.3854,6.7002,7.2087,7.0927,6.795,6.3857,6.5307,6.5952,6.2773,6.1039,6.26,6.6938,6.7201,6.5315,6.2855,6.1755,6.137,0.0,0.0,0.0,0.0,1.9915,0.0,0.0,0.0,2.3957,2.3517,0.0,2.2492,0.0,0.0,0.0,0.0,2.089,2.3846,0.0,0.0,3.63,3.9798,3.9425,4.203,4.3365,4.3174,4.0453,3.8269,3.6519,3.5213,3.1921,0.0,0.0,0.0,0.0,0.0,4.0176,4.3983,5.06,5.4316,5.5114,5.5088,5.4696,5.3912,5.229,5.0988,4.993,4.6291,4.5085,4.6974,3.666,0.0,0.0,0.0,0.0,0.0,0.0,0.0,0.0,0.0,0.0,0.0,0.0,0.0,0.0,0.0,0.0,0.0,0.0,0.0,0.0,2.6716,0.0,0.0,0.0,0.0,0.0,0.0,0.0,0.0,0.0,4.3258,4.8413,4.6154,4.3737,4.3414,0.0,0.0,0.0,0.0,5.2128,4.7523,4.5359,4.4772,4.563,4.8413,5.1908,5.6068,0.0,0.0,6.8609,6.3965,5.7982,5.6098,5.8422,5.7926,4.9658,5.1867,5.6777,6.174,5.9254,5.5619,5.4701,5.5655,5.6725,0.0,0.0,0.0,0.0,0.0,0.0,0.0,0.0,0.0,1.9547,1.7925,1.8887,0.0,0.0,0.0,0.0,0.0,0.0,0.0,0.0,2.8812,3.1815,3.2519,3.6202,3.7577,3.6904,3.587,3.1733,0.0,0.0,0.0,0.0,0.0,0.0,0.0,0.0,3.6706,3.962,4.89,5.4228,5.4974,5.5012,5.4354,5.3,5.2393,5.0129,4.6047,4.3409,4.1198,0.0,0.0,0.0,0.0,0.0,0.0,0.0,0.0,0.0,0.0,0.0,0.0,0.0,0.0,0.0,0.0,0.0,0.0,0.0,0.0,0.0,0.0,0.0,2.5434,0.0,0.0,0.0,0.0,0.0,0.0,0.0,0.0,0.0,3.6672,4.1296,4.3682,4.15,4.5395,4.8274,4.7509,0.0,0.0,0.0,0.0,0.0,0.0,0.0,4.4735,4.818,5.0743,5.3075,5.4964,5.4955,5.3325,4.9368,0.0,0.0,3.973,3.918,4.3379,5.2827,5.4878,5.3419,4.8458,4.8437,4.8571,0.0,0.0,0.0,0.0,0.0,0.0,0.0,0.0,0.0,1.6021,1.4421,0.0,0.0,0.0,0.0,0.0,0.0,0.0,0.0,0.0,0.0,0.0,2.7921,3.0922,0.0,0.0,0.0,0.0,0.0,0.0,0.0,0.0,0.0,0.0,0.0,0.0,3.4668,3.7319,4.7812,5.3937,5.4936,5.5012,5.4215,5.2544,5.2216,4.9469,4.3905,0.0,0.0,0.0,0.0,0.0,0.0,0.0,0.0,0.0,0.0,0.0,0.0,0.0,0.0,0.0,0.0,0.0,0.0,0.0,0.0,0.0,0.0,0.0,0.0,0.0,2.229,0.0,0.0,0.0,0.0,0.0,0.0,0.0,0.0,0.0,0.0,3.5677,4.0342,3.8506,4.1638,4.4562,4.5828,4.7128,4.8528,0.0,0.0,0.0,0.0,0.0,0.0,0.0,0.0,0.0,0.0,0.0,0.0,0.0,4.3173,4.1936,3.1844,2.9988,3.2798,4.1754,0.0,0.0,0.0,0.0,0.0,0.0,0.0,0.0,0.0,0.0,0.0,0.0,0.0,0.0,0.0,1.2075,0.0,0.0,1.3412,0.0,0.0,0.0,0.0,0.0,0.0,0.0,0.0,0.0,0.0,0.0,0.0,0.0,0.0,0.0,0.0,0.0,0.0,0.0,0.0,0.0,0.0,3.4027,3.7013,4.7166,5.3304,5.4936,5.5012,5.4203,5.252,5.1709,4.8877,4.3792,0.0,0.0,0.0,0.0,0.0,0.0,0.0,0.0,0.0,0.0,0.0,0.0,0.0,0.0,0.0,0.0,0.0,0.0,0.0,0.0,0.0,0.0,0.0,0.0,0.0,0.0,1.8996,2.2737,2.6037,0.0,0.0,0.0,0.0,0.0,0.0,0.0,0.0,0.0,3.4529,3.9188,4.2631,4.3138,4.4933,4.6416,4.6492,4.5686,4.5048,4.5065,4.6291,4.7224,0.0,0.0,0.0,0.0,0.0,0.0,0.0,0.0,0.0,0.0,0.0,0.0,0.0,0.0,0.0,0.0,0.0,0.0,0.0,0.0,0.0,0.0,0.0,0.0,0.0,0.0,0.0,0.0,0.0,1.1156,0.0,0.0,0.0,0.0,0.0,0.0,0.0,0.0,0.0,0.0,0.0,0.0,0.0,0.0,0.0,0.0,0.0,0.0,0.0,0.0,0.0,0.0,0.0,0.0,3.2814,3.6286,4.6424,5.2734,5.4962,5.5012,5.3975,5.1772,5.0812,4.7716,4.214,0.0,0.0,0.0,0.0,0.0,0.0,0.0,0.0,0.0,0.0,0.0,0.0,0.0,0.0,0.0,0.0,0.0,0.0,0.0,0.0,0.0,0.0,0.0,0.0,0.0,0.0,0.0,2.5573,2.6337,2.4735,0.0,0.0,0.0,0.0,0.0,0.0,0.0,0.0,0.0,0.0,4.0134,4.2193,4.4651,4.666,4.7844,4.5398,4.3914,4.5624,4.386,4.1991,4.1134,0.0,0.0,0.0,0.0,0.0,0.0,0.0,0.0,0.0,0.0,0.0,0.0,0.0,0.0,0.0,0.0,0.0,0.0,0.0,0.0,0.0,0.0,0.0,0.0,0.0,0.0,0.0,0.0,0.0,0.0,0.0,0.0,0.0,0.0,0.0,0.0,0.0,0.0,0.0,0.0,0.0,0.0,0.0,0.0,0.0,0.0,0.0,0.0,0.0,0.0,0.0,0.0,0.0,3.1035,3.4054,4.441,5.0631,5.2468,5.354,5.2975,5.0836,4.9589,4.5911,0.0,0.0,0.0,0.0,0.0,0.0,0.0,0.0,0.0,0.0,0.0,0.0,0.0,0.0,0.0,0.0,0.0,0.0,0.0,0.0,0.0,0.0,0.0,0.0,0.0,0.0,0.0,0.0,2.2652,2.3319,2.1837,0.0,0.0,0.0,0.0,0.0,0.0,0.0,0.0,0.0,0.0,3.6029,3.8105,4.1226,0.0,0.0,4.2565,4.0876,4.4326,4.4588,4.28,3.8004,3.8461,0.0,0.0,0.0,0.0,0.0,0.0,0.0,0.0,0.0,0.0,0.0,0.0,0.0,0.0,0.0,0.0,0.0,0.0,0.0,0.0,0.0,0.0,0.0,0.0,0.0,0.0,0.0,0.0,0.0,0.0,0.0,0.0,0.0,0.0,0.0,0.0,0.0,0.0,0.0,0.0,0.0,0.0,0.0,0.0,0.0,0.0,0.0,0.0,0.0,0.0,0.0,0.0,2.8926,3.1165,4.1489,4.7483,4.8643,5.0938,5.1489,4.9982,4.8269,4.3847,0.0,0.0,0.0,0.0,0.0,0.0,0.0,0.0,0.0,0.0,0.0,0.0,0.0,0.0,0.0,0.0,0.0,0.0,0.0,0.0,0.0,0.0,0.0,0.0,0.0,0.0,0.0,0.0,0.0,0.0,0.0,0.0,0.0,0.0,0.0,0.0,0.0,0.0,0.0,0.0,0.0,3.0971,3.2105,3.5848,3.939,0.0,3.7911,3.6342,4.1191,4.7052,4.7424,3.6631,0.0,0.0,0.0,0.0,0.0,0.0,0.0,0.0,0.0,0.0,0.0,0.0,0.0,0.0,0.0,0.0,0.0,0.0,0.0,0.0,0.0,0.0,0.0,0.0,0.0,0.0,0.0,0.0,0.0,0.0,0.0,0.0,0.0,0.0,0.0,0.0,0.0,0.0,0.0,0.0,0.0,0.0,0.0,0.0,0.0,0.0,0.0,0.0,0.0,0.0,0.0,0.0,0.0,0.0,3.0958,3.9158,4.5142,4.8481,4.9208,4.9695,4.9897,4.7761,0.0,0.0,0.0,0.0,0.0,0.0,0.0,0.0,0.0,0.0,0.0,0.0,0.0,0.0,0.0,0.0,0.0,0.0,0.0,0.0,0.0,0.0,0.0,0.0,0.0,0.0,0.0,1.2179,0.0,0.0,0.0,0.0,0.0,0.0,0.0,0.0,0.0,0.0,0.0,0.0,0.0,0.0,2.9369,3.2054,3.4899,3.7048,0.0,0.0,3.2304,3.5526,4.1948,4.374,0.0,0.0,0.0,0.0,0.0,0.0,0.0,0.0,0.0,0.0,0.0,0.0,0.0,0.0,0.0,0.0,0.0,0.0,0.0,0.0,0.0,0.0,0.0,0.0,0.0,0.0,0.0,0.0,0.0,0.0,0.0,0.0,0.0,0.0,0.0,0.0,0.0,0.0,0.0,0.0,0.0,0.0,0.0,0.0,0.0,0.0,0.0,0.0,0.0,0.0,0.0,0.0,0.0,0.0,2.5276,2.8722,3.5188,4.0371,4.3949,4.6313,4.7387,4.7217,4.6213,4.2519,0.0,0.0,0.0,0.0,0.0,0.0,0.0,0.0,0.0,0.0,0.0,0.0,0.0,0.0,0.0,0.0,0.0,0.0,0.0,0.0,0.0,0.0,0.0,0.0,0.0,0.0,0.0,0.0,0.0,0.0,0.0,0.0,0.0,0.0,0.0,0.0,0.0,0.0,0.0,0.0,0.0,0.0,2.9819,3.1809,0.0,0.0,0.0,2.8276,3.2574,0.0,0.0,0.0,0.0,0.0,0.0,0.0,0.0,0.0,0.0,0.0,0.0,0.0,0.0,0.0,0.0,0.0,0.0,0.0,0.0,0.0,0.0,0.0,0.0,0.0,0.0,0.0,0.0,0.0,0.0,0.0,0.0,0.0,0.0,0.0,0.0,0.0,0.0,0.0,0.0,0.0,0.0,0.0,0.0,0.0,0.0,0.0,0.0,0.0,0.0,0.0,0.0,0.0,0.0,0.0,0.0,0.0,2.5598,3.088,3.5049,3.8061,4.279,4.4769,4.3608,4.427,4.1609,0.0,0.0,0.0,0.0,0.0,0.0,0.0,0.0,0.0,0.0,0.0,0.0,0.0,0.0,0.0,0.0,0.0,0.0,0.0,0.0,0.0,0.0,0.0,0.0,0.0,0.0,0.0,0.0,0.0,0.0,0.0,0.0,0.0,0.0,0.0,0.0,0.0,0.0,0.0,0.0,0.0,2.4707,2.7026,2.807,2.8179,0.0,0.0,2.4348,3.0718,3.6394,0.0,0.0,0.0,0.0,0.0,0.0,0.0,0.0,0.0,0.0,0.0,0.0,0.0,0.0,0.0,0.0,0.0,0.0,0.0,0.0,0.0,0.0,0.0,0.0,0.0,0.0,0.0,0.0,0.0,0.0,0.0,0.0,0.0,0.0,0.0,0.0,0.0,0.0,0.0,0.0,0.0,0.0,0.0,0.0,0.0,0.0,0.0,0.0,0.0,0.0,0.0,0.0,0.0,0.0,0.0,0.0,2.5095,2.9701,3.3878,3.7355,3.9767,4.1784,4.3469,4.3202,4.049,0.0,0.0,0.0,0.0,0.0,0.0,0.0,0.0,0.0,0.0,0.0,0.0,0.0,0.0,0.0,0.0,0.0,0.0,0.0,0.0,0.0,0.0,0.0,0.0,0.0,0.0,0.0,0.0,0.0,0.0,0.0,0.0,0.0,0.0,0.0,0.0,0.0,0.0,0.0,0.0,0.0,2.2046,2.7237,2.7025,0.0,0.0,0.0,0.0,2.6117,3.4382,0.0,0.0,0.0,0.0,0.0,0.0,0.0,0.0,0.0,0.0,0.0,0.0,0.0,0.0,0.0,0.0,0.0,0.0,0.0,0.0,0.0,0.0,0.0,0.0,0.0,0.0,0.0,0.0,0.0,0.0,0.0,0.0,0.0,0.0,0.0,0.0,0.0,0.0,0.0,0.0,0.0,0.0,0.0,0.0,0.0,0.0,0.0,0.0,0.0,0.0,0.0,0.0,0.0,0.0,0.0,0.0,2.5151,2.7814,3.1067,3.4873,3.7723,3.9632,4.0635,4.188,3.9997,0.0,0.0,0.0,0.0,0.0,0.0,0.0,0.0,0.0,0.0,0.0,0.0,0.0,0.0,0.0,0.0,0.0,0.0,0.0,0.0,0.0,0.0,0.0,0.0,0.0,0.0,0.0,0.0,0.0,0.0,0.0,0.0,0.0,0.0,0.0,0.0,0.0,0.0,0.0,0.0,1.8732,2.0082,2.4389,0.0,0.0,0.0,0.0,0.0,0.0,3.1618,3.5229,0.0,0.0,0.0,0.0,0.0,0.0,0.0,0.0,0.0,0.0,0.0,0.0,0.0,0.0,0.0,0.0,0.0,0.0,0.0,0.0,0.0,0.0,0.0,0.0,0.0,0.0,0.0,0.0,0.0,0.0,0.0,0.0,0.0,0.0,0.0,0.0,0.0,0.0,0.0,0.0,0.0,0.0,0.0,0.0,0.0,0.0,0.0,0.0,0.0,0.0,0.0,0.0,0.0,0.0,0.0,2.4924,2.5938,2.8244,3.2013,3.5797,3.7619,3.7375,3.9983,3.8903,3.3638,0.0,0.0,0.0,0.0,0.0,0.0,0.0,0.0,0.0,0.0,0.0,0.0,0.0,0.0,0.0,0.0,0.0,0.0,0.0,0.0,0.0,0.0,0.0,0.0,0.0,0.0,0.0,0.0,0.0,0.0,0.0,0.0,0.0,0.0,0.0,0.0,0.0,0.0,0.0,1.7203,1.8362,0.0,0.0,0.0,0.0,0.0,0.0,0.0,0.0,3.0727,0.0,0.0,0.0,0.0,0.0,0.0,0.0,0.0,0.0,0.0,0.0,0.0,0.0,0.0,0.0,0.0,0.0,0.0,0.0,0.0,0.0,0.0,0.0,0.0,0.0,0.0,0.0,0.0,0.0,0.0,0.0,0.0,0.0,0.0,0.0,0.0,0.0,0.0,0.0,0.0,0.0,0.0,0.0,0.0,0.0,0.0,0.0,0.0,0.0,0.0,0.0,0.0,0.0,0.0,0.0,0.0,2.4927,2.77,3.029,3.2667,3.4693,3.6318,3.6541,3.5056,3.1785,0.0,0.0,0.0,0.0,0.0,0.0,0.0,0.0,0.0,0.0,0.0,0.0,0.0,0.0,0.0,0.0,0.0,0.0,0.0,0.0,0.0,0.0,0.0,0.0,0.0,0.0,0.0,0.0,0.0,0.0,0.0,0.0,0.0,0.0,0.0,0.0,0.0,0.0,1.1464,1.36,0.0,0.0,0.0,0.0,0.0,0.0,0.0,0.0,1.9971,0.0,0.0,0.0,0.0,0.0,0.0,0.0,0.0,0.0,0.0,0.0,0.0,0.0,0.0,0.0,0.0,0.0,0.0,0.0,0.0,0.0,0.0,0.0,0.0,0.0,0.0,0.0,0.0,0.0,0.0,0.0,0.0,0.0,0.0,0.0,0.0,0.0,0.0,0.0,0.0,0.0,0.0,0.0,0.0,0.0,0.0,0.0,0.0,0.0,0.0,0.0,0.0,0.0,0.0,0.0,0.0,0.0,0.0,2.7191,2.9508,3.2655,3.4553,3.5004,3.2754,3.116,0.0,0.0,0.0,0.0,0.0,0.0,0.0,0.0,0.0,0.0,0.0,0.0,0.0,0.0,0.0,0.0,0.0,0.0,0.0,0.0,0.0,0.0,0.0,0.0,0.0,0.0,0.0,0.0,0.0,0.0,0.0,0.0,0.0,0.0,0.0,0.0,0.0,0.0,0.0,0.0,0.0,0.0,0.0,0.0,0.0,0.0,0.0,0.0,0.0,0.0,0.0,0.0,0.0,0.0,0.0,0.0,0.0,0.0,0.0,0.0,0.0,0.0,0.0,0.0,0.0,0.0,0.0,0.0,0.0,0.0,0.0,0.0,0.0,0.0,0.0,0.0,0.0,0.0,0.0,0.0,0.0,0.0,0.0,0.0,0.0,0.0,0.0,0.0,0.0,0.0,0.0,0.0,0.0,0.0,0.0,0.0,0.0,0.0,0.0,0.0,0.0,0.0,0.0,0.0,0.0,0.0,0.0,0.0,2.5996,2.8247,3.1681,3.3591,3.3802,3.0165,2.8459,0.0,0.0,0.0,0.0,0.0,0.0,0.0,0.0,0.0,0.0,0.0,0.0,0.0,0.0,0.0,0.0,0.0,0.0,0.0,0.0,0.0,0.0,0.0,0.0,0.0,0.0,0.0,0.0,0.0,0.0,0.0,0.0,0.0,0.0,0.0,0.0,0.0,0.0,0.0,0.0,0.0,0.0,0.0,0.0,0.0,0.0,0.0,0.0,1.9609,0.0,0.0,0.0,0.0,0.0,0.0,0.0,0.0,0.0,0.0,0.0,0.0,0.0,0.0,0.0,0.0,0.0,0.0,0.0,0.0,0.0,0.0,0.0,0.0,0.0,0.0,0.0,0.0,0.0,0.0,0.0,0.0,0.0,0.0,0.0,0.0,0.0,0.0,0.0,0.0,0.0,0.0,0.0,0.0,0.0,0.0,0.0,0.0,0.0,0.0,0.0,0.0,0.0,0.0,0.0,0.0,0.0,0.0,0.0,2.3407,2.5285,2.6662,2.9063,3.2406,3.0644,2.828,0.0,0.0,0.0,0.0,0.0,0.0,0.0,0.0,0.0,0.0,0.0,0.0,0.0,0.0,0.0,0.0,0.0,0.0,0.0,0.0,0.0,0.0,0.0,0.0,0.0,0.0,0.0,0.0,0.0,0.0,0.0,0.0,0.0,0.0,0.0,0.0,0.0,0.0,0.0,0.0,0.0,0.0,0.0,0.0,0.0,0.0,0.0,0.0,0.0,0.0,0.0,0.0,0.0,0.0,0.0,0.0,0.0,0.0,0.0,0.0,0.0,0.0,0.0,0.0,0.0,0.0,0.0,0.0,0.0,0.0,0.0,0.0,0.0,0.0,0.0,0.0,0.0,0.0,0.0,0.0,0.0,0.0,0.0,0.0,0.0,0.0,0.0,0.0,0.0,0.0,0.0,0.0,0.0,0.0,0.0,0.0,0.0,0.0,0.0,0.0,0.0,0.0,0.0,0.0,0.0,0.0,0.0,0.0,2.1162,2.304,2.6169,2.773,2.7624,2.6238,2.4879,0.0,0.0,0.0,0.0,0.0,0.0,0.0,0.0,0.0,0.0,0.0,0.0,0.0,0.0,0.0,0.0,0.0,0.0,0.0,0.0,0.0,0.0,0.0,0.0,0.0,0.0,0.0,0.0,0.0,0.0,0.0,0.0,0.0,0.0,0.0,0.0,0.0,0.0,0.0,0.0,0.0,0.0,0.0,0.0,0.0,0.0,0.0,0.0,0.0,0.0,0.0,0.0,0.0,0.0,0.0,0.0,0.0,0.0,0.0,0.0,0.0,0.0,0.0,0.0,0.0,0.0,0.0,0.0,0.0,0.0,0.0,0.0,0.0,0.0,0.0,0.0,0.0,0.0,0.0,0.0,0.0,0.0,0.0,0.0,0.0,0.0,0.0,0.0,0.0,0.0,0.0,0.0,0.0,0.0,0.0,0.0,0.0,0.0,0.0,0.0,0.0,0.0,0.0,0.0,0.0,0.0,0.0,0.0,0.0,2.1052,2.4504,2.523,2.2834,2.192,2.1336,0.0,0.0,0.0,0.0,0.0,0.0,0.0,0.0,0.0,0.0,0.0,0.0,0.0,0.0,0.0,0.0,0.0,0.0,0.0,0.0,0.0,0.0,0.0,0.0,0.0,0.0,0.0,0.0,0.0,0.0,0.0,0.0,0.0,0.0,0.0,0.0,0.0,0.0,0.0,0.0,0.0,0.0,0.0,0.0,0.0,0.0,0.0,0.0,0.0,0.0,0.0,0.0,0.0,0.0,0.0,0.0,0.0,0.0,0.0,0.0,0.0,0.0,0.0,0.0,0.0,0.0,0.0,0.0,0.0,0.0,0.0,0.0,0.0,0.0,0.0,0.0,0.0,0.0,0.0,0.0,0.0,0.0,0.0,0.0,0.0,0.0,0.0,0.0,0.0,0.0,0.0,0.0,0.0,0.0,0.0,0.0,0.0,0.0,0.0,0.0,0.0,0.0,0.0,0.0,0.0,0.0,0.0,0.0,0.0,1.9002,1.9759,1.9851,1.9185,1.9219,1.8489,0.0,0.0,0.0,0.0,0.0,0.0,0.0,0.0,0.0,0.0,0.0,0.0,0.0,0.0,0.0,0.0,0.0,0.0,0.0,0.0,0.0,0.0,0.0,0.0,0.0,0.0,0.0,0.0,0.0,0.0,0.0,0.0,0.0,0.0,0.0,0.0,0.0,0.0,0.0,0.0,0.0,0.0,0.0,0.0,0.0,0.0,0.0,0.0,0.0,0.0,0.0,0.0,0.0,0.0,0.0,0.0,0.0,0.0,0.0,0.0,0.0,0.0,0.0,0.0,0.0,0.0,0.0,0.0,0.0,0.0,0.0,0.0,0.0,0.0,0.0,0.0,0.0,0.0,0.0,0.0,0.0,0.0,0.0,0.0,0.0,0.0,0.0,0.0,0.0,0.0,0.0,0.0,0.0,0.0,0.0,0.0,0.0,0.0,0.0,0.0,0.0,0.0,0.0,0.0,0.0,0.0,0.0,0.0,0.0,1.4262,1.5991,1.7037,1.7244,1.6911,1.6739,1.6728,0.0,0.0,0.0,0.0,0.0,0.0,0.0,0.0,0.0,0.0,0.0,0.0,0.0,0.0,0.0,0.0,0.0,0.0,0.0,0.0,0.0,0.0,0.0,0.0,0.0,0.0,0.0,0.0,0.0,0.0,0.0,0.0,0.0,0.0,0.0,0.0,0.0,0.0,0.0,0.0,0.0,0.0,0.0,0.0,0.0,0.0,0.0,0.0,0.0,0.0,0.0,0.0,0.0,0.0,0.0,0.0,0.0,0.0,0.0,0.0,0.0,0.0,0.0,0.0,0.0,0.0,0.0,0.0,0.0,0.0,0.0,0.0,0.0,0.0,0.0,0.0,0.0,0.0,0.0,0.0,0.0,0.0,0.0,0.0,0.0,0.0,0.0,0.0,0.0,0.0,0.0,0.0,0.0,0.0,0.0,0.0,0.0,0.0,0.0,0.0,0.0,0.0,0.0,0.0,0.0,0.0,0.0,0.0,1.201,1.4199,1.5507,1.5768,1.5161,1.4931,0.0,0.0,0.0,0.0,0.0,0.0,0.0,0.0,0.0,0.0,0.0,0.0,0.0,0.0,0.0,0.0,0.0,0.0,0.0,0.0,0.0,0.0,0.0,0.0,0.0,0.0,0.0,0.0,0.0,0.0,0.0,0.0,0.0,0.0,0.0,0.0,0.0,0.0,0.0,0.0,0.0,0.0,0.0,0.0,0.0,0.0,0.0,0.0,0.0,0.0,0.0,0.0,0.0,0.0,0.0,0.0,0.0,0.0,0.0,0.0,0.0,0.0,0.0,0.0,0.0,0.0,0.0,0.0,0.0,0.0,0.0,0.0,0.0,0.0,0.0,0.0,0.0,0.0,0.0,0.0,0.0,0.0,0.0,0.0,0.0,0.0,0.0,0.0,0.0,0.0,0.0,0.0,0.0,0.0,0.0,0.0,0.0,0.0,0.0,0.0,0.0,0.0,0.0,0.0,0.0,0.0,0.0,0.0,0.8688,1.2959,1.4526,1.5051,1.4656,1.3998,1.301,0.0,0.0,0.0,0.0,0.0,0.0,0.0,0.0,0.0,0.0,0.0,0.0,0.0,0.0,0.0,0.0,0.0,0.0,0.0,0.0,0.0,0.0,0.0,0.0,0.0,0.0,0.0,0.0,0.0,0.0,0.0,0.0,0.0,0.0,0.0,0.0,0.0,0.0,0.0,0.0,0.0,0.0,0.0,0.0,0.0,0.0,0.0,0.0,0.0,0.0,0.0,0.0,0.0,0.0,0.0,0.0,0.0,0.0,0.0,0.0,0.0,0.0,0.0,0.0,0.0,0.0,0.0,0.0,0.0,0.0,0.0,0.0,0.0,0.0,0.0,0.0,0.0,0.0,0.0,0.0,0.0,0.0,0.0,0.0,0.0,0.0,0.0,0.0,0.0,0.0,0.0,0.0,0.0,0.0,0.0,0.0,0.0,0.0,0.0,0.0,0.0,0.0,0.0,0.0,0.0,0.0,0.0,0.0,0.0,0.9516,0.0,1.3769,1.4985,1.3457,1.2911,0.0,0.0,0.0,0.0,0.0,0.0,0.0,0.0,0.0,0.0,0.0,0.0,0.0,0.0,0.0,0.0,0.0,0.0,0.0,0.0,0.0,0.0,0.0,0.0,0.0,0.0,0.0,0.0,0.0,0.0,0.0,0.0,0.0,0.0,0.0,0.0,0.0,0.0,0.0,0.0,0.0,0.0,0.0,0.0,0.0,0.0,0.0,0.0,0.0,0.0,0.0,0.0,0.0,0.0,0.0,0.0,0.0,0.0,0.0,0.0,0.0,0.0,0.0,0.0,0.0,0.0,0.0,0.0,0.0,0.0,0.0,0.0,0.0,0.0,0.0,0.0,0.0,0.0,0.0,0.0,0.0,0.0,0.0,0.0,0.0,0.0,0.0,0.0,0.0,0.0,0.0,0.0,0.0,0.0,0.0,0.0,0.0,0.0,0.0,0.0,0.0,0.0,0.0,0.0,0.0,0.0,0.0,0.0,0.0,0.9436,1.1152,1.292,1.4588,1.3379,1.3001,0.0,0.0,0.0,0.0,0.0,0.0,0.0,0.0,0.0,0.0,0.0,0.0,0.0,0.0,0.0,0.0,0.0,0.0,0.0,0.0,0.0,0.0,0.0,0.0,0.0,0.0,0.0,0.0,0.0,0.0,0.0,0.0,0.0,0.0,0.0,0.0,0.0,0.0,0.0,0.0,0.0,0.0,0.0,0.0,0.0,0.0,0.0,0.0,0.0,0.0,0.0,0.0,0.0,0.0,0.0,0.0,0.0,0.0,0.0,0.0,0.0,0.0,0.0,0.0,0.0,0.0,0.0,0.0,0.0,0.0,0.0,0.0,0.0,0.0,0.0,0.0,0.0,0.0,0.0,0.0,0.0,0.0,0.0,0.0,0.0,0.0,0.0,0.0,0.0,0.0,0.0,0.0,0.0,0.0,0.0,0.0,0.0,0.0,0.0,0.0,0.0,0.0,0.0,0.0,0.0,0.0,0.0,0.0,0.0,1.2074,1.2101,1.2548,1.349,1.3526,1.3082,0.0,0.0,0.0,0.0,0.0,0.0,0.0,0.0,0.0,0.0,0.0,0.0,0.0,0.0,0.0,0.0,0.0,0.0,0.0,0.0,0.0,0.0,0.0,0.0,0.0,0.0,0.0,0.0,0.0,0.0,0.0,0.0,0.0,0.0,0.0,0.0,0.0,0.0,0.0,0.0,0.0,0.0,0.0,0.0,0.0,0.0,0.0,0.0,0.0,0.0,0.0,0.0,0.0,0.0,0.0,0.0,0.0,0.0,0.0,0.0,0.0,0.0,0.0,0.0,0.0,0.0,0.0,0.0,0.0,0.0,0.0,0.0,0.0,0.0,0.0,0.0,0.0,0.0,0.0,0.0,0.0,0.0,0.0,0.0,0.0,0.0,0.0,0.0,0.0,0.0,0.0,0.0,0.0,0.0,0.0,0.0,0.0,0.0,0.0,0.0,0.0,0.0,0.0,0.0,0.0,0.0,0.0,0.0,0.0,0.0,1.1334,1.2201,1.246,1.2496,1.2642,1.2908,0.0,0.0,0.0,0.0,0.0,0.0,0.0,0.0,0.0,0.0,0.0,0.0,0.0,0.0,0.0,0.0,0.0,0.0,0.0,0.0,0.0,0.0,0.0,0.0,0.0,0.0,0.0,0.0,0.0,0.0,0.0,0.0,0.0,0.0,0.0,0.0,0.0,0.0,0.0,0.0,0.0,0.0,0.0,0.0,0.0,0.0,0.0,0.0,0.0,0.0,0.0,0.0,0.0,0.0,0.0,0.0,0.0,0.0,0.0,0.0,0.0,0.0,0.0,0.0,0.0,0.0,0.0,0.0,0.0,0.0,0.0,0.0,0.0,0.0,0.0,0.0,0.0,0.0,0.0,0.0,0.0,0.0,0.0,0.0,0.0,0.0,0.0,0.0,0.0,0.0,0.0,0.0,0.0,0.0,0.0,0.0,0.0,0.0,0.0,0.0,0.0,0.0,0.0,0.0,0.0,0.0,0.0,0.0,0.0,0.0,1.1591,1.2044,1.2044,1.2268,0.0,0.0,0.0,0.0,0.0,0.0,0.0,0.0,0.0,0.0,0.0,0.0,0.0,0.0,0.0,0.0,0.0,0.0,0.0,0.0,0.0,0.0,0.0,0.0,0.0,0.0,0.0,0.0,0.0,0.0,0.0,0.0,0.0,0.0,0.0,0.0,0.0,0.0,0.0,0.0,0.0,0.0,0.0,0.0,0.0,0.0,0.0,0.0,0.0,0.0,0.0,0.0,0.0,0.0,0.0,0.0,0.0,0.0,0.0,0.0,0.0,0.0,0.0,0.0,0.0,0.0,0.0,0.0,0.0,0.0,0.0,0.0,0.0,0.0,0.0,0.0,0.0,0.0,0.0,0.0,0.0,0.0,0.0,0.0,0.0,0.0,0.0,0.0,0.0,0.0,0.0,0.0,0.0,0.0,0.0,0.0,0.0,0.0,0.0,0.0,0.0,0.0,0.0,0.0,0.0,0.0,0.0,0.0,0.0,0.0,0.0,1.0779,1.1852,1.2001,0.0,1.1905,0.0,0.0,0.0,0.0,0.0,0.0,0.0,0.0,0.0,0.0,0.0,0.0,0.0,0.0,0.0,0.0,0.0,0.0,0.0,0.0,0.0,0.0,0.0,0.0,0.0,0.0,0.0,0.0,0.0,0.0,0.0,0.0,0.0,0.0,0.0,0.0,0.0,0.0,0.0,0.0,0.0,0.0,0.0,0.0,0.0,0.0,0.0,0.0,0.0,0.0,0.0,0.0,0.0,0.0,0.0,0.0,0.0,0.0,0.0,0.0,0.0,0.0,0.0,0.0,0.0,0.0,0.0,0.0,0.0,0.0,0.0,0.0,0.0,0.0,0.0,0.0,0.0,0.0,0.0,0.0,0.0,0.0,0.0,0.0,0.0,0.0,0.0,0.0,0.0,0.0,0.0,0.0,0.0,0.0,0.0,0.0,0.0,0.0,0.0,0.0,0.0,0.0,0.0,0.0,0.0,0.0,0.0,0.0,0.0,0.0,0.0,0.0,1.1591,1.1635,1.0764,0.0,0.0,0.0,0.0,0.0,0.0,0.0,0.0,0.0,0.0,0.0,0.0,0.0,0.0,0.0,0.0,0.0,0.0,0.0,0.0,0.0,0.0,0.0,0.0,0.0,0.0,0.0,0.0,0.0,0.0,0.0,0.0,0.0,0.0,0.0,0.0,0.0,0.0,0.0,0.0,0.0,0.0,0.0,0.0,0.0,0.0,0.0,0.0,0.0,0.0,0.0,0.0,0.0,0.0,0.0,0.0,0.0,0.0,0.0,0.0,0.0,0.0,0.0,0.0,0.0,0.0,0.0,0.0,0.0,0.0,0.0,0.0,0.0,0.0,0.0,0.0,0.0,0.0,0.0,0.0,0.0,0.0,0.0,0.0,0.0,0.0,0.0,0.0,0.0,0.0,0.0,0.0,0.0,0.0,0.0,0.0,0.0,0.0,0.0,0.0,0.0,0.0,0.0,0.0,0.0,0.0,0.0,0.0,0.0,0.0,0.9293,0.9673,1.0489,1.0548,0.9883,0.0,0.0,0.0,0.0,0.0,0.0,0.0,0.0,0.0,0.0,0.0,0.0,0.0,0.0,0.0,0.0,0.0,0.0,0.0,0.0,0.0,0.0,0.0,0.0,0.0,0.0,0.0,0.0,0.0,0.0,0.0,0.0,0.0,0.0,0.0,0.0,0.0,0.0,0.0,0.0,0.0,0.0,0.0,0.0,0.0,0.0,0.0,0.0,0.0,0.0,0.0,0.0,0.0,0.0,0.0,0.0,0.0,0.0,0.0,0.0,0.0,0.0,0.0,0.0,0.0,0.0,0.0,0.0,0.0,0.0,0.0,0.0,0.0,0.0,0.0,0.0,0.0,0.0,0.0,0.0,0.0,0.0,0.0,0.0,0.0,0.0,0.0,0.0,0.0,0.0,0.0,0.0,0.0,0.0,0.0,0.0,0.0,0.0,0.0,0.0,0.0,0.0,0.0,0.0,0.0,0.0,0.0,0.0,0.0,0.0,0.0,0.0,0.0,0.0,0.944,0.0,0.0,0.0,0.0,0.0,0.0,0.0,0.0,0.0,0.0,0.0,0.0,0.0,0.0,0.0,0.0,0.0,0.0,0.0,0.0,0.0,0.0,0.0,0.0,0.0,0.0,0.0,0.0,0.0,0.0,0.0,0.0,0.0,0.0,0.0,0.0,0.0,0.0,0.0,0.0,0.0,0.0,0.0,0.0,0.0,0.0,0.0,0.0,0.0,0.0,0.0,0.0,0.0,0.0,0.0,0.0,0.0,0.0,0.0,0.0,0.0,0.0,0.0,0.0,0.0,0.0,0.0,0.0,0.0,0.0,0.0,0.0,0.0,0.0,0.0,0.0,0.0,0.0,0.0,0.0,0.0,0.0,0.0,0.0,0.0,0.0,0.0,0.0,0.0,0.0,0.0,0.0,0.0,0.0,0.0,0.0,0.0,0.0,0.0,0.0,0.0,0.0,0.0,0.0,0.0,0.0,0.0,0.0,0.0,0.0,0.0,0.0,0.0,0.0,0.0,0.0,0.0,0.0,0.0,0.0,0.0,0.0,0.0,0.0,0.0,0.0,0.0,0.0,0.0,0.0,0.0,0.0,0.0,0.0,0.0,0.0,0.0,0.0,0.0,0.0,0.0,0.0,0.0,0.0,0.0,0.0,0.0,0.0,0.0,0.0,0.0,0.0,0.0,0.0,0.0,0.0,0.0,0.0,0.0,0.0,0.0,0.0,0.0,0.0,0.0,0.0,0.0,0.0,0.0,0.0,0.0,0.0,0.0,0.0,0.0,0.0,0.0,0.0,0.0,0.0,0.0,0.0,0.0,0.0,0.0,0.0,0.0,0.0,0.0,0.0,0.0,0.0,0.0,0.0,0.0,0.0,0.0,0.0,0.0,0.0,0.0,0.0,0.0,0.0,0.0,0.0,0.0,0.0,0.0,0.0,0.0,0.0,0.0,0.0,0.0,0.0,0.0,0.0,0.0,0.0,0.0,0.0,0.0,0.0,0.0,0.0,0.0,0.0,0.0,0.0,0.0,0.0,0.0,0.0,0.0,0.0,0.0,0.0,0.0,0.0,0.0,0.0,0.0,0.0,0.0,0.0,0.0,0.0,0.0,0.0,0.0,0.0,0.0,0.0,0.0,0.0,0.0,0.0,0.0,0.0,0.0,0.0,0.0,0.0,0.0,0.0,0.0,0.0,0.0,0.0,0.0,0.0,0.0,0.0,0.0,0.0,0.0,0.0,0.0,0.0,0.0,0.0,0.0,0.0,0.0,0.0,0.0,0.0,0.0,0.0,0.0,0.0,0.0,0.0,0.0,0.0,0.0,0.0,0.0,0.0,0.0,0.0,0.0,0.0,0.0,0.0,0.0,0.0,0.0,0.0,0.0,0.0,0.0,0.0,0.0,0.0,0.0,0.0,0.0,0.0,0.0,0.0,0.0,0.0,0.0,0.0,0.0,0.0,0.0,0.0,0.0,0.0,0.0,0.0,0.0,0.0,0.0,0.0,0.0,0.0,0.0,0.0,0.0,0.0,0.0,0.0,0.0,0.0,0.0,0.0,0.0,0.0,0.0,0.0,0.0,0.0,0.0,0.0,0.0,0.0,0.0,0.0,0.0,0.0,0.0,0.0,0.0,0.0,0.0,0.0,0.0,0.0,0.0,0.0,0.0,0.0,0.0,0.0,0.0,0.0,0.0,0.0,0.0,0.0,0.0,0.0,0.0,0.0,0.0,0.0,0.0,0.0,0.0,0.0,0.0,0.0,0.0,0.0,0.0,0.0,0.0,0.0,0.0,0.0,0.0,0.0,0.0,0.0,0.0,0.0,0.0,0.0,0.0,0.0,0.0,0.0,0.0,0.0,0.0,0.0,0.0,0.0,0.0,0.0,0.0,0.0,0.0,0.0,0.0,0.0,0.0,0.0,0.0,0.0,0.0,0.0,0.0,0.0,0.0,0.0,0.0,0.0,0.0,0.0,0.0,0.0,0.0,0.0,0.0,0.0,0.0,0.0,0.0,0.0,0.0,0.0,0.0,0.0,0.0,0.0,0.0,0.0,0.0,0.0,0.0,0.0,0.0,0.0,0.0,0.0,0.0,0.0,0.0,0.0,0.0,0.0,0.0,0.0,0.0,0.0,0.0,0.0,0.0,0.0,0.0,0.0,0.0,0.0,0.0,0.0,0.0,0.0,0.0,0.0,0.0,0.0,0.0,0.0,0.0,0.0,0.0,0.0,0.0,0.0,0.0,0.0,0.0,0.0,0.0,0.0,0.0,0.0,0.0,0.0,0.0,0.0,0.0,0.0,0.0,0.0,0.0,0.0,0.0,0.0,0.0,0.0,0.0,0.0,0.0,0.0,0.0,0.0,0.0,0.0,0.0,0.0,0.0,0.0,0.0,0.0,0.0,0.0,0.0,0.0,0.0,0.0,0.0,0.0,0.0,0.0,0.0,0.0,0.0,0.0,0.0,0.0,0.0,0.0,0.0,0.0,0.0,0.0,0.0,0.0,0.0,0.0,0.0,0.0,0.0,0.0,0.0,0.0,0.0,0.0,0.0,0.0,0.0,0.0,0.0,0.0,0.0,0.0,0.0,0.0,0.0,0.0,0.0,0.0,0.0,0.0,0.0,0.0,0.0,0.0,0.0,0.0,0.0,0.0,0.0,0.0,0.0,0.0,0.0,0.0,0.0,0.0,0.0,0.0,0.0,0.0,0.0,0.0,0.0,0.0,0.0,0.0,0.0,0.0,0.0,0.0,0.0,0.0,0.0,0.0,0.0,0.0,0.0,0.0,0.0,0.0,0.0,0.0,0.0,0.0,0.0,0.0,0.0,0.0,0.0,0.0,0.0,0.0,0.0,0.0,0.0,0.0,0.0,0.0,0.0,0.0,0.0,0.0,0.0,0.0,0.0,0.0,0.0,0.0,0.0,0.0,0.0,0.0,0.0,0.0,0.0,0.0,0.0,0.0,0.0,0.0,0.0,0.0,0.0,0.0,0.0,0.0,0.0,0.0,0.0,0.0,0.0,0.0,0.0,0.0,0.0,0.0,0.0,0.0,0.0,0.0,0.0,0.0,0.0,0.0,0.0,0.0,0.0,0.0,0.0,0.0,0.0,0.0,0.0,0.0,0.0,0.0,0.0,0.0,0.0,0.0,0.0,0.0,0.0,0.0,0.0,0.0,0.0,0.0,0.0,0.0,0.0,0.0,0.0,0.0,0.0,0.0,0.0,0.0,0.0,0.0,0.0,0.0,0.0,0.0,0.0,0.0,0.0,0.0,0.0,0.0,0.0,0.0,0.0,0.0,0.0,0.0,0.0,0.0,0.0,0.0,0.0,0.0,0.0,0.0,0.0,0.0,0.0,0.0,0.0,0.0,0.0,0.0,0.0,0.0,0.0,0.0,0.0,0.0,0.0,0.0,0.0,0.0,0.0,0.0,0.0,0.0,0.0,0.0,0.0,0.0,0.0,0.0,0.0,0.0,0.0,0.0,0.0,0.0,0.0,0.0,0.0,0.0,0.0,0.0,0.0,0.0,0.0,0.0,0.0,0.0,0.0,0.0,0.0,0.0,0.0,0.0,0.0,0.0,0.0,0.0,0.0,0.0,0.0,0.0,0.0,0.0,0.0,0.0,0.0,0.0,0.0,0.0,0.0,0.0,0.0,0.0,0.0,0.0,0.0,0.0,0.0,0.0,0.0,0.0,0.0,0.0,0.0,0.0,0.0,0.0,0.0,0.0,0.0,0.0,0.0,0.0,0.0,0.0,0.0,0.0,0.0,0.0,0.0,0.0,0.0,0.0,0.0,0.0,0.0,0.0,0.0,0.0,0.0,0.0,0.0,0.0,0.0,0.0,0.0,0.0,0.0,0.0,0.0,0.0,0.0,0.0,0.0,0.0,0.0,0.0,0.0,0.0,0.0,0.0,0.0,0.0,0.0,0.0,0.0,0.0,0.0,0.0,0.0,0.0,0.0,0.0,0.0,0.0,0.0,0.0,0.0,0.0,0.0,0.0,0.0,0.0,0.0,0.0,0.0,0.0,0.0,0.0,0.0,0.0,0.0,0.0,0.0,0.0,0.0,0.0,0.0,0.0,0.0,0.0,0.0,0.0,0.0,0.0,0.0,0.0,0.0,0.0,0.0,0.0,0.0,0.0,0.0,0.0,0.0,0.0,0.0,0.0,0.0,0.0,0.0,0.0,0.0,0.0,0.0,0.0,0.0,0.0,0.0,0.0,0.0,0.0,0.0,0.0,0.0,0.0,0.0,0.0,0.0,0.0,0.0,0.0,0.0,0.0,0.0,0.0,0.0,0.0,0.0,0.0,0.0,0.0,0.0,0.0,0.0,0.0,0.0,0.0,0.0,0.0,0.0,0.0,0.0,0.0]}]]]